[[{"header":{"parameterUnit":"m.s-1","parameterCategory":1,"la1":30.6,"la2":29.2853,"lo1":-89.7004,"lo2":-87.6739,"dy":0.0162,"dx":0.0183,"nx":112,"ny":82,"refTime":"2024-09-11T00:00:00:Z","depth":0,"parameterNumber":2,"parameterNumberName":"U-component_of_WINDS"},"data":[0.0,0.0,0.0,0.0,0.0,0.0,0.0,0.0,0.0,0.0,0.0,0.0,0.0,0.0,0.0,0.0,0.0,0.0,0.0,0.0,0.0,0.0,0.0,0.0,0.0,0.0,0.0,0.0,0.0,0.0,0.0,0.0,0.0,0.0,0.0,0.0,0.0,0.0,0.0,0.0,0.0,0.0,0.0,0.0,0.0,0.0,0.0,0.0,0.0,0.0,0.0,0.0,0.0,0.0,0.0,0.0,0.0,0.0,0.0,0.0,0.0,0.0,0.0,0.0,0.0,0.0,0.0,0.0,0.0,0.0,0.0,0.0,0.0,0.0,0.0,0.0,0.0,0.0,0.0,0.0,0.0,0.0,0.0,0.0,0.0,0.0,0.0,0.0,0.0,0.0,0.0,0.7922,0.8976,0.9386,0.9024,0.821,0.7309,0.6308,0.0,0.0,0.0,0.0,0.0,0.0,0.0,0.0,0.0,0.0,0.0,0.0,0.0,0.0,0.0,0.0,0.0,0.0,0.0,0.0,0.0,0.0,0.0,0.0,0.0,0.0,0.0,0.0,0.0,0.0,0.0,0.0,0.0,0.0,0.0,0.0,0.0,0.0,0.0,0.0,0.0,0.0,0.0,0.0,0.0,0.0,0.0,0.0,0.0,0.0,0.0,0.0,0.0,0.0,0.0,0.0,0.0,0.0,0.0,0.0,0.0,0.0,0.0,0.0,0.0,0.0,0.0,0.0,0.0,0.0,0.0,0.0,0.0,0.0,0.0,0.0,0.0,0.0,0.0,0.0,0.0,0.0,0.0,0.0,0.0,0.0,0.0,0.0,0.0,0.0,0.0,0.0,0.0,0.0,0.0,0.0,0.0,0.0,0.0,0.0,0.0,0.0,0.0,0.0,0.7118,0.8594,0.8863,0.8958,0.8975,0.7753,0.6707,0.6098,0.0,0.0,0.0,0.0,0.0,0.0,0.0,0.0,0.0,0.0,0.0,0.0,0.0,0.0,0.0,0.0,0.0,0.0,0.0,0.0,0.0,0.0,0.0,0.0,0.0,0.0,0.0,0.0,0.0,0.0,0.0,0.0,0.0,0.0,0.0,0.0,0.0,0.0,0.0,0.0,0.0,0.0,0.0,0.0,0.0,0.0,0.0,0.0,0.0,0.0,0.0,0.0,0.0,0.0,0.0,0.0,0.0,0.0,0.0,0.0,0.0,0.0,0.0,0.0,0.0,0.0,0.0,0.0,0.0,0.0,0.0,0.0,0.0,0.0,0.0,0.0,0.0,0.0,0.0,0.0,0.0,0.0,0.0,0.0,0.0,0.0,0.0,0.0,0.0,0.0,0.0,0.0,0.0,0.0,0.0,0.0,0.0,0.0,0.0,0.0,0.0,0.0,0.0,0.6546,0.7425,0.8334,0.8648,0.8659,0.8308,0.7204,0.6279,0.5659,0.478,0.0,0.0,0.0,0.0,0.0,0.0,0.0,0.0,0.0,0.0,0.0,0.0,0.0,0.0,0.0,0.0,0.0,0.0,0.0,0.0,0.0,0.0,0.0,0.0,0.0,0.0,0.0,0.0,0.0,0.0,0.0,0.0,0.0,0.0,0.0,0.0,0.0,0.0,0.0,0.0,0.0,0.0,0.0,0.0,0.0,0.0,0.0,0.0,0.0,0.0,0.0,0.0,0.0,0.0,0.0,0.0,0.0,0.0,0.0,0.0,0.0,0.0,0.0,0.0,0.0,0.0,0.0,0.0,0.0,0.0,0.0,0.0,0.0,0.0,0.0,0.0,0.0,0.0,0.0,0.0,0.0,0.0,0.0,0.0,0.0,0.0,0.0,0.0,0.0,0.0,0.0,0.0,0.0,0.0,0.0,0.0,0.0,0.0,0.0,0.0,0.0,0.0,0.68,0.7446,0.7921,0.8252,0.817,0.7551,0.6598,0.5783,0.5183,0.4059,0.0,0.0,0.0,0.0,0.0,0.0,0.0,0.0,0.0,0.0,0.0,0.0,0.0,0.0,0.0,0.0,0.0,0.0,0.0,0.0,0.0,0.0,0.0,0.0,0.0,0.0,0.0,0.0,0.0,0.0,0.0,0.0,0.0,0.0,0.0,0.0,0.0,0.0,0.0,0.0,0.0,0.0,0.0,0.0,0.0,0.0,0.0,0.0,0.0,0.0,0.0,0.0,0.0,0.0,0.0,0.0,0.0,0.0,0.0,0.0,0.0,0.0,0.0,0.0,0.0,0.0,0.0,0.0,0.0,0.0,0.0,0.0,0.0,0.0,0.0,0.0,0.0,0.0,0.0,0.0,0.0,0.0,0.0,0.0,0.0,0.0,0.0,0.0,0.0,0.0,0.0,0.0,0.0,0.0,0.0,0.0,0.0,0.0,0.0,0.0,0.0,0.0,0.6356,0.6951,0.7747,0.7516,0.7175,0.6875,0.5895,0.5104,0.4684,0.3759,0.0,0.0,0.0,0.0,0.0,0.0,0.0,0.0,0.0,0.0,0.0,0.0,0.0,0.0,0.0,0.0,0.0,0.0,0.0,0.0,0.0,0.0,0.0,0.0,0.0,0.0,0.0,0.0,0.0,0.0,0.0,0.0,0.0,0.0,0.0,0.0,0.0,0.0,0.0,0.0,0.0,0.0,0.0,0.0,0.0,0.0,0.0,0.0,0.0,0.0,0.0,0.0,0.0,0.0,0.0,0.0,0.0,0.0,0.0,0.0,0.0,0.0,0.0,0.0,0.0,0.0,0.0,0.0,0.0,0.0,0.0,0.0,0.0,0.0,0.0,0.0,0.0,0.0,0.0,0.0,0.0,0.0,0.0,0.0,0.0,0.0,0.0,0.0,0.0,0.0,0.0,0.0,0.0,0.0,0.0,0.0,0.0,0.0,0.0,0.0,0.0,0.0,0.5728,0.634,0.0,0.6735,0.66,0.619,0.517,0.4382,0.4121,0.0,0.0,0.0,0.0,0.0,0.0,0.0,0.0,0.0,0.0,0.0,0.0,0.0,0.0,0.0,0.0,0.0,0.0,0.0,0.0,0.0,0.0,0.0,0.0,0.0,0.0,0.0,0.0,0.0,0.0,0.0,0.0,0.0,0.0,0.0,0.0,0.0,0.0,0.0,0.0,0.0,0.0,0.0,0.0,0.0,0.0,0.0,0.0,0.0,0.0,0.0,0.0,0.0,0.0,0.0,0.0,0.0,0.0,0.0,0.0,0.0,0.0,0.0,0.0,0.0,0.0,0.0,0.0,0.0,0.0,0.0,0.0,0.0,0.0,0.0,0.0,0.0,0.0,0.0,0.0,0.0,0.0,0.0,0.0,0.0,0.0,0.0,0.0,0.0,0.0,0.0,0.0,0.0,0.0,0.0,0.0,0.0,0.0,0.0,0.0,0.0,0.0,0.4388,0.5085,0.5547,0.0,0.5803,0.5726,0.5256,0.4359,0.3797,0.3715,0.0,0.0,0.0,0.0,0.0,0.0,0.0,0.0,0.0,0.0,0.0,0.0,0.0,0.0,0.0,0.0,0.0,0.0,0.0,0.0,0.0,0.0,0.0,0.0,0.0,0.0,0.0,0.0,0.0,0.0,0.0,0.0,0.0,0.0,0.0,0.0,0.0,0.0,0.0,0.0,0.0,0.0,0.0,0.0,0.0,0.0,0.0,0.0,0.0,0.0,0.0,0.0,0.0,0.0,0.0,0.0,0.0,0.0,0.0,0.0,0.0,0.0,0.0,0.0,0.0,0.0,0.0,0.0,0.0,0.0,0.0,0.0,0.0,0.0,0.0,0.0,0.0,0.0,0.0,0.0,0.0,0.0,0.0,0.0,0.0,0.0,0.0,0.0,0.0,0.0,0.0,0.0,0.0,0.0,0.0,0.0,0.0,0.0,0.0,0.0,0.0,0.0,0.4285,0.4398,0.4527,0.4834,0.469,0.4409,0.4013,0.3502,0.3292,0.0,0.0,0.0,0.0,0.0,0.0,0.0,0.0,0.0,0.0,0.0,0.0,0.0,0.0,0.0,0.0,0.0,0.0,0.0,0.0,0.0,0.0,0.0,0.0,0.0,0.0,0.0,0.0,0.0,0.0,0.0,0.0,0.0,0.0,0.0,0.0,0.0,0.0,0.0,0.0,0.0,0.0,0.0,0.0,0.0,0.0,0.0,0.0,0.0,0.0,0.0,0.0,0.0,0.0,0.0,0.0,0.0,0.0,0.0,0.0,0.0,0.0,0.0,0.0,0.0,0.0,0.0,0.0,0.0,0.0,0.0,0.0,0.0,0.0,0.0,0.0,0.0,0.0,0.0,0.0,0.0,0.0,0.0,0.0,0.0,0.0,0.0,0.0,0.0,0.0,0.0,0.0,0.0,0.0,0.0,0.0,0.0,0.0,0.0,0.0,0.0,0.0,0.0,0.3334,0.37,0.3976,0.4161,0.4049,0.3898,0.3671,0.315,0.2769,0.2599,0.0,0.0,0.0,0.0,0.0,0.0,0.0,0.0,0.0,0.0,0.0,0.0,0.0,0.0,0.0,0.0,0.0,0.0,0.0,0.0,0.0,0.0,0.0,0.0,0.0,0.0,0.0,0.0,0.0,0.0,0.0,0.0,0.0,0.0,0.0,0.0,0.0,0.0,0.0,0.0,0.0,0.0,0.0,0.0,0.0,0.0,0.0,0.0,0.0,0.0,0.0,0.0,0.0,0.0,0.0,0.0,0.0,0.0,0.0,0.0,0.0,0.0,0.0,0.0,0.0,0.0,0.0,0.0,0.0,0.0,0.0,0.0,0.0,0.0,0.0,0.0,0.0,0.0,0.0,0.0,0.0,0.0,0.0,0.0,0.0,0.0,0.0,0.0,0.0,0.0,0.0,0.0,0.0,0.0,0.0,0.0,0.0,0.0,0.0,0.0,0.0,0.0,0.2968,0.3257,0.344,0.3448,0.3405,0.3264,0.3104,0.2742,0.2493,0.2363,0.0,0.0,0.0,0.0,0.0,0.0,0.0,0.0,0.0,0.0,0.0,0.0,0.0,0.0,0.0,0.0,0.0,0.0,0.0,0.0,0.0,0.0,0.0,0.0,0.0,0.0,0.0,0.0,0.0,0.0,0.0,0.0,0.0,0.0,0.0,0.0,0.0,0.0,0.0,0.0,0.0,0.0,0.0,0.0,0.0,0.0,0.0,0.0,0.0,0.0,0.0,0.0,0.0,0.0,0.0,0.0,0.0,0.0,0.0,0.0,0.0,0.0,0.0,0.0,0.0,0.0,0.0,0.0,0.0,0.0,0.0,0.0,0.0,0.0,0.0,0.0,0.0,0.0,0.0,0.0,0.0,0.0,0.0,0.0,0.0,0.0,0.0,0.0,0.0,0.0,0.0,0.0,0.0,0.0,0.0,0.0,0.0,0.0,0.0,0.0,0.0,0.0,0.2991,0.2977,0.289,0.2785,0.2771,0.2698,0.2518,0.2364,0.2375,0.2542,0.0,0.0,0.0,0.0,0.0,0.0,0.0,0.0,0.0,0.0,0.0,0.0,0.0,0.0,0.0,0.0,0.0,0.0,0.0,0.0,0.0,0.0,0.0,0.0,0.0,0.0,0.0,0.0,0.0,0.0,0.0,0.0,0.0,0.0,0.0,0.0,0.0,0.0,0.0,0.0,0.0,0.0,0.0,0.0,0.0,0.0,0.0,0.0,0.0,0.0,0.0,0.0,0.0,0.0,0.0,0.0,0.0,0.0,0.0,0.0,-0.5219,0.0,0.0,0.0,0.0,0.0,0.0,0.0,0.0,0.0,0.0,0.0,0.0,0.0,0.0,0.0,0.0,0.0,0.0,0.0,0.0,0.0,0.0,0.0,0.0,0.0,0.0,0.0,0.0,0.0,0.0,0.0,0.0,0.0,0.0,0.0,0.0,0.0,0.0,0.0,0.0,0.0,0.2722,0.2592,0.2495,0.2613,0.2609,0.2558,0.2502,0.232,0.2203,0.2202,0.1896,0.0,0.0,0.0,0.0,0.0,0.0,0.0,0.0,0.0,0.0,0.0,0.0,0.0,0.0,0.0,0.0,0.0,0.0,0.0,0.0,0.0,0.0,0.0,0.0,0.0,0.0,0.0,0.0,0.0,0.0,0.0,0.0,0.0,0.0,0.0,0.0,0.0,0.0,0.0,0.0,0.0,0.0,0.0,0.0,0.0,0.0,0.0,0.0,0.0,0.0,0.0,0.0,0.0,0.0,0.0,0.0,0.0,0.0,0.0,0.0,-0.4436,0.0,0.0,0.0,0.0,0.0,0.0,0.0,0.0,0.0,0.0,0.0,0.0,0.0,0.0,0.0,0.0,0.0,0.0,0.0,0.0,0.0,0.0,0.0,0.0,0.0,0.0,0.0,0.0,0.0,0.0,0.0,0.0,0.0,0.0,0.0,0.0,0.0,0.0,0.0,0.0,0.2445,0.2399,0.2376,0.246,0.2526,0.2512,0.2425,0.2296,0.2191,0.2096,0.1936,0.0,0.0,0.0,0.0,0.0,0.0,0.0,0.0,0.0,0.0,0.0,0.0,0.0,0.0,0.0,0.0,0.0,0.0,0.0,0.0,0.0,0.0,0.0,0.0,0.0,0.0,0.0,0.0,0.0,0.0,0.0,0.0,0.0,0.0,0.0,0.0,0.0,0.0,0.0,0.0,0.0,0.0,0.0,0.0,0.0,0.0,0.0,0.0,0.0,0.0,0.0,0.0,0.0,-0.6253,-0.6162,-0.6007,-0.567,-0.5772,-0.6067,-0.5308,-0.5412,-0.5923,-0.3237,0.0,0.0,0.0,0.0,0.0,0.0,0.0,0.0,0.0,0.0,0.0,0.0,0.0,0.0,0.0,0.0,0.0,0.0,0.0,0.0,0.0,0.0,0.0,0.0,-0.1345,-0.1166,0.0,0.0,0.0,0.0,0.0,0.0,0.0,0.0,0.0,0.0,0.0,0.0,0.2147,0.2321,0.242,0.2406,0.2501,0.2494,0.2341,0.2301,0.2208,0.2102,0.1917,0.146,0.0,0.0,0.0,0.0,0.0,0.0,0.0,0.0,0.0,0.0,0.0,0.0,0.0,0.0,0.0,0.0,0.0,0.0,0.0,0.0,0.0,0.0,0.0,0.0,0.0,0.0,0.0,0.0,0.0,0.0,0.0,0.0,-0.318,-0.2332,0.0,0.0,0.0,0.0,0.0,0.0,0.0,0.0,0.0,0.0,0.0,0.0,0.0,-0.5479,-0.6033,-0.761,-0.8209,-0.7903,-0.9316,-0.9606,-0.8843,-0.8338,-0.7709,-0.6906,-0.6354,0.0,-0.6151,-0.4313,0.0,0.0,0.0,0.0,0.0,0.0,0.0,0.0,0.0,0.0,0.0,0.0,0.0,0.0,0.0,0.0,0.0,0.0,0.0,0.0,0.0,0.0,-0.1255,-0.1814,-0.1729,-0.1357,0.0,-0.106,-0.1062,-0.0508,-0.0339,0.0,0.0,0.0,0.0,0.0,0.0,0.0,0.1789,0.2195,0.2581,0.2779,0.2569,0.2419,0.2393,0.2213,0.2109,0.2095,0.1393,0.0822,0.0534,0.0328,0.0,0.0,0.0,0.0,0.0,0.0,0.0,0.0,0.0,0.0,0.0,0.0,0.0,0.0,0.0,0.0,0.0,0.0,0.0,0.0,0.0,0.0,0.0,0.0,0.0,0.0,0.0,0.0,0.0,-0.323,-0.3313,-0.2739,-0.2231,-0.1718,0.0,0.0,0.0,0.0,0.0,0.0,0.0,0.0,0.0,-0.5515,-0.6381,-0.7171,-0.7909,-0.8926,-0.9454,-0.9516,-0.9966,-0.9888,-0.9247,-0.8791,-0.8031,-0.707,-0.687,-0.6451,-0.5785,-0.428,-0.3143,-0.2309,0.0,0.0,0.0,0.0,-0.0711,-0.0961,-0.1865,-0.1941,0.0,-0.1549,0.0,0.0,0.0,0.0,0.0,0.0,0.0,0.0,0.0,0.0,-0.1352,-0.1856,-0.1841,-0.1726,-0.1776,-0.1876,-0.1643,0.0,-0.085,-0.0775,0.0238,0.0,0.0,0.0,0.0,0.0,0.1163,0.1369,0.168,0.2017,0.1941,0.194,0.2203,0.2139,0.2085,0.2094,0.1281,0.0542,-0.0031,-0.0,0.0154,0.0,0.0,0.0,0.0,0.0,0.0,0.0,0.0,0.0,0.0,0.0,0.0,0.0,0.0,0.0,0.0,0.0,0.0,0.0,0.0,0.0,0.0,0.0,0.0,0.0,0.0,0.0,0.0,-0.3744,-0.3894,-0.3477,-0.3393,-0.2994,0.0,0.0,0.0,0.0,0.0,0.0,-0.4679,-0.522,-0.5879,-0.6671,-0.759,-0.8488,-0.927,-0.957,-0.9892,-1.0205,-0.9873,-0.951,-0.9099,-0.8784,-0.8096,-0.7085,-0.7085,-0.6485,-0.5362,-0.4253,-0.3472,-0.2877,-0.1797,-0.1226,-0.1072,-0.1279,-0.1348,-0.1507,-0.2548,-0.2505,-0.2007,-0.2131,-0.1762,-0.1194,-0.0615,0.0,0.0,0.0,0.0,-0.0878,-0.1157,-0.12,-0.1383,-0.2027,-0.1988,-0.1934,-0.2369,-0.2365,-0.2016,0.0,-0.123,-0.1228,-0.0125,0.0,0.0,0.0,0.0,0.0832,0.0436,0.0498,0.0723,0.1009,0.105,0.1173,0.1541,0.1895,0.1997,0.1794,0.0976,0.0198,-0.0474,-0.0217,-0.0058,-0.0074,0.0,0.0,0.0,0.0,0.0,0.0,0.0,0.0,0.0,0.0,0.0,0.0,0.0,0.0,0.0,0.0,0.0,0.0,0.0,0.0,0.0,0.0,0.0,0.0,0.0,0.0,0.0,0.0,0.0,-0.5184,-0.6028,0.0,0.0,0.0,0.0,-0.428,-0.4347,-0.4777,-0.5696,-0.5987,-0.6753,-0.8078,-0.841,-0.8783,-0.919,-0.9242,-0.9295,-0.9465,-0.9413,-0.9197,-0.883,-0.8778,-0.8196,-0.7085,-0.7085,-0.6263,-0.4941,-0.4699,-0.4063,-0.3074,-0.2146,-0.1645,-0.1503,-0.169,-0.1831,-0.1947,-0.2609,-0.2561,-0.227,-0.2134,-0.1757,-0.1276,-0.1127,-0.0755,0.0,0.0,-0.099,-0.1107,-0.2072,-0.1798,-0.1536,-0.2592,-0.2276,-0.1888,-0.2478,-0.2311,-0.1868,0.0,-0.1378,-0.1111,-0.0259,0.0,0.0109,0.0144,0.087,0.0917,-0.0292,-0.0175,0.0044,0.0085,0.0084,0.0081,0.011,0.1313,0.1751,0.0911,0.0168,-0.0336,-0.0502,-0.0476,-0.0337,-0.0,-0.005,0.0,0.0,0.0,0.0,0.0,0.0,0.0,0.0,0.0,0.0,0.0,0.0,0.0,0.0,0.0,0.0,0.0,0.0,0.0,0.0,0.0,0.0,0.0,0.0,0.0,0.0,0.0,0.0,-0.6474,-0.6967,0.0,-0.5835,-0.5955,-0.6177,-0.6377,-0.666,-0.7068,-0.7584,-0.7949,-0.8204,-0.8469,-0.9356,-0.9933,-1.0249,-1.0254,-1.0506,-1.0983,-1.0343,-0.9777,-0.9302,-0.8935,-0.7978,-0.6534,-0.6421,-0.5605,-0.4291,-0.4181,-0.3863,-0.3444,-0.339,-0.3166,-0.2858,-0.2908,-0.2826,-0.2696,-0.2913,-0.2645,-0.2211,-0.1923,-0.1957,-0.1976,-0.1532,-0.1333,-0.1337,-0.1931,-0.1978,-0.2078,-0.2676,-0.2581,-0.2417,-0.2688,-0.2577,-0.2405,-0.2591,-0.2531,-0.2391,-0.2226,-0.236,-0.2238,-0.1307,-0.1257,-0.1268,-0.0928,-0.0245,0.0129,-0.0131,-0.0089,-0.0134,-0.044,-0.0439,-0.0386,-0.0282,0.0234,0.0412,0.0107,-0.024,-0.0463,-0.0509,-0.0498,-0.0415,-0.0273,-0.0329,-0.0184,0.0,0.0,0.0,0.0,0.0,0.0,0.0,0.0,0.0,0.0,0.0,0.0,0.0,0.0,0.0,0.0,0.0,0.0,0.0,0.0,0.0,0.0,0.0,0.0,0.0,0.0,-0.7814,-0.7256,-0.7847,-0.7985,-0.7045,-0.736,-0.7676,-0.7856,-0.8024,-0.8177,-0.8355,-0.8633,-0.8785,-0.877,-0.9571,-1.0264,-1.0754,-1.0808,-1.1129,-1.1726,-1.0833,-1.0196,-0.9873,-0.9134,-0.8137,-0.7015,-0.6637,-0.5769,-0.4625,-0.457,-0.4187,-0.3638,-0.391,-0.3855,-0.3585,-0.3694,-0.3524,-0.3241,-0.3016,-0.2683,-0.2341,-0.2126,-0.2291,-0.2507,-0.2351,-0.2287,-0.2383,-0.2763,-0.2806,-0.2742,-0.2963,-0.2796,-0.2683,-0.2959,-0.2847,-0.2792,-0.3236,-0.3125,-0.3049,-0.3197,-0.3099,-0.2794,-0.2133,-0.2171,-0.2081,-0.149,-0.1089,-0.0672,-0.0179,-0.0135,-0.027,-0.0584,-0.0674,-0.0663,-0.0507,-0.0444,-0.0385,-0.0402,-0.045,-0.0529,-0.0572,-0.0529,-0.0504,-0.0463,-0.0531,-0.0394,-0.0043,0.0,0.0,0.0,0.0,0.0,0.0,0.0,0.0,0.0,0.0,0.0,0.0,0.0,0.0,0.0,0.0,0.0,0.0,0.0,0.0,0.0,0.0,0.0,-0.6732,-0.8203,-0.8846,-0.7527,-0.8833,-0.9358,-0.8201,-0.8437,-0.8679,-0.8679,-0.8209,-0.7961,-0.7967,-0.7967,-0.8352,-0.9121,-0.919,-0.9708,-1.0751,-1.0743,-1.0971,-1.1431,-1.0747,-1.0415,-1.0354,-0.9291,-0.8685,-0.8533,-0.7783,-0.681,-0.5828,-0.5946,-0.5069,-0.3638,-0.3641,-0.3585,-0.3638,-0.3913,-0.3796,-0.3514,-0.2903,-0.2736,-0.2736,-0.2736,-0.2736,-0.2847,-0.3403,-0.3519,-0.3413,-0.3413,-0.3299,-0.3074,-0.2961,-0.2516,-0.2348,-0.3403,-0.3181,-0.307,-0.4239,-0.4015,-0.3793,-0.4405,-0.3528,-0.2676,-0.2631,-0.2538,-0.2237,-0.1572,-0.1657,0.0,-0.0539,-0.0405,-0.0405,-0.0405,-0.0584,-0.0708,-0.072,-0.0647,-0.0616,-0.0623,-0.0556,-0.0571,-0.0704,-0.0572,-0.0554,-0.0614,-0.0664,-0.0622,-0.0503,0.0,0.0,0.0,0.0,0.0,0.0,0.0,0.0,0.0,0.0,0.0,0.0,0.0,0.0,0.0,0.0,0.0,0.0,0.0,0.0,0.0,0.0,-0.9238,-0.833,-0.9019,-0.954,-0.9502,-0.9773,-0.9864,-0.9683,-0.9783,-0.9888,-0.9991,-0.9562,-0.9401,-0.9688,-0.9703,-0.99,-1.0392,-1.0673,-1.1228,-1.1985,-1.1744,-1.1858,-1.2439,-1.122,-1.0546,-1.0426,-0.9232,-0.8337,-0.7766,-0.7035,-0.6317,-0.5618,-0.534,-0.4956,-0.4515,-0.3965,-0.3802,-0.3858,-0.3741,-0.3516,-0.3186,-0.2847,-0.2959,-0.3347,-0.3347,-0.3624,-0.3959,-0.3683,-0.3519,-0.3469,-0.3849,-0.3793,-0.3685,-0.4076,-0.4018,-0.3904,-0.4184,-0.4125,-0.407,-0.4408,-0.4349,-0.4294,-0.446,-0.4207,-0.392,-0.3786,-0.3551,-0.3334,-0.3055,-0.2155,0.0,-0.1162,-0.0807,-0.0629,-0.0629,-0.0674,-0.076,-0.084,-0.0782,-0.0781,-0.081,-0.0744,-0.0726,-0.0758,-0.0746,-0.0724,-0.0747,-0.0564,-0.0471,0.0,0.0,0.0,0.0,0.0,0.0,0.0,0.0,0.0,0.0,0.0,0.0,0.0,0.0,0.0,0.0,0.0,0.0,0.0,0.0,0.0,0.0,-0.9989,-1.0639,-1.0191,-1.0268,-1.0382,-1.0395,-1.0265,-1.0265,-1.0368,-1.0337,-1.037,-1.0467,-1.0158,-1.0097,-1.035,-1.0365,-1.0568,-1.1083,-1.1314,-1.1884,-1.2728,-1.2463,-1.2639,-1.3126,-1.1993,-1.1414,-1.1291,-1.0116,-0.918,-0.8537,-0.7705,-0.6884,-0.6063,-0.5593,-0.5175,0.0,0.0,0.0,0.0,0.0,-0.407,-0.3962,-0.3572,-0.3683,-0.3959,-0.3959,-0.4239,-0.446,-0.4291,-0.4128,-0.4073,-0.4349,-0.4239,-0.4184,-0.4519,-0.4353,-0.4181,-0.4463,-0.4294,-0.4184,-0.4463,-0.4294,-0.4184,-0.4463,-0.4294,0.0,-0.4298,-0.4108,-0.3808,-0.3526,-0.2633,-0.1956,-0.1743,-0.1477,-0.1211,-0.1033,-0.1033,-0.1034,-0.09,-0.0886,0.0,0.0,0.0,-0.084,-0.0804,-0.0831,0.0,0.0,0.0,0.0,0.0,0.0,0.0,0.0,-0.038,-0.024,0.0,0.0,0.0,0.0,0.0,0.0,0.0,0.0,0.0,0.0,0.0,0.0,0.0,0.0,0.0,0.0,-1.1075,-1.1588,-1.2052,-1.166,-1.1175,-1.0616,-1.047,-1.0486,-1.0526,-1.0485,-1.0453,-1.0546,-1.0475,-1.0422,-1.0516,0.0,0.0,0.0,0.0,-1.2114,-1.3164,-1.3164,-1.3338,-1.3623,-1.2881,-1.2555,-1.2488,-1.1372,-1.0588,-1.0105,-0.9223,-0.8202,-0.7053,-0.6447,-0.574,-0.5066,-0.4952,-0.4849,-0.4688,-0.4791,-0.5014,-0.5132,-0.4684,0.0,0.0,-0.4574,-0.4574,-0.4629,-0.5014,-0.5014,-0.4846,-0.4743,-0.4577,-0.4519,-0.4519,-0.4125,-0.3849,-0.4349,-0.4073,-0.3849,-0.4405,-0.4073,-0.3849,-0.4405,-0.4073,-0.3849,-0.4405,-0.4287,-0.3939,-0.3459,-0.3123,-0.2763,-0.2305,-0.215,-0.1966,-0.1566,0.0,0.0,-0.1122,-0.1166,-0.1159,-0.1111,-0.1097,-0.1093,-0.1019,-0.1015,-0.1073,-0.1198,-0.1097,-0.115,-0.1377,-0.1337,-0.1302,-0.1264,-0.0581,-0.0303,0.0,0.0,0.0,0.0,0.0,0.0,0.0,0.0,0.0,0.0,0.0,0.0,0.0,0.0,0.0,-1.1381,-1.2047,-1.2522,-1.2609,-1.2187,-1.161,-1.0956,-1.0403,-1.0269,-1.0707,-1.074,-1.0888,-1.1256,-1.1279,-1.1386,-1.1666,-1.1674,-1.2134,-1.3091,-1.3099,-1.3434,-1.4172,-1.4231,-1.4231,-1.4291,0.0,0.0,-1.272,-1.1301,-1.0625,-1.0485,-0.988,-0.9407,-0.8984,-0.7909,-0.687,-0.59,-0.5289,-0.4901,-0.4673,-0.4625,-0.4629,-0.4629,-0.4519,-0.4519,-0.4574,-0.5018,-0.5073,-0.5014,-0.5069,-0.4908,0.0,-0.4691,-0.4577,-0.4519,-0.4519,-0.4405,-0.4349,-0.446,-0.4405,-0.4349,-0.446,-0.4405,-0.4349,-0.446,-0.4405,-0.4349,-0.4463,-0.4341,-0.4134,-0.4053,-0.3473,-0.3075,-0.3053,-0.2599,-0.2277,-0.2273,-0.2317,-0.2317,-0.2364,-0.2321,-0.2337,-0.2437,-0.2376,-0.2335,-0.2328,-0.199,-0.1961,-0.236,-0.1641,-0.1465,-0.1882,-0.1493,-0.1282,-0.1283,-0.1126,-0.1087,0.0,0.0,0.0,0.0,0.0,0.0,0.0,0.0,0.0,0.0,0.0,-0.9992,-1.0379,0.0,-1.2085,-1.2584,-1.2879,-1.3192,-1.352,-1.291,-1.2187,-1.1551,-1.1404,-1.1437,-1.1737,-1.2104,-1.2458,-1.2685,-1.2604,-1.2731,-1.3211,-1.2932,-1.3135,-1.3983,-1.3992,-1.4172,-1.4469,-1.4469,-1.4469,-1.4469,-1.3923,-1.3502,-1.313,-1.2406,-1.173,-1.1175,-1.0797,-1.03,-0.9801,-0.8862,-0.8109,-0.748,-0.69,-0.6073,-0.5234,-0.4963,-0.4908,-0.4908,-0.4908,-0.4908,-0.4963,-0.5187,-0.5242,-0.5183,-0.5128,-0.5014,-0.4908,-0.4794,-0.4684,-0.4577,-0.4577,-0.4574,-0.4519,-0.4519,-0.4519,-0.4519,-0.4519,-0.4519,-0.4519,-0.4519,-0.4519,-0.4519,-0.4574,-0.4515,-0.4385,-0.4207,-0.3902,-0.364,-0.3664,-0.3345,-0.3034,-0.2854,-0.2898,-0.2898,-0.2719,-0.27,-0.2719,-0.2796,-0.2725,-0.2701,-0.2701,-0.2467,-0.2376,-0.2387,-0.1946,-0.1684,-0.168,-0.1471,-0.1361,-0.1344,-0.136,-0.1361,0.0,0.0,0.0,0.0,0.0,0.0,0.0,0.0,-1.0067,-1.0222,-1.0863,-1.1525,-1.2103,-1.2574,-1.3164,-1.3759,-1.3782,-1.3867,-1.4386,-1.368,-1.2949,-1.2516,-1.2521,-1.2623,-1.2841,-1.3396,-1.3847,-1.4061,-1.3797,-1.3923,-1.4469,-1.3992,-1.3992,-1.4647,-1.4647,-1.4765,-1.4883,-1.4883,-1.4883,-1.4883,-1.4756,-1.4401,-1.3863,-1.3743,-1.3199,-1.2274,-1.1941,-1.1181,-1.0254,-0.9656,-0.9181,-0.8878,-0.8474,-0.7455,-0.622,-0.5854,-0.5677,-0.5677,-0.5677,-0.5567,-0.5458,-0.5513,-0.5407,-0.5242,-0.5293,-0.5234,-0.5234,-0.5226,-0.5066,-0.4908,-0.4908,-0.4739,-0.457,-0.4519,-0.4519,-0.4519,-0.4519,-0.4625,-0.468,-0.4574,-0.4736,-0.4901,-0.4908,-0.5014,-0.4914,-0.4414,-0.4316,-0.4271,-0.4189,-0.405,-0.3839,-0.3478,-0.3544,-0.3435,-0.3028,-0.3064,-0.3085,-0.3085,-0.303,-0.2973,-0.2893,-0.2893,-0.2737,-0.2413,-0.2204,-0.2027,-0.1834,-0.1523,-0.1433,-0.1523,-0.1446,-0.1406,-1.2102,-1.1944,-1.2167,-1.3026,-1.2679,-1.258,0.0,0.0,-1.272,-1.3198,-1.3413,-1.3585,-1.3944,-1.4068,-1.4254,-1.4769,-1.4842,-1.4863,-1.4914,-1.447,-1.4171,-1.4231,-1.2966,-1.2448,-1.3336,-1.3377,-1.3719,-1.4548,-1.4492,-1.441,-1.4469,-1.441,-1.4647,-1.5294,-1.5294,-1.5642,-1.6343,-1.64,-1.64,-1.6343,-1.5738,-1.5391,-1.5177,-1.4647,-1.435,-1.4163,-1.3399,-1.2169,-1.0629,-1.0421,-0.9774,-0.8897,-0.8737,-0.8327,-0.785,-0.7307,-0.702,-0.6923,-0.702,-0.6642,-0.61,-0.6253,-0.5773,-0.5238,-0.5727,-0.5832,-0.5828,-0.6263,-0.6046,-0.5664,-0.5664,-0.5281,-0.4846,-0.4688,-0.4688,-0.4632,-0.4519,-0.4948,-0.5218,-0.4798,-0.5614,-0.6209,-0.5773,-0.61,-0.6036,-0.4984,-0.474,-0.4681,-0.4809,-0.4529,-0.433,-0.4376,-0.428,-0.4184,-0.414,-0.4121,-0.4113,-0.4113,-0.4136,-0.3951,-0.3514,-0.3514,-0.3477,-0.345,-0.2568,-0.2532,-0.3341,-0.2055,-0.1611,-0.2012,-0.1673,-0.1466,-1.5059,-1.4519,-1.415,0.0,-1.4711,-1.4424,-1.4825,-1.4806,-1.4649,-1.4275,-1.4898,-1.5355,-1.48,-1.4974,-1.5275,0.0,-1.5212,-1.5248,-1.5923,-1.5129,-1.4558,-1.4982,-1.3858,-1.3432,-1.4423,-1.469,-1.5044,-1.5661,-1.5294,-1.5177,-1.5604,-1.5245,-1.5303,-1.5951,-1.6311,-1.6688,-1.6979,-1.736,-1.7408,-1.7143,-1.6784,-1.6232,-1.5507,-1.5167,-1.4824,-1.4469,-1.4043,-1.3399,-1.259,-1.2418,-1.1842,-1.0972,-1.0732,-1.0296,-0.9608,-0.8199,-0.7569,-0.7337,-0.7391,-0.7176,-0.6853,-0.6907,-0.6642,-0.6322,-0.6539,-0.6376,-0.61,-0.6317,-0.5882,-0.5449,-0.5832,-0.5668,-0.55,-0.5719,-0.5832,-0.5773,-0.5719,-0.5932,-0.6095,-0.5828,-0.6209,-0.648,-0.5996,-0.6372,-0.6426,-0.5289,-0.5194,-0.528,-0.5384,-0.4948,-0.461,-0.4509,-0.4433,-0.439,-0.4324,-0.4316,-0.4316,-0.4316,-0.4316,-0.4228,-0.4005,-0.4005,-0.3873,-0.3609,-0.3208,-0.3031,-0.3208,-0.2588,-0.2395,-0.2684,-0.2497,-0.2529,-1.6768,-1.6335,0.0,-1.6401,-1.6308,-1.5973,-1.5434,-1.576,-1.5966,-1.5044,-1.5777,-1.6293,-1.537,-1.5565,-1.5975,-1.6256,-1.5952,-1.6059,-1.7062,-1.6034,-1.5361,-1.5851,-1.4941,-1.4649,-1.5665,-1.5669,-1.5907,-1.6446,-1.6009,-1.5941,-1.6488,-1.6066,-1.606,-1.6655,-1.7153,-1.7444,-1.7652,-1.803,-1.808,-1.7739,-1.7573,-1.6957,-1.6141,-1.5866,-1.5352,-1.4765,-1.4569,-1.4332,-1.3974,-1.3855,-1.3373,-1.2732,-1.2489,-1.2039,-1.1308,-0.9714,-0.8651,-0.8075,-0.8049,-0.7818,-0.761,-0.761,-0.7402,-0.7187,-0.7295,-0.702,-0.6691,-0.6858,-0.6426,-0.5991,-0.6426,-0.6322,-0.6263,-0.6588,-0.6696,-0.6642,-0.6588,-0.675,-0.6858,-0.6696,-0.6966,-0.7074,-0.6588,-0.702,-0.7182,-0.6381,-0.6294,-0.6139,-0.5672,-0.5195,-0.4812,-0.459,-0.4529,-0.4445,-0.4361,-0.4304,-0.4316,-0.4316,-0.432,-0.4276,-0.4096,-0.4276,-0.4096,-0.3609,-0.3609,-0.3517,-0.3296,-0.3066,-0.3087,-0.3275,-0.3249,-0.3327,-1.6434,0.0,-1.7418,-1.739,-1.7301,-1.7222,-1.7048,-1.6901,-1.658,-1.5997,-1.6115,-1.6209,-1.582,-1.5784,-1.6115,-1.7088,-1.7341,-1.763,-1.8193,-1.7494,-1.6961,-1.7144,-1.6068,-1.5845,0.0,-1.5866,-1.5498,-1.6687,-1.6637,-1.6637,-1.6751,-1.6761,-1.6952,-1.7445,-1.7477,-1.783,-1.8455,-1.8466,-1.8466,-1.8445,-1.7981,-1.7675,-1.7445,-1.6827,-1.6114,-1.5352,-1.5352,-1.4815,-1.4025,-1.3965,-1.3795,-1.3442,-1.3433,-1.3262,-1.2821,-1.2164,-1.0917,-0.9617,-0.9415,-0.889,-0.8368,-0.8368,-0.7883,-0.7343,-0.7765,-0.7871,-0.7984,-0.8533,-0.8256,-0.7818,-0.7818,-0.745,-0.7025,-0.6907,-0.6907,-0.6853,-0.6642,-0.7182,-0.7509,-0.7015,-0.7883,-0.8533,-0.7931,-0.8368,-0.8752,-0.8699,-0.8196,-0.7219,-0.5504,-0.5186,-0.5003,-0.4816,-0.4598,-0.4497,-0.4493,-0.4378,-0.4316,-0.4316,-0.4412,-0.4232,-0.3649,-0.4188,-0.4232,-0.3609,-0.3609,-0.3829,-0.4272,-0.3481,-0.3316,-0.3799,-0.3577,-0.3486,-1.854,0.0,-1.8166,-1.9046,-1.8548,-1.7842,-1.7955,-1.7922,-1.7537,-1.6419,-1.7081,-1.7613,-1.663,-1.6811,-1.7279,-1.8055,-1.7828,-1.7965,-1.9036,-1.8235,-1.7591,-1.7843,-1.7062,0.0,0.0,0.0,0.0,-1.7324,-1.7346,-1.7179,-1.6807,-1.6818,-1.702,-1.7467,-1.7927,-1.8445,-1.8981,-1.9369,-1.9443,-1.9116,-1.8516,-1.7997,-1.7477,-1.7222,-1.6748,-1.6161,-1.5941,-1.57,-1.54,-1.5303,-1.4883,-1.4291,-1.4291,-1.3912,-1.3288,-1.2856,-1.2324,-1.1688,-1.0337,-0.9674,-0.9369,-0.9116,-0.8837,-0.8567,-0.8626,-0.8355,-0.8078,-0.8196,-0.7771,-0.7456,-0.7818,-0.7765,-0.7717,-0.8096,-0.8156,-0.8156,-0.8049,-0.8262,-0.8368,-0.8209,-0.848,-0.8586,-0.7984,-0.8421,-0.8646,-0.8256,-0.8037,-0.7551,-0.6598,-0.6479,-0.6345,-0.6167,-0.6077,-0.5829,-0.5355,-0.5153,-0.4897,-0.4583,-0.4633,-0.4537,-0.4192,-0.4525,-0.4488,-0.4052,-0.4164,-0.4272,-0.4455,-0.4296,-0.4383,-0.465,-0.4606,-0.4608,-1.9722,-1.9471,-1.9173,-2.0264,-1.9832,-1.9056,-1.8886,-1.8906,-1.8605,-1.737,-1.7709,-1.7989,-1.7207,-1.706,-1.7443,-1.8456,-1.8275,-1.8485,-1.9762,-1.912,-1.8572,-1.8772,-1.8142,-1.797,0.0,0.0,0.0,-1.8024,-1.8081,-1.8009,-1.7868,-1.7879,-1.8181,-1.8888,-1.9066,-1.9415,-1.9891,-2.004,-1.9835,-1.9408,-1.9225,-1.8687,-1.7733,-1.7514,-1.7164,-1.6707,-1.6368,-1.6181,-1.6114,-1.6009,-1.5662,-1.5128,-1.5069,-1.4715,-1.4255,-1.3708,-1.3553,-1.3264,-1.128,-1.0474,-1.0238,-0.9756,-0.9453,-0.9263,-0.9106,-0.8784,-0.8455,-0.8355,-0.8043,-0.783,-0.815,-0.8203,-0.8315,-0.8699,-0.8804,-0.8804,-0.8804,-0.8804,-0.8804,-0.8804,-0.8804,-0.8699,-0.8309,-0.8533,-0.8646,-0.8256,-0.8203,-0.7937,-0.7192,-0.6918,-0.6753,-0.6597,-0.6354,-0.5998,-0.5517,-0.5365,-0.5103,-0.4772,-0.4918,-0.4913,-0.4608,-0.4815,-0.482,-0.4463,-0.4576,-0.459,-0.459,-0.4816,-0.4962,-0.5084,-0.5149,-0.5242,-2.0032,-2.0177,-2.0406,-2.1139,-2.1137,-2.0681,-1.9885,-1.9842,-1.9679,-1.8665,-1.7891,-1.7409,-1.7356,0.0,-1.6594,-1.8247,-1.8693,-1.9214,-2.0356,-2.0119,-1.9891,0.0,0.0,0.0,0.0,0.0,0.0,-1.8922,0.0,-1.9096,-1.9799,-1.9824,-2.0294,-2.139,-2.078,-2.0669,-2.1123,-2.0506,-1.9975,-1.9577,-2.0166,-1.9711,-1.8272,-1.7792,-1.7343,-1.7015,-1.657,-1.6306,-1.6114,-1.6114,-1.6009,-1.5914,-1.5798,-1.574,-1.5614,-1.4834,-1.4529,-1.43,-1.2413,-1.1495,-1.108,-1.0228,-0.9792,-0.9487,-0.9263,-0.9211,-0.9211,-0.9061,-0.9008,-0.8956,-0.8857,-0.8804,-0.8811,-0.8804,-0.8804,-0.8804,-0.8804,-0.8804,-0.8804,-0.8804,-0.8804,-0.8804,-0.8804,-0.8811,-0.8804,-0.8804,-0.8804,-0.8427,-0.7354,-0.6701,-0.6312,-0.6312,-0.5721,-0.5301,-0.5249,-0.5178,-0.5071,-0.4915,-0.5264,-0.5264,-0.4853,-0.5071,-0.5071,-0.4804,-0.4812,-0.482,-0.482,-0.5003,-0.5096,-0.51,-0.5217,-0.5297,-2.1227,-2.1757,-2.2332,-2.2979,-2.2087,-2.1106,-2.1327,-2.0401,-1.9142,-1.7981,-1.763,-1.7068,-1.5805,0.0,0.0,-1.7499,-1.8317,0.0,-2.0492,-2.0809,0.0,-2.1029,0.0,-2.1459,-2.1694,-2.1707,0.0,0.0,-2.0665,-2.0286,-2.0435,-2.0459,-2.0761,-2.1402,-2.1296,-2.15,-2.1854,-2.1678,-2.1545,-2.1416,-2.1054,-2.054,-1.9783,-1.872,-1.7959,-1.7349,-1.678,-1.6477,-1.6316,-1.6316,-1.6192,-1.6066,-1.5999,-1.5961,-1.5798,-1.5498,-1.5371,-1.5225,-1.4114,-1.3203,-1.2335,-1.1192,-1.1014,-1.1044,-0.9747,-0.9614,-0.9814,-0.9309,-0.9159,-0.9106,-0.8956,-0.8962,-0.891,-0.8804,-0.8804,-0.8804,-0.8804,-0.8804,-0.8804,-0.8804,-0.8804,-0.8804,-0.8804,-0.8857,-0.8962,-0.8962,-0.8962,-0.8798,-0.8427,-0.8215,-0.8156,-0.8156,-0.8035,-0.7828,-0.7395,-0.732,-0.6974,-0.6121,-0.6228,-0.5911,-0.5121,-0.5301,-0.525,-0.4808,-0.4942,-0.5011,-0.5011,-0.5194,-0.5229,-0.5229,-0.5277,-0.5297,-2.2485,-2.3038,-2.3475,-2.3991,-2.3088,-2.198,-2.15,-2.0228,-1.8746,-1.7227,-1.6459,0.0,-1.5051,-1.5336,0.0,0.0,0.0,0.0,-2.0152,-2.1141,-2.1809,0.0,-2.2561,0.0,-2.3121,-2.3173,-2.3176,0.0,-2.2191,-2.1639,-2.192,-2.1989,-2.2242,-2.2774,-2.2611,-2.2392,-2.2212,-2.2408,-2.2408,-2.2101,-2.2051,-2.1649,-2.1046,-1.9832,-1.8929,-1.8217,0.0,-1.6853,-1.6477,-1.6477,-1.6363,-1.6239,-1.6114,-1.6066,-1.5961,-1.5856,-1.5798,-1.573,-1.5196,-1.4674,-1.3962,-1.2397,-1.2037,-1.1933,-1.0568,-1.0354,-1.042,-0.9553,-0.9316,-0.9263,-0.9106,-0.9113,-0.9061,-0.9008,-0.8956,-0.8956,-0.8956,-0.8956,-0.8956,-0.8956,-0.8956,-0.8956,-0.8956,-0.9061,-0.9113,-0.9113,-0.9113,-0.9061,-0.9008,-0.8685,-0.8468,-0.8468,-0.8408,-0.8196,-0.7759,-0.7844,-0.7604,-0.6875,-0.7032,-0.6712,-0.5766,-0.5872,-0.5672,-0.5048,-0.5149,-0.5202,-0.5202,-0.5249,-0.5297,-0.5297,-0.5297,-0.5297,-2.3634,-2.4024,-2.413,-2.4465,-2.3933,-2.2871,-2.1167,-1.9805,-1.8425,-1.6556,0.0,-1.4332,-1.4536,-1.4662,-1.5158,-1.6389,0.0,-1.912,-1.9838,-2.1412,-2.2533,-2.2615,-2.3649,-2.436,-2.436,-2.436,-2.4381,-2.4408,-2.3555,-2.3189,-2.3622,-2.3761,-2.4043,-2.4593,-2.4002,-2.3327,-2.2579,-2.3027,-2.2967,-2.2359,-2.2834,-2.2725,-2.2027,-2.0889,-1.9995,-1.9267,-1.8205,0.0,-1.674,-1.6627,-1.6524,-1.6431,-1.6181,-1.6114,-1.6114,-1.5961,-1.5914,-1.5914,-1.5798,-1.573,-1.5419,-1.3705,-1.2998,-1.2593,-1.1523,-1.1239,-1.1059,-0.9971,-0.9614,-0.9569,-0.9361,-0.9309,-0.9309,-0.9211,-0.9211,-0.9211,-0.9211,-0.9211,-0.9211,-0.9211,-0.9211,-0.9211,-0.9211,-0.9211,-0.9211,-0.9211,-0.9211,-0.9211,-0.9211,-0.8666,-0.8237,-0.8237,-0.7972,-0.7706,-0.7605,-0.7824,-0.7824,-0.7503,-0.7818,-0.7599,-0.6573,-0.6637,-0.6322,-0.5572,-0.5462,-0.5407,-0.5407,-0.5352,-0.5297,-0.5297,-0.5297,-0.5297,-2.4184,-2.4601,-2.4823,-2.491,-2.3926,-2.2776,-2.1866,-2.0087,0.0,0.0,-1.5309,-1.4248,-1.3063,-1.3941,0.0,-1.5407,0.0,0.0,0.0,0.0,-2.328,0.0,0.0,0.0,0.0,0.0,0.0,0.0,0.0,-2.4873,-2.446,-2.4416,-2.4513,-2.462,-2.4305,-2.4105,-2.3917,-2.3969,-2.3865,-2.3734,-2.328,-2.3027,-2.287,-2.1183,-2.0342,-2.0052,-1.854,0.0,-1.7446,-1.6853,-1.6581,-1.6524,-1.642,-1.6374,-1.6316,-1.6124,-1.6056,-1.6066,-1.5904,-1.5798,-1.5477,-1.4231,-1.4101,-1.4071,-1.2298,-1.2079,-1.2209,-1.1201,-1.0897,-1.0736,-1.0174,-1.0012,-0.9865,-0.9309,-0.9211,-0.9211,-0.9211,-0.9211,-0.9211,-0.9211,-0.9211,-0.9211,-0.9211,-0.9309,-0.9361,-0.9361,-0.9361,-0.9361,-0.9361,-0.9152,-0.8995,-0.8995,-0.904,-0.904,-0.904,-0.9197,-0.9033,-0.856,-0.8613,-0.8237,-0.7331,-0.7331,-0.7176,-0.6815,-0.6322,-0.6046,-0.6046,-0.5567,-0.5297,-0.5297,-0.5297,-0.5297,-2.4051,-2.4582,-2.4926,-2.4507,-2.3638,-2.2422,-2.0636,0.0,0.0,0.0,-1.3955,-1.3207,-1.2272,0.0,0.0,0.0,0.0,0.0,0.0,0.0,0.0,0.0,0.0,0.0,0.0,0.0,0.0,0.0,0.0,-2.5986,-2.4778,-2.4677,-2.4721,-2.4778,-2.4607,-2.4492,-2.4492,-2.4319,-2.4157,-2.4112,-2.3793,-2.3603,-2.3564,-2.2141,-2.1275,-2.0851,-1.9462,0.0,-1.7788,-1.7401,-1.7022,-1.6694,-1.6534,-1.6477,-1.6477,-1.6306,-1.6249,-1.6249,-1.6066,-1.5951,-1.5806,-1.5128,-1.5003,-1.4772,-1.3159,-1.2806,-1.2732,-1.1515,-1.12,-1.115,-1.0787,-1.0736,-1.0635,-1.0336,-1.0035,-0.9725,-0.9465,-0.9413,-0.9413,-0.9413,-0.9413,-0.9413,-0.9413,-0.9465,-0.9517,-0.9517,-0.9517,-0.9517,-0.9517,-0.9465,-0.9361,-0.9309,-0.9413,-0.9458,-0.9413,-0.951,-0.9458,-0.9145,-0.9197,-0.8823,-0.7984,-0.7984,-0.7717,-0.7085,-0.681,-0.6647,-0.6647,-0.605,-0.5782,-0.5782,-0.5462,-0.5297,-2.3909,-2.4395,-2.4618,-2.4049,-2.3401,-2.2153,-1.9341,-1.7798,0.0,0.0,-1.2689,-1.2228,-1.1938,0.0,-1.3601,0.0,0.0,0.0,0.0,0.0,0.0,0.0,0.0,0.0,0.0,0.0,0.0,0.0,0.0,0.0,-2.5048,-2.5005,-2.5005,-2.4892,-2.4721,-2.462,-2.462,-2.4421,-2.4319,-2.4229,-2.4229,-2.4171,-2.4118,-2.2978,-2.2156,-2.1602,-2.0328,0.0,0.0,-1.8159,-1.7678,-1.7032,-1.6909,-1.674,-1.6581,-1.6477,-1.6431,-1.6374,-1.6239,-1.6114,-1.6056,-1.5836,-1.5593,-1.5079,-1.3864,-1.3411,-1.3081,-1.1906,-1.156,-1.156,-1.141,-1.141,-1.136,-1.1209,-1.0905,-1.0446,-0.9873,-0.9769,-0.9718,-0.9614,-0.9614,-0.9614,-0.9614,-0.9614,-0.9614,-0.9614,-0.9614,-0.9614,-0.9614,-0.9614,-0.9562,-0.9465,-0.951,-0.9562,-0.9458,-0.9562,-0.9562,-0.9465,-0.9562,-0.9302,-0.858,-0.858,-0.8209,-0.7461,-0.7348,-0.7295,-0.7295,-0.6534,-0.6209,-0.6209,-0.5567,-0.5297,-2.4145,-2.4217,-2.3986,-2.3939,-2.3401,-2.2153,-1.9341,0.0,0.0,-1.3787,-1.2694,-1.2131,-1.2143,-1.2695,-1.3385,-1.4162,-1.5876,-1.7612,0.0,0.0,0.0,0.0,0.0,0.0,0.0,0.0,0.0,0.0,0.0,0.0,-2.5563,-2.5715,-2.5453,-2.4677,-2.4734,-2.4734,-2.462,-2.4549,-2.4563,-2.4563,-2.4563,-2.4434,-2.4253,-2.3105,-2.2456,-2.2242,-2.055,0.0,0.0,-1.8886,-1.8309,-1.7799,-1.7667,-1.7179,-1.657,-1.6581,-1.6477,-1.6384,-1.6374,-1.6249,-1.6114,-1.6056,-1.5612,-1.4933,-1.4223,-1.3762,-1.3365,-1.29,-1.2725,-1.2627,-1.2126,-1.2026,-1.1868,-1.1309,-1.115,-1.1006,-1.0446,-1.0352,-1.019,-0.9718,-0.9614,-0.9614,-0.9614,-0.9614,-0.9614,-0.9614,-0.9614,-0.9614,-0.9614,-0.9614,-0.9614,-0.9562,-0.9614,-0.9614,-0.9562,-0.9614,-0.9614,-0.9562,-0.9614,-0.9465,-0.9159,-0.9106,-0.8956,-0.8646,-0.8096,-0.7818,-0.7818,-0.6745,-0.6209,-0.6209,-0.5567,-0.5297,-2.2655,-2.3011,-2.3138,-2.2801,-2.2501,-2.1442,-1.819,0.0,-1.5785,-1.3212,-1.2432,-1.2221,-1.22,-1.2522,-1.3092,-1.3968,-1.4959,-1.6248,-1.8142,0.0,0.0,0.0,0.0,0.0,0.0,0.0,0.0,0.0,0.0,0.0,-2.6663,-2.639,-2.6136,-2.5892,-2.5467,-2.5258,-2.5203,-2.4878,-2.4677,-2.462,-2.462,-2.4563,-2.4452,-2.3146,-2.2564,-2.2457,-2.0991,0.0,0.0,-1.9475,-1.9069,-1.8494,-1.8007,-1.7623,-1.729,-1.6797,-1.6581,-1.6534,-1.6431,-1.6374,-1.6197,-1.5797,-1.53,-1.4797,-1.4413,-1.3952,-1.3519,-1.3047,-1.2881,-1.2832,-1.2627,-1.2578,-1.2431,-1.1868,-1.1719,-1.156,-1.1006,-1.0905,-1.0795,-1.0584,-1.0285,-1.0087,-1.0087,-0.9821,-0.9614,-0.9614,-0.9614,-0.9614,-0.9614,-0.9614,-0.9614,-0.9614,-0.9614,-0.9614,-0.9614,-0.9614,-0.9614,-0.9614,-0.9614,-0.9465,-0.9211,-0.9211,-0.9061,-0.8811,-0.8586,-0.8421,-0.8421,-0.7295,-0.6756,-0.6701,-0.5732,-0.5462,-2.1284,-2.1933,-2.2378,-2.196,-2.1692,-2.0682,0.0,-1.6402,-1.548,-1.2758,-1.2246,-1.2262,-1.2195,-1.2349,-1.2824,-1.3849,-1.4438,-1.5497,-1.7589,0.0,0.0,0.0,0.0,0.0,0.0,0.0,0.0,0.0,0.0,0.0,-2.763,-2.7276,-2.6916,-2.664,-2.6162,-2.5946,-2.5946,-2.537,-2.5061,-2.5005,-2.4778,-2.4677,-2.4637,-2.3324,-2.2671,-2.2578,-2.1312,0.0,0.0,-2.0067,-1.9759,-1.9186,-1.8643,-1.8321,-1.805,-1.729,-1.6899,-1.6797,-1.6591,-1.6488,-1.6322,-1.5914,-1.5355,-1.484,-1.4576,-1.4071,-1.3452,-1.3096,-1.2968,-1.2929,-1.2929,-1.2881,-1.2783,-1.2431,-1.2323,-1.2175,-1.161,-1.146,-1.141,-1.125,-1.0905,-1.0608,-1.0454,-1.0087,-0.9769,-0.9614,-0.9614,-0.9614,-0.9614,-0.9614,-0.9614,-0.9614,-0.9614,-0.9614,-0.9614,-0.9614,-0.9614,-0.9614,-0.9614,-0.9465,-0.9211,-0.9211,-0.9061,-0.8811,-0.8804,-0.8804,-0.8804,-0.7836,-0.7348,-0.7295,-0.6327,-0.5946,-2.0382,-2.1211,-2.1729,-2.1802,-2.1264,-1.9971,-1.722,-1.5988,-1.4794,-1.2644,-1.2205,-1.2205,-1.2195,-1.221,-1.2614,-1.3903,-1.4709,-1.5848,-1.7729,0.0,0.0,0.0,0.0,0.0,0.0,0.0,0.0,0.0,0.0,0.0,-2.8411,-2.8396,-2.7825,-2.6563,-2.664,-2.6678,-2.6678,-2.6136,-2.5893,-2.5893,-2.5286,-2.4948,-2.4738,-2.3528,-2.295,0.0,0.0,0.0,0.0,-2.0762,-2.0334,-1.9798,-1.9798,-1.9307,-1.8608,-1.8104,-1.7678,-1.7324,-1.692,-1.6591,-1.6431,-1.6581,-1.5896,-1.4997,-1.4829,-1.4033,-1.3218,-1.3218,-1.3152,-1.3085,-1.2929,-1.2881,-1.2881,-1.2881,-1.2881,-1.2735,-1.2224,-1.2076,-1.1918,-1.1309,-1.12,-1.1006,-1.0498,-1.0403,-1.019,-0.9666,-0.9614,-0.9614,-0.9614,-0.9614,-0.9614,-0.9614,-0.9614,-0.9614,-0.9614,-0.9614,-0.9614,-0.9614,-0.9614,-0.9465,-0.9211,-0.9211,-0.9061,-0.8811,-0.8804,-0.8804,-0.8804,-0.8203,-0.7871,-0.7871,-0.7348,-0.6918,-1.7684,-1.8266,-1.8671,-1.8261,-1.834,-1.7903,-1.5561,-1.5208,-1.4794,-1.2654,-1.22,-1.2205,-1.2195,-1.221,-1.2774,-1.4516,-1.5016,-1.586,0.0,0.0,0.0,0.0,0.0,0.0,0.0,0.0,0.0,0.0,0.0,0.0,-2.8411,-2.7965,-2.7727,-2.781,-2.7429,-2.7246,-2.7246,-2.6351,-2.5893,-2.5893,-2.5286,-2.5005,-2.4908,-2.3582,-2.299,0.0,0.0,0.0,0.0,-2.0838,-2.0662,-2.0385,-1.9952,-1.9643,-1.9319,-1.8267,-1.7843,-1.7678,-1.7032,-1.6483,-1.6053,-1.6098,-1.5426,-1.4521,-1.447,-1.3938,-1.3314,-1.3218,-1.3152,-1.3085,-1.3036,-1.2988,-1.2881,-1.2881,-1.2881,-1.2832,-1.2676,-1.2627,-1.2578,-1.2421,-1.2067,-1.1769,-1.1569,-1.0913,-1.0446,-1.0643,-1.0387,-1.0293,-1.0643,-1.0387,-1.0138,-1.0138,-0.9821,-0.9614,-0.9614,-0.9614,-0.9614,-0.9614,-0.9614,-0.951,-0.9361,-0.9263,-0.9106,-0.8962,-0.8857,-0.8804,-0.8804,-0.8196,-0.7717,-0.7348,-0.6972,-0.648,-1.5728,-1.6483,-1.6946,-1.6577,-1.6593,-1.6242,-1.4661,-1.4435,-1.4124,-1.254,-1.2216,-1.22,-1.2195,-1.221,-1.2759,-1.4479,-1.5027,-1.5887,0.0,0.0,0.0,0.0,0.0,0.0,0.0,0.0,0.0,0.0,0.0,0.0,-2.8042,-2.7626,-2.7473,-2.7642,-2.7248,-2.7194,-2.7467,-2.6344,-2.5948,-2.619,-2.5384,-2.4883,-2.4639,-2.3555,-2.2974,0.0,0.0,0.0,0.0,-2.0888,-2.0825,-2.0649,-2.0283,-2.0118,-2.0016,-1.9016,-1.8429,-1.8159,-1.7733,-1.6929,-1.6062,-1.6515,-1.5722,-1.4541,-1.4148,-1.379,-1.3467,-1.3314,-1.3238,-1.321,-1.3162,-1.3055,-1.3007,-1.3007,-1.2968,-1.2978,-1.2978,-1.2929,-1.2881,-1.2881,-1.2627,-1.2323,-1.2126,-1.1519,-1.1057,-1.12,-1.0905,-1.0804,-1.115,-1.0905,-1.06,-1.0403,-1.0087,-0.9821,-0.9614,-0.9614,-0.9614,-0.9614,-0.9614,-0.9562,-0.9413,-0.9256,-0.9159,-0.9008,-0.8857,-0.8804,-0.8804,-0.8421,-0.7937,-0.73,-0.7074,-0.6637,0.0,-1.5506,-1.6122,-1.6171,-1.5666,-1.4978,-1.4295,-1.3659,0.0,-1.2349,-1.221,-1.2241,-1.2334,-1.2303,-1.2728,-1.4175,-1.4944,0.0,0.0,0.0,0.0,0.0,0.0,0.0,0.0,0.0,0.0,0.0,0.0,0.0,-2.7349,-2.7272,-2.6965,-2.6334,-2.6226,-2.6549,-2.7319,-2.6189,-2.5966,-2.6547,-2.5397,-2.4598,-2.4042,-2.3392,-2.2848,0.0,0.0,0.0,0.0,-2.0924,-2.0825,-2.0699,-2.0699,-2.0699,-2.0649,-2.0016,-1.9371,-1.878,-1.8922,-1.7783,-1.6418,-1.7398,-1.6576,-1.4965,-1.3928,-1.3621,-1.3563,-1.3467,-1.342,-1.3362,-1.3266,-1.3218,-1.3218,-1.3218,-1.3152,-1.3133,-1.3085,-1.2978,-1.2929,-1.2881,-1.2881,-1.2735,-1.2224,-1.2126,-1.1918,-1.141,-1.1309,-1.1301,-1.1309,-1.1259,-1.1006,-1.0498,-1.0403,-1.0138,-0.9666,-0.9614,-0.9614,-0.9614,-0.9614,-0.9562,-0.9413,-0.9256,-0.9159,-0.9008,-0.8857,-0.8804,-0.8804,-0.8804,-0.8427,-0.7723,-0.7551,-0.7111,-1.0992,0.0,-1.3188,-1.3211,-1.3436,-1.3528,0.0,-1.295,-1.3005,-1.2349,0.0,-1.2519,-1.3529,-1.3313,-1.3744,-1.6102,-1.6624,0.0,0.0,0.0,0.0,0.0,0.0,0.0,0.0,0.0,0.0,0.0,0.0,-2.6581,-2.6626,-2.6103,-2.5733,-2.5564,-2.5056,-2.5379,-2.6611,-2.5556,-2.5081,-2.5226,-2.4149,-2.3527,-2.3378,-2.2807,-2.2441,0.0,0.0,0.0,-2.1131,-2.1046,-2.0924,-2.0838,-2.0762,-2.0699,-2.0649,-2.0016,-1.9695,-1.9488,-1.9146,-1.8353,-1.7415,-1.6439,-1.5543,-1.4665,-1.3989,-1.3668,-1.361,-1.3563,-1.3467,-1.3409,-1.3362,-1.3266,-1.3218,-1.3218,-1.317,-1.3142,-1.3123,-1.3085,-1.3027,-1.2929,-1.2881,-1.2881,-1.2725,-1.2372,-1.2175,-1.2471,-1.2166,-1.2026,-1.2471,-1.176,-1.115,-1.1006,-1.0285,-0.9718,-0.9614,-0.9614,-0.9614,-0.9614,-0.9614,-0.9562,-0.9562,-0.9309,-0.9159,-0.9159,-0.891,-0.8804,-0.8804,-0.8804,-0.8427,-0.7723,-0.7551,-0.7111,-0.945,-1.1112,-1.2673,-1.2673,-1.3159,-1.3559,-1.319,-1.2913,-1.2642,0.0,0.0,-1.2534,-1.3544,-1.3698,-1.4344,-1.6394,-1.7254,0.0,0.0,0.0,0.0,0.0,0.0,0.0,0.0,0.0,0.0,0.0,0.0,-2.6091,-2.5918,-2.5533,-2.5179,-2.4856,-2.4502,-2.4825,-2.5887,-2.5075,-2.4725,-2.4791,-2.3909,-2.3272,-2.2807,-2.2468,-2.2156,0.0,0.0,0.0,-2.118,-2.1131,-2.101,-2.0888,-2.0825,-2.0762,-2.0649,-2.0334,-2.0016,-1.9811,-1.9759,-1.9027,-1.7814,-1.6224,-1.5289,-1.4676,-1.4063,-1.3821,-1.3763,-1.361,-1.3573,-1.3515,-1.3515,-1.342,-1.3362,-1.3362,-1.3314,-1.3266,-1.3248,-1.32,-1.3104,-1.3055,-1.3017,-1.2978,-1.2978,-1.2676,-1.2578,-1.2881,-1.2627,-1.2578,-1.2881,-1.2372,-1.1868,-1.166,-1.0846,-1.0233,-0.9976,-0.9718,-0.9614,-0.9614,-0.9614,-0.9614,-0.9614,-0.9361,-0.9159,-0.9008,-0.8857,-0.8804,-0.8804,-0.8745,-0.8309,-0.7605,-0.7498,-0.7009,-0.9158,-1.1343,-1.3298,-1.3098,-1.3698,-1.4329,-1.4221,0.0,0.0,0.0,0.0,0.0,0.0,0.0,0.0,0.0,0.0,0.0,0.0,0.0,0.0,0.0,0.0,0.0,0.0,0.0,0.0,0.0,0.0,-2.581,-2.5195,-2.5164,-2.4902,-2.4291,-2.4302,-2.4537,-2.5121,-2.4611,-2.4474,-2.4597,-2.4013,-2.325,-2.2269,-2.2269,-2.1947,-2.1423,0.0,0.0,-2.1229,-2.1229,-2.1095,-2.0938,-2.0938,-2.0825,-2.0712,-2.0712,-2.0385,-2.0016,-2.0549,-1.9585,-1.7992,-1.6632,-1.5626,-1.4812,-1.4316,-1.4104,-1.3962,-1.3716,-1.3668,-1.3621,-1.3621,-1.3621,-1.3621,-1.3621,-1.3515,-1.342,-1.342,-1.3314,-1.3218,-1.3218,-1.3142,-1.3123,-1.3085,-1.3036,-1.2929,-1.2881,-1.2881,-1.2881,-1.2881,-1.2832,-1.2578,-1.2017,-1.141,-1.0854,-1.0344,-0.9873,-0.9614,-0.9614,-0.9614,-0.9562,-0.9562,-0.9309,-0.9061,-0.8811,-0.8804,-0.8804,-0.8804,-0.8685,-0.8243,-0.7492,-0.745,-0.702,-1.0312,-1.239,-1.3775,-1.2642,-1.3713,-1.4914,-1.4329,-1.4036,0.0,0.0,0.0,0.0,0.0,0.0,0.0,0.0,0.0,0.0,0.0,0.0,0.0,0.0,0.0,0.0,0.0,0.0,0.0,0.0,0.0,-2.451,-2.4471,-2.4456,-2.4384,-2.4208,-2.4276,-2.428,-2.4219,-2.3889,-2.3746,-2.3762,-2.3271,-2.2769,-2.223,-2.223,-2.1938,-2.1423,0.0,-2.1375,-2.1375,-2.1229,-2.118,-2.1144,-2.1046,-2.0924,-2.0888,-2.0888,-2.0725,-2.0599,-2.0649,-1.959,-1.8147,-1.789,-1.6561,-1.5017,-1.48,-1.4501,-1.414,-1.3962,-1.3868,-1.3716,-1.3621,-1.3621,-1.3621,-1.3621,-1.3563,-1.3515,-1.342,-1.3362,-1.3314,-1.3218,-1.317,-1.319,-1.3123,-1.3085,-1.3027,-1.2929,-1.2881,-1.2881,-1.2881,-1.248,-1.2017,-1.141,-1.0854,-1.0293,-0.9769,-0.9666,-0.9614,-0.9614,-0.9614,-0.951,-0.9256,-0.9211,-0.9061,-0.8811,-0.8804,-0.8804,-0.8804,-0.8685,-0.8243,-0.7492,-0.7883,-0.7676,-0.9219,-1.1251,-1.3051,-1.279,-1.4806,-1.6732,-1.6425,-1.5795,0.0,0.0,0.0,0.0,0.0,0.0,0.0,0.0,0.0,0.0,0.0,0.0,0.0,0.0,0.0,0.0,0.0,0.0,0.0,0.0,0.0,0.0,-2.4234,-2.425,-2.4234,-2.4234,-2.4193,-2.4109,-2.4124,-2.3925,-2.3696,-2.3436,-2.3246,-2.2799,-2.2091,-2.2184,-2.1902,-2.1423,0.0,-2.1423,-2.1375,-2.1277,-2.118,-2.1082,-2.0961,-2.0875,-2.0775,-2.0775,-2.0578,-2.0191,-2.0191,-1.9136,-1.776,-1.776,-1.6575,-1.5108,-1.5017,-1.4686,-1.428,-1.414,-1.3952,-1.3773,-1.3716,-1.3668,-1.3621,-1.3621,-1.3621,-1.3563,-1.3515,-1.3515,-1.3467,-1.342,-1.3362,-1.3324,-1.3296,-1.3172,-1.3085,-1.3027,-1.2929,-1.2881,-1.2881,-1.2421,-1.1977,-1.1719,-1.0905,-1.03,-1.0035,-0.9769,-0.9614,-0.9614,-0.9614,-0.951,-0.9309,-0.9316,-0.9159,-0.891,-0.891,-0.8857,-0.8804,-0.8685,-0.8415,-0.7984,-0.8109,-0.7949,-0.868,-1.0468,-1.2442,-1.3421,-1.5595,-1.7623,-1.8099,-1.7285,0.0,0.0,0.0,0.0,0.0,0.0,0.0,0.0,0.0,0.0,0.0,0.0,0.0,0.0,0.0,0.0,0.0,0.0,0.0,0.0,0.0,0.0,-2.4223,-2.4208,-2.4193,-2.4177,-2.4109,-2.4024,-2.4082,-2.3982,-2.3797,-2.3451,-2.3377,-2.292,-2.217,-2.2184,-2.1841,-2.1375,-2.1375,-2.1326,-2.1277,-2.118,-2.1082,-2.0997,-2.0924,-2.0875,-2.0762,-2.0699,-2.0296,-1.9799,-1.9799,-1.8797,-1.7562,-1.7562,-1.6606,-1.5424,-1.5277,-1.5006,-1.464,-1.4362,-1.4186,-1.3999,-1.3858,-1.3716,-1.3621,-1.3621,-1.3621,-1.3621,-1.3621,-1.3621,-1.3621,-1.3621,-1.3515,-1.342,-1.342,-1.3296,-1.3172,-1.3133,-1.3027,-1.2929,-1.2881,-1.2529,-1.2224,-1.2126,-1.1318,-1.0702,-1.0403,-0.9925,-0.9614,-0.9614,-0.9614,-0.9562,-0.9413,-0.9413,-0.9316,-0.9061,-0.9008,-0.8962,-0.8857,-0.8685,-0.8521,-0.8421,-0.8268,-0.8115,-1.0389,-1.1528,-1.2673,-1.459,-1.5252,-1.5887,-1.7777,-1.7654,0.0,-1.8809,0.0,0.0,0.0,0.0,0.0,0.0,0.0,0.0,0.0,0.0,0.0,0.0,0.0,0.0,0.0,0.0,0.0,0.0,0.0,0.0,-2.4208,-2.4276,-2.4135,-2.3839,-2.4067,-2.4024,-2.3653,-2.3739,-2.3839,-2.394,-2.345,-2.3009,-2.2663,-2.2217,-2.1698,-2.1229,-2.1229,-2.1131,-2.1033,-2.1033,-2.0997,-2.0997,-2.0997,-2.0961,-2.0888,-2.0762,-2.0296,-1.9799,-1.9799,-1.9054,-1.8057,-1.8057,-1.7293,-1.6337,-1.5888,-1.5744,-1.5522,-1.464,-1.4593,-1.4674,-1.3999,-1.3763,-1.3763,-1.3621,-1.3621,-1.3621,-1.3621,-1.3621,-1.3621,-1.3621,-1.361,-1.3573,-1.342,-1.3372,-1.3334,-1.3123,-1.3085,-1.3036,-1.2929,-1.2881,-1.2627,-1.2175,-1.2026,-1.1569,-1.0506,-0.9925,-0.9614,-0.9614,-0.9614,-0.9562,-0.9413,-0.9413,-0.9309,-0.9211,-0.9061,-0.9008,-0.9008,-0.8738,-0.8573,-0.8573,-0.8321,-0.8168,-0.9019,-1.0699,-1.2488,-1.3652,-1.4914,0.0,0.0,-1.8991,-1.99,-2.0443,-2.089,0.0,0.0,0.0,0.0,0.0,0.0,0.0,0.0,0.0,0.0,0.0,0.0,0.0,0.0,0.0,0.0,0.0,0.0,0.0,-2.4223,-2.4208,-2.4193,-2.4135,-2.4109,-2.4024,-2.3982,-2.394,-2.3925,-2.3882,-2.3653,-2.3187,-2.2466,-2.2434,-2.1921,-2.1082,-2.118,-2.1131,-2.0997,-2.0974,-2.0924,-2.0924,-2.0861,-2.0588,-2.0188,-2.0175,-1.9538,-1.8741,-1.8741,-1.8218,-1.7539,-1.7539,-1.7085,-1.6466,-1.6293,-1.5844,-1.5277,-1.4926,-1.4743,-1.4512,-1.4129,-1.3905,-1.3773,-1.3716,-1.3668,-1.3621,-1.3621,-1.3621,-1.3621,-1.3621,-1.3621,-1.3563,-1.3515,-1.3467,-1.3372,-1.3286,-1.3238,-1.3152,-1.3027,-1.2715,-1.2363,-1.2126,-1.1469,-1.0753,-0.9984,-0.9718,-0.9614,-0.9614,-0.9614,-0.9562,-0.951,-0.951,-0.9465,-0.9309,-0.9256,-0.9211,-0.9113,-0.8956,-0.8798,-0.8745,-0.8527,-0.8421,-0.8727,-1.0573,-1.2688,-1.3344,0.0,0.0,-1.7946,-1.9654,-2.1121,-2.1553,-2.1963,0.0,0.0,0.0,0.0,0.0,0.0,0.0,0.0,0.0,0.0,0.0,0.0,0.0,0.0,0.0,0.0,0.0,0.0,0.0,0.0,-2.4208,-2.4193,-2.4135,-2.4067,-2.3982,-2.4024,-2.3925,-2.3839,-2.3739,-2.3739,-2.3231,-2.2282,-2.2203,-2.1698,-2.0961,-2.1059,-2.1046,-2.0898,-2.0875,-2.0838,-2.0812,-2.0515,-2.0139,-1.9786,-1.959,-1.8924,-1.81,-1.81,-1.7695,-1.7199,-1.7199,-1.6989,-1.668,-1.6552,-1.6163,-1.5712,-1.5412,-1.5187,-1.496,-1.4593,-1.4186,-1.3868,-1.3868,-1.3716,-1.361,-1.3668,-1.3621,-1.3621,-1.3621,-1.3621,-1.3621,-1.3621,-1.3515,-1.3467,-1.342,-1.3314,-1.3228,-1.3152,-1.2754,-1.2501,-1.2421,-1.156,-1.0744,-1.0123,-0.9925,-0.9769,-0.9614,-0.9614,-0.9614,-0.9614,-0.9614,-0.9562,-0.9465,-0.9413,-0.9361,-0.9263,-0.9113,-0.8956,-0.8857,-0.8685,-0.8573,-1.0094,-1.162,-1.3375,0.0,0.0,0.0,-1.8069,-1.93,-2.0705,-2.2024,0.0,0.0,0.0,0.0,0.0,0.0,0.0,0.0,0.0,0.0,0.0,0.0,0.0,0.0,0.0,0.0,0.0,0.0,0.0,0.0,0.0,-2.4261,-2.412,-2.3824,-2.3909,-2.3867,-2.358,-2.3595,-2.3595,-2.3595,-2.3595,-2.3143,-2.2282,-2.134,-2.0951,-2.0888,-2.0888,-2.0825,-2.0699,-2.0686,-2.0686,-2.0633,-2.0009,-1.9799,-1.9721,-1.912,-1.8558,-1.8087,-1.8087,-1.7695,-1.7199,-1.7199,-1.7199,-1.7115,-1.665,-1.682,-1.6976,-1.6051,-1.6151,-1.625,-1.5322,-1.4558,-1.402,-1.402,-1.3821,-1.3621,-1.3763,-1.3668,-1.3621,-1.3621,-1.3621,-1.3621,-1.3621,-1.3621,-1.3563,-1.342,-1.342,-1.3362,-1.3218,-1.3218,-1.318,-1.3075,-1.2559,-1.1909,-1.125,-1.0702,-1.019,-0.9614,-0.9614,-0.9614,-0.9614,-0.9614,-0.9614,-0.9614,-0.9465,-0.9413,-0.9413,-0.9106,-0.9008,-0.9008,-0.8738,-0.8626,-0.953,-1.1779,0.0,0.0,0.0,0.0,0.0,-2.0377,0.0,0.0,0.0,0.0,0.0,0.0,0.0,0.0,0.0,0.0,0.0,0.0,0.0,0.0,0.0,0.0,0.0,0.0,0.0,0.0,0.0,0.0,0.0,-2.2839,-2.2799,-2.2681,-2.2626,-2.2546,-2.2491,-2.2959,-2.3145,-2.3062,-2.317,-2.2875,-2.2189,-2.2342,-2.203,-2.1264,-2.1272,-2.0986,-2.0496,-1.9779,-1.942,-1.9407,-1.9237,-1.8937,-1.8584,-1.8401,-1.797,-1.7473,-1.7473,-1.7356,-1.7199,-1.7199,-1.7199,-1.7157,-1.7031,-1.6863,-1.665,-1.638,-1.5901,-1.5457,-1.5153,-1.4605,-1.414,-1.414,-1.3952,-1.3763,-1.3763,-1.3668,-1.3621,-1.3621,-1.3621,-1.3621,-1.3621,-1.3621,-1.3573,-1.3573,-1.3515,-1.3515,-1.3362,-1.3266,-1.3074,-1.2638,-1.2098,-1.1551,-1.0956,-1.0454,-1.0051,-0.9888,-0.9888,-0.9777,-0.9614,-0.9614,-0.9614,-0.9614,-0.9562,-0.9562,-0.9562,-0.9361,-0.9263,-0.9256,-0.9106,-0.8732,-1.1109,-1.3365,0.0,0.0,0.0,0.0,0.0,0.0,0.0,0.0,0.0,0.0,0.0,0.0,0.0,0.0,0.0,0.0,0.0,0.0,0.0,0.0,0.0,0.0,0.0,0.0,0.0,0.0,0.0,0.0,0.0,-2.224,-2.2164,-2.2125,-2.1994,-2.1916,-2.1877,-2.2284,-2.2425,-2.2344,-2.25,-2.2236,-2.1739,-2.2144,-2.1988,-2.1313,-2.0876,-2.0509,-2.0089,-1.9284,-1.897,-1.8943,-1.8675,-1.8419,-1.8092,-1.7826,-1.7512,-1.7199,-1.7199,-1.7199,-1.7199,-1.7199,-1.7199,-1.7199,-1.7199,-1.6989,-1.6778,-1.6778,-1.638,-1.5888,-1.5724,-1.54,-1.4983,-1.4408,-1.4093,-1.3868,-1.3952,-1.3858,-1.3716,-1.3668,-1.3668,-1.3668,-1.3621,-1.3621,-1.3621,-1.3621,-1.3621,-1.3563,-1.3467,-1.342,-1.3122,-1.253,-1.2197,-1.1701,-1.0913,-1.0557,-1.0257,-0.9999,-0.9999,-0.9947,-0.9777,-0.9732,-0.9673,-0.9614,-0.9614,-0.9614,-0.9614,-0.9465,-0.9309,-0.9099,-0.8949,-0.8521,-1.3663,0.0,0.0,0.0,0.0,0.0,0.0,0.0,0.0,0.0,0.0,0.0,0.0,0.0,0.0,0.0,0.0,0.0,0.0,0.0,0.0,0.0,0.0,0.0,0.0,0.0,0.0,0.0,0.0,0.0,0.0,-2.2041,-2.1942,-2.185,-2.168,-2.1603,-2.1554,-2.1614,-2.1644,-2.1605,-2.1704,-2.152,-2.1181,-2.1212,-2.1234,-2.1149,-2.0108,-1.9628,-1.9483,-1.9141,-1.8961,-1.8877,-1.8262,-1.8039,-1.8034,-1.7437,-1.7199,-1.7199,-1.7199,-1.7199,-1.7199,-1.7199,-1.7199,-1.7199,-1.7199,-1.7199,-1.7199,-1.7199,-1.7199,-1.7031,-1.6552,-1.638,-1.6032,-1.4686,-1.4244,-1.4104,-1.4176,-1.4104,-1.3973,-1.3821,-1.3821,-1.3773,-1.3668,-1.3621,-1.361,-1.3621,-1.3621,-1.3621,-1.3621,-1.3621,-1.3372,-1.2754,-1.2657,-1.2206,-1.1167,-1.0972,-1.0718,-1.0154,-1.0051,-1.0051,-1.0051,-0.9903,-0.974,-0.9614,-0.9614,-0.9614,-0.9614,-0.9413,-0.9099,-0.8679,-0.8521,-0.8156,-1.1661,-1.3771,0.0,0.0,0.0,0.0,0.0,0.0,0.0,0.0,0.0,0.0,0.0,0.0,0.0,0.0,0.0,0.0,0.0,0.0,0.0,0.0,0.0,0.0,0.0,0.0,0.0,0.0,0.0,0.0,-2.0767,-2.063,-2.0543,-2.0508,-2.0415,-2.0394,-2.0358,-2.0887,-2.1092,0.0,-2.162,-2.1838,-2.165,-2.1664,-2.1456,-2.0965,-2.0102,-1.9357,-1.8787,-1.8412,-1.7986,-1.7607,-1.7434,-1.7492,-1.7563,-1.7402,-1.735,-1.735,-1.735,-1.7308,-1.7199,-1.7199,-1.7253,-1.735,-1.735,-1.735,-1.735,-1.735,-1.7002,-1.6552,-1.6064,-1.568,-1.5232,-1.4558,-1.4558,-1.4582,-1.4269,-1.4104,-1.3973,-1.3973,-1.3973,-1.3973,-1.3915,-1.3915,-1.3868,-1.3763,-1.3668,-1.3621,-1.3621,-1.3621,-1.3515,-1.342,-1.3025,-1.2677,-1.2423,-1.166,-1.1175,-1.1023,-1.0616,-1.0368,-1.0265,-0.9955,-0.9799,-0.974,-0.9673,-0.9614,-0.9614,-0.9145,-0.9093,-0.9354,-0.8935,-0.8567,-1.1986,0.0,0.0,0.0,0.0,0.0,0.0,0.0,0.0,0.0,0.0,0.0,0.0,0.0,0.0,0.0,0.0,0.0,0.0,0.0,0.0,0.0,0.0,0.0,0.0,0.0,0.0,0.0,0.0,-2.0674,-2.032,-2.0185,-2.01,-2.01,-2.0025,-2.0005,-2.0005,-2.0267,-2.0397,-2.0324,-2.0707,-2.091,-2.0963,-2.1205,-2.0978,-2.0361,-1.9604,-1.9016,-1.8563,-1.8042,-1.7693,-1.7419,-1.7365,-1.7419,-1.7528,-1.7461,-1.7461,-1.7461,-1.7461,-1.7406,-1.7323,-1.7295,-1.7337,-1.7419,-1.7404,-1.7432,-1.7461,-1.7461,-1.724,-1.6934,-1.6697,-1.6441,-1.6095,-1.5478,-1.4994,-1.4593,-1.4362,-1.4244,-1.415,-1.4104,-1.4093,-1.4104,-1.402,-1.402,-1.3973,-1.3926,-1.3773,-1.3716,-1.3716,-1.3621,-1.3515,-1.3266,-1.2967,-1.2628,-1.2138,-1.161,-1.1167,-1.0922,-1.0667,-1.047,-1.0419,-1.0162,-1.0007,-0.9895,-0.9836,-0.9777,-0.9777,-0.9517,-0.9354,-0.9295,-0.9033,-0.8666,-1.2389,0.0,0.0,0.0,0.0,0.0,0.0,0.0,0.0,0.0,0.0,0.0,0.0,0.0,0.0,0.0,0.0,0.0,0.0,0.0,0.0,0.0,0.0,0.0,0.0,0.0,0.0,0.0,0.0,-2.0304,-2.0304,-2.0185,-2.015,-2.015,-2.0061,-2.0041,-2.0041,-1.9884,-1.9797,-1.9797,-1.9762,-1.9848,-2.0041,-2.0479,-2.0361,-1.9762,-1.9124,-1.8784,-1.8616,-1.8016,-1.7747,-1.7666,-1.7529,-1.757,-1.7679,-1.757,-1.7516,-1.7516,-1.7516,-1.7516,-1.7475,-1.7432,-1.7461,-1.7529,-1.7474,-1.7502,-1.7516,-1.7516,-1.7516,-1.7475,-1.7393,-1.7352,-1.7089,-1.6355,-1.5344,-1.4512,-1.4466,-1.4419,-1.4373,-1.4269,-1.4222,-1.4186,-1.4104,-1.4067,-1.401,-1.401,-1.3915,-1.3821,-1.3821,-1.3716,-1.3515,-1.3016,-1.2957,-1.2628,-1.181,-1.166,-1.136,-1.0913,-1.0718,-1.0616,-1.0565,-1.0419,-1.0265,-1.0102,-1.0051,-0.9999,-0.9999,-0.9895,-0.9621,-0.919,-0.8981,-0.8666,0.0,0.0,0.0,0.0,0.0,0.0,0.0,0.0,0.0,0.0,0.0,0.0,0.0,0.0,0.0,0.0,0.0,0.0,0.0,0.0,0.0,0.0,0.0,0.0,0.0,0.0,0.0,0.0,-2.0304,-2.0304,-2.0304,-2.027,-2.027,-2.027,-2.015,-2.008,-2.008,-2.0025,-1.9919,-1.9797,-1.9919,-1.999,-2.008,-2.0172,-2.0192,-2.02,-1.9398,-1.8959,-1.8817,-1.8383,-1.7962,-1.7516,-1.7516,-1.757,-1.7679,-1.7679,-1.7679,-1.7679,-1.7679,-1.7625,-1.7516,-1.7475,-1.7584,-1.7679,-1.7679,-1.7679,-1.7679,-1.7679,-1.7584,-1.7393,-1.7005,-1.6655,-1.6312,-1.58,-1.5322,-1.4926,-1.4708,-1.4512,-1.4373,-1.4373,-1.4373,-1.4373,-1.4337,-1.4233,-1.4176,-1.4176,-1.4057,-1.3962,-1.3962,-1.3973,-1.3868,-1.3668,-1.3668,-1.3621,-1.3478,-1.3025,-1.2618,-1.2325,-1.1692,-1.1158,-1.0871,-1.0624,-1.047,-1.0419,-1.0154,-0.9999,-0.9999,-0.9524,-0.9524,-0.9836,-0.9047,-0.883,-1.0465,0.0,0.0,0.0,0.0,0.0,0.0,0.0,0.0,0.0,0.0,0.0,0.0,0.0,0.0,0.0,0.0,0.0,0.0,0.0,0.0,0.0,0.0,0.0,0.0,0.0,0.0,0.0,-2.0304,-2.0304,-2.0304,-2.0304,-2.0304,-2.0304,-2.0235,-2.022,-2.022,-2.0115,-2.0025,-1.9919,-1.997,-2.0025,-2.01,-2.01,-2.001,-1.9777,-1.9457,-1.9035,-1.8563,-1.8461,-1.8121,-1.7733,-1.7733,-1.7747,-1.7801,-1.7801,-1.7801,-1.7801,-1.7801,-1.7747,-1.7693,-1.7625,-1.7706,-1.7801,-1.772,-1.776,-1.7801,-1.7801,-1.7747,-1.7611,-1.7227,-1.7186,-1.706,-1.6466,-1.6238,-1.6008,-1.5546,-1.5096,-1.4743,-1.4616,-1.4477,-1.4373,-1.4373,-1.4373,-1.4326,-1.4326,-1.4186,-1.4093,-1.4093,-1.4057,-1.3973,-1.3915,-1.3915,-1.3763,-1.3467,-1.3064,-1.2618,-1.2187,-1.1651,-1.1267,-1.1124,-1.1023,-1.0871,-1.0726,-1.0411,-1.0265,-1.0265,-0.9777,-0.9621,-0.9777,-0.9106,-0.9054,0.0,0.0,0.0,0.0,0.0,0.0,0.0,0.0,0.0,0.0,0.0,0.0,0.0,0.0,0.0,0.0,0.0,0.0,0.0,0.0,0.0,0.0,0.0,0.0,0.0,0.0,0.0,0.0,-2.0304,-2.0304,-2.0304,-2.0304,-2.0304,-2.0304,-2.027,-2.027,-2.027,-2.0115,-2.0045,-2.0025,-2.0025,-2.0061,-2.015,-2.015,-1.9869,-1.9339,-1.9398,-1.9035,-1.8514,-1.8397,-1.8175,-1.7882,-1.7882,-1.7882,-1.7882,-1.7882,-1.7882,-1.7882,-1.7882,-1.7882,-1.7882,-1.776,-1.7801,-1.7882,-1.776,-1.7801,-1.7882,-1.7882,-1.7882,-1.7842,-1.757,-1.7666,-1.7625,-1.7044,-1.685,-1.6655,-1.6032,-1.5457,-1.5062,-1.4834,-1.4697,-1.4558,-1.4558,-1.4558,-1.4558,-1.4558,-1.4512,-1.4408,-1.4326,-1.4244,-1.415,-1.4057,-1.4057,-1.3858,-1.3314,-1.3016,-1.2628,-1.2058,-1.1719,-1.1469,-1.1427,-1.1326,-1.1226,-1.1023,-1.082,-1.0565,-1.03,-1.0087,-0.9873,-0.9666,-0.9361,-0.9309,0.0,0.0,0.0,0.0,0.0,0.0,0.0,0.0,0.0,0.0,0.0,0.0,0.0,0.0,0.0,0.0,0.0,0.0,0.0,0.0,0.0,0.0,0.0,0.0,0.0,0.0,0.0,0.0,-2.0304,-2.0304,-2.0304,-2.0304,-2.0304,-2.0304,-2.0185,-2.01,-2.01,-2.0025,-2.0025,-2.01,-2.01,-2.015,-2.0304,-2.0304,-1.9869,-1.9101,-1.9101,-1.9101,-1.8988,-1.8228,-1.7922,-1.7882,-1.7882,-1.7882,-1.7882,-1.7882,-1.7882,-1.7882,-1.7882,-1.7882,-1.7882,-1.7882,-1.7882,-1.7882,-1.7882,-1.7882,-1.7882,-1.7882,-1.7882,-1.7882,-1.7882,-1.7666,-1.7323,-1.696,-1.6595,-1.6182,-1.5724,-1.5367,-1.5108,-1.5062,-1.5062,-1.5062,-1.5062,-1.5062,-1.5062,-1.5062,-1.5062,-1.4971,-1.4708,-1.4662,-1.4558,-1.4222,-1.4176,-1.4035,-1.361,-1.3563,-1.3286,-1.2676,-1.2363,-1.2008,-1.1669,-1.1427,-1.1267,-1.1276,-1.1276,-1.0804,-0.9814,-1.0249,-1.0249,-0.9762,-0.9762,-0.9762,0.0,0.0,0.0,0.0,0.0,0.0,0.0,0.0,0.0,0.0,0.0,0.0,0.0,0.0,0.0,0.0,0.0,0.0,0.0,0.0,0.0,0.0,0.0,0.0,0.0,0.0,0.0,0.0,0.0,-2.0304,-2.0304,-2.0304,-2.0304,-2.0304,-2.027,-2.022,-2.022,-2.02,-2.02,-2.022,-2.015,-2.0185,-2.0304,-1.9925,-1.9675,-1.9472,-1.9213,-1.8798,-1.8372,-1.886,-1.8745,-1.8333,-1.8567,-1.8528,-1.8293,-1.8293,-1.8095,-1.7882,-1.7882,-1.7882,-1.7882,-1.7882,-1.7882,-1.7882,-1.7882,-1.7882,-1.7882,-1.7882,-1.7882,-1.7842,-1.7611,-1.7666,-1.7706,-1.7584,-1.7282,-1.6879,-1.6522,-1.6032,-1.568,-1.568,-1.5367,-1.5108,-1.5108,-1.5108,-1.5108,-1.5108,-1.5108,-1.5062,-1.4971,-1.4971,-1.4926,-1.4789,-1.4408,-1.4222,-1.4326,-1.3705,-1.3372,-1.3392,-1.2861,-1.2471,-1.2332,-1.1977,-1.1719,-1.1578,-1.1578,-1.1217,-1.0498,-1.0387,-1.0131,-0.9814,-0.951,-0.9413,-0.7828,0.0,0.0,0.0,0.0,0.0,0.0,0.0,0.0,0.0,0.0,0.0,0.0,0.0,0.0,0.0,0.0,0.0,0.0,0.0,0.0,0.0,0.0,0.0,0.0,0.0,0.0,0.0,0.0,0.0,-2.0304,-2.0304,-2.0304,-2.0304,-2.0304,-2.0304,-2.0304,-2.0304,-2.0304,-2.0304,-2.022,-2.022,-2.0304,-1.994,-1.9747,-1.969,-1.9581,-1.9049,-1.8372,-1.9161,-1.9124,-1.8539,-1.8784,-1.863,-1.8279,-1.8279,-1.8135,-1.7882,-1.7882,-1.7882,-1.7882,-1.7882,-1.7882,-1.7882,-1.7882,-1.7882,-1.7882,-1.7882,-1.7882,-1.7842,-1.7625,-1.7666,-1.7747,-1.7747,-1.7352,-1.706,-1.7073,-1.6552,-1.6076,-1.5957,-1.5603,-1.5334,-1.5334,-1.5334,-1.5334,-1.5334,-1.5334,-1.5289,-1.5244,-1.5244,-1.5198,-1.5108,-1.4731,-1.4501,-1.4512,-1.3931,-1.3515,-1.344,-1.2968,-1.2627,-1.248,-1.2224,-1.2026,-1.1828,-1.1828,-1.1619,-1.1175,-1.0744,-1.0277,-0.9814,-0.9614,-0.9354,0.0,0.0,0.0,0.0,0.0,0.0,0.0,0.0,0.0,0.0,0.0,0.0,0.0,0.0,0.0,0.0,0.0,0.0,0.0,0.0,0.0,0.0,0.0,0.0,0.0,0.0,0.0,0.0,-2.0304,-2.0304,-2.0304,-2.0304,-2.0304,-2.0304,-2.0304,-2.0304,-2.0304,-2.0304,-2.0304,-2.0304,-2.0304,-2.0304,-2.0304,-2.0304,-2.008,-1.9711,-2.0115,-1.9833,-1.9101,-1.9101,-1.886,-1.85,-1.8539,-1.8293,-1.7922,-1.7922,-1.7922,-1.7922,-1.7922,-1.7922,-1.7922,-1.7922,-1.7922,-1.7922,-1.7922,-1.7922,-1.7922,-1.7922,-1.7882,-1.7882,-1.7882,-1.7666,-1.7434,-1.7406,-1.6879,-1.6527,-1.7269,-1.6837,-1.6238,-1.5925,-1.5836,-1.5792,-1.5792,-1.5792,-1.5792,-1.5792,-1.5792,-1.5748,-1.5513,-1.5513,-1.5424,-1.5153,-1.5108,-1.4869,-1.4269,-1.4222,-1.38,-1.2822,-1.2725,-1.2578,-1.2175,-1.2126,-1.2126,-1.2126,-1.2126,-1.1977,-1.1719,-1.1427,-1.0804,-0.9814,-1.0064,-0.9703,-0.6927,0.0,0.0,0.0,0.0,0.0,0.0,0.0,0.0,0.0,0.0,0.0,0.0,0.0,0.0,0.0,0.0,0.0,0.0,0.0,0.0,0.0,0.0,0.0,0.0,0.0,0.0,0.0,-2.0304,-2.0304,-2.0304,-2.0304,-2.0304,-2.0304,-2.0304,-2.0304,-2.0304,-2.0304,-2.0304,-2.0304,-2.0304,-2.0304,-2.0304,-2.001,-1.9797,-1.9726,-1.9833,-1.9762,-1.953,-1.953,-1.931,-1.8974,-1.9273,-1.8921,-1.8358,-1.8644,-1.8503,-1.8123,-1.8123,-1.8202,-1.8321,-1.8321,-1.8321,-1.8321,-1.8321,-1.8242,-1.8123,-1.8123,-1.8003,-1.7882,-1.7882,-1.7963,-1.7949,-1.7788,-1.7625,-1.7447,-1.7393,-1.706,-1.6693,-1.662,-1.6337,-1.6076,-1.5836,-1.5792,-1.5792,-1.5792,-1.5792,-1.5792,-1.5703,-1.5703,-1.5703,-1.5603,-1.5232,-1.5006,-1.5142,-1.4709,-1.434,-1.414,-1.3905,-1.3668,-1.3334,-1.2852,-1.2569,-1.2529,-1.2323,-1.2175,-1.1977,-1.1318,-1.0761,-1.0241,-1.002,-0.9961,-0.7332,0.0,0.0,0.0,0.0,0.0,0.0,-1.0413,0.0,0.0,0.0,0.0,0.0,0.0,0.0,0.0,0.0,0.0,0.0,0.0,0.0,0.0,0.0,0.0,0.0,-2.0304,-2.0304,-2.0304,-2.0304,-2.0304,-2.0304,-2.0304,-2.0304,-2.0304,-2.0304,-2.0304,-2.0304,-2.0304,-2.0304,-2.0304,-2.0304,-2.0304,-2.0304,-2.0045,-1.9975,-1.9975,-1.9975,-2.001,-1.9995,-1.9711,-1.953,-1.9406,-1.953,-1.9221,-1.8679,-1.8798,-1.862,-1.8321,-1.8321,-1.8464,-1.8669,-1.8669,-1.8745,-1.8808,-1.8707,-1.8592,-1.8475,-1.8361,-1.8242,-1.8163,-1.8163,-1.8163,-1.8163,-1.8043,-1.7868,-1.7706,-1.7733,-1.7406,-1.7031,-1.6735,-1.6337,-1.6032,-1.5836,-1.5792,-1.5792,-1.5792,-1.5792,-1.5792,-1.5792,-1.5792,-1.5792,-1.5792,-1.5468,-1.5322,-1.5468,-1.5119,-1.4846,-1.4628,-1.4258,-1.3884,-1.3563,-1.2997,-1.2666,-1.2627,-1.248,-1.2224,-1.1828,-1.1528,-1.1158,-1.0635,-0.9969,-0.9814,-0.8059,-0.8115,0.0,0.0,0.0,0.0,-1.0773,-1.0464,0.0,0.0,0.0,0.0,0.0,0.0,0.0,0.0,0.0,0.0,0.0,0.0,0.0,0.0,0.0,0.0,-2.0043,-2.0189,-2.0235,-2.0235,-2.027,-2.0304,-2.0304,-2.0304,-2.0304,-2.0304,-2.0304,-2.0304,-2.0304,-2.0304,-2.0304,-2.0304,-2.0304,-2.0304,-2.0304,-2.0304,-2.0339,-2.0388,-2.0388,-2.0407,-2.046,-1.9803,-1.966,-1.9788,-1.9515,-1.9207,-1.893,-1.8721,-1.8659,-1.862,-1.862,-1.8784,-1.8968,-1.8968,-1.9118,-1.9251,-1.9006,-1.8893,-1.8831,-1.8581,-1.8517,-1.8517,-1.8517,-1.84,-1.8268,-1.8242,-1.7868,-1.7639,-1.8109,-1.7814,-1.7227,-1.657,-1.6163,-1.5925,-1.5881,-1.5836,-1.5792,-1.5792,-1.5792,-1.5792,-1.5792,-1.5792,-1.5792,-1.5792,-1.5792,-1.5748,-1.5558,-1.5513,-1.5277,-1.4641,-1.4236,-1.3815,-1.3457,-1.2939,-1.2666,-1.2715,-1.2618,-1.2224,-1.1528,-1.1769,-1.1551,-1.0914,-0.9917,-0.9465,-0.9363,0.0,0.0,0.0,0.0,0.0,0.0,-0.9273,0.0,0.0,0.0,0.0,0.0,0.0,0.0,0.0,0.0,0.0,0.0,0.0,0.0,0.0,0.0,0.0,-1.8623,-1.9325,-1.9833,-1.9833,-2.0115,-2.0304,-2.0304,-2.0304,-2.0304,-2.0304,-2.0304,-2.0304,-2.0304,-2.0304,-2.0304,-2.0304,-2.0304,-2.0304,-2.0304,-2.0354,-2.0388,-2.0388,-2.022,-2.0289,-2.0494,-2.0135,-1.9929,-1.9864,-1.9588,-1.9376,-1.9236,-1.9543,-1.9573,-1.9472,-1.9472,-1.942,-1.9369,-1.9369,-1.9258,-1.9124,-1.9087,-1.8936,-1.8784,-1.8542,-1.862,-1.8683,-1.8542,-1.8581,-1.8644,-1.8478,-1.8361,-1.8307,-1.8439,-1.8016,-1.7585,-1.7462,-1.7031,-1.6565,-1.6238,-1.6001,-1.5792,-1.5792,-1.5792,-1.5792,-1.5792,-1.5792,-1.5792,-1.5792,-1.5792,-1.5792,-1.5748,-1.5748,-1.5603,-1.5322,-1.5232,-1.5051,-1.4731,-1.4071,-1.3826,-1.4086,-1.3399,-1.255,-1.1528,-1.099,-1.0669,-1.0517,-0.9865,-0.9814,0.0,0.0,0.0,-1.0247,0.0,0.0,0.0,0.0,-0.953,0.0,0.0,0.0,0.0,0.0,0.0,0.0,0.0,0.0,0.0,0.0,0.0,0.0,0.0,0.0,-1.7739,-1.8464,-1.9066,-1.9369,-1.9747,-2.001,-2.001,-2.02,-2.0304,-2.0304,-2.0304,-2.0304,-2.0304,-2.0304,-2.0304,-2.0304,-2.0339,-2.0354,-2.0354,-2.0407,-2.0475,-2.0559,-2.0441,-2.0494,-2.0628,-2.0342,-2.0292,-2.0311,-2.003,-1.9874,-1.9844,-1.9929,-1.9925,-1.9848,-1.9848,-1.9889,-1.9945,-1.9945,-1.9945,-1.9909,-1.9617,-1.9288,-1.895,-1.8851,-1.8874,-1.895,-1.8851,-1.8798,-1.8784,-1.8683,-1.8581,-1.8517,-1.862,-1.8293,-1.7975,-1.8095,-1.757,-1.6976,-1.6398,-1.6032,-1.5792,-1.5792,-1.5792,-1.5792,-1.5792,-1.5792,-1.5792,-1.5792,-1.5792,-1.5792,-1.5792,-1.5792,-1.5748,-1.5659,-1.5424,-1.5244,-1.5108,-1.4269,-1.3752,-1.3695,-1.3228,-1.2559,-1.1728,-1.0947,-1.0584,-1.0482,-0.9873,-0.9762,0.0,0.0,0.0,0.0,0.0,-1.1383,0.0,0.0,0.0,-1.0854,0.0,0.0,0.0,0.0,0.0,0.0,0.0,0.0,0.0,0.0,0.0,0.0,0.0,0.0,0.0,-1.7258,-1.7952,-1.879,-1.909,-1.9331,-1.9622,-2.0054,-2.0304,-2.0304,-2.0304,-2.027,-2.02,-2.027,-2.027,-2.022,-2.0339,-2.0423,-2.0423,-2.0494,-2.061,-2.0693,-2.0644,-2.0711,-2.0794,-2.0512,-2.0545,-2.0761,-2.0441,-2.0392,-2.0444,-2.022,-2.0166,-2.0166,-2.0166,-2.0254,-2.041,-2.041,-2.0512,-2.0561,-2.0131,-1.9669,-1.9288,-1.9288,-1.9288,-1.9288,-1.9288,-1.9139,-1.9011,-1.8936,-1.8798,-1.8736,-1.8822,-1.8567,-1.8347,-1.8478,-1.7895,-1.7144,-1.6539,-1.612,-1.5869,-1.5792,-1.5792,-1.5792,-1.5792,-1.5792,-1.5792,-1.5792,-1.5792,-1.5792,-1.5792,-1.5792,-1.5792,-1.5792,-1.5379,-1.5108,-1.5108,-1.4222,-1.3478,-1.2929,-1.2871,-1.2569,-1.1859,-1.1301,-1.0846,-1.06,-0.9873,-0.9614,0.0,0.0,0.0,0.0,-1.35,0.0,0.0,0.0,-1.0908,-0.9503,0.0,0.0,0.0,0.0,0.0,0.0,0.0,0.0,0.0,0.0,0.0,0.0,0.0,0.0,0.0,-1.5128,-1.6145,-1.7832,-1.7668,-1.8038,-1.9267,-1.9946,-2.0304,-2.0304,-2.0304,-2.0131,-1.9762,-2.0166,-2.022,-1.9874,-2.0273,-2.0494,-2.0494,-2.061,-2.0693,-2.0693,-2.0527,-2.0579,-2.0794,-2.0512,-2.0545,-2.0761,-2.0494,-2.0545,-2.0761,-2.0728,-2.0695,-2.0695,-2.0695,-2.0579,-2.041,-2.041,-2.0254,-2.0061,-2.0041,-1.9955,-1.9884,-1.9884,-1.9884,-1.9884,-1.9884,-1.9884,-1.9812,-1.9493,-1.9406,-1.9347,-1.9101,-1.8912,-1.8683,-1.8517,-1.7814,-1.7157,-1.6876,-1.6509,-1.6151,-1.5836,-1.5792,-1.5792,-1.5792,-1.5792,-1.5792,-1.5792,-1.5792,-1.5792,-1.5792,-1.5792,-1.5792,-1.5792,-1.5379,-1.5108,-1.5108,-1.4536,-1.38,-1.2929,-1.3296,-1.2919,-1.1823,-1.1724,-1.1384,-1.0753,-0.9725,-0.9517,0.0,0.0,0.0,0.0,0.0,0.0,-1.1382,0.0,-1.0532,0.0,0.0,0.0,0.0,0.0,0.0,0.0,0.0,0.0,0.0,0.0,0.0,0.0,0.0,0.0,0.0,0.0,0.0,0.0,-1.6006,-1.6496,-1.7743,-1.8594,-1.9235,-1.9603,-1.9833,-1.9869,-1.969,-2.0131,-2.027,-2.015,-2.0392,-2.0527,-2.061,-2.0711,-2.0777,-2.0744,-2.0662,-2.0695,-2.0794,-2.0695,-2.0695,-2.0794,-2.0695,-2.0679,-2.0794,-2.0794,-2.0794,-2.0794,-2.0794,-2.0728,-2.0613,-2.0613,-2.046,-2.022,-2.022,-2.0115,-2.0005,-2.0005,-2.0005,-2.0005,-2.0005,-2.0005,-1.9955,-1.9797,-1.9639,-1.9457,-1.9347,-1.895,-1.8659,-1.8644,-1.8175,-1.7733,-1.7557,-1.6667,-1.6032,-1.6076,-1.5913,-1.5869,-1.6076,-1.5913,-1.5792,-1.5792,-1.5792,-1.5792,-1.5792,-1.5792,-1.5703,-1.5424,-1.4915,-1.449,-1.4222,-1.4035,-1.3563,-1.2929,-1.3113,-1.2803,-1.195,-1.195,-1.1651,-1.0998,-1.0079,-0.9814,-1.3252,0.0,0.0,0.0,0.0,0.0,0.0,0.0,0.0,0.0,0.0,0.0,0.0,0.0,0.0,0.0,0.0,0.0,0.0,0.0,0.0,0.0,0.0,0.0,0.0,0.0,0.0,0.0,0.0,-1.4803,-1.6331,-1.7417,-1.8264,-1.8921,-1.9332,-1.9508,-1.9457,-1.996,-2.017,-2.01,-2.0426,-2.0628,-2.0711,-2.0761,-2.0794,-2.0794,-2.0794,-2.0794,-2.0794,-2.0794,-2.0794,-2.0794,-2.0794,-2.0794,-2.0794,-2.0794,-2.0794,-2.0794,-2.0794,-2.0794,-2.0794,-2.0794,-2.0679,-2.0512,-2.0512,-2.0357,-2.0235,-2.0235,-2.0235,-2.0235,-2.0235,-2.0235,-2.0166,-2.0025,-1.9797,-1.9603,-1.942,-1.9026,-1.8697,-1.8784,-1.8489,-1.8175,-1.8042,-1.7118,-1.6411,-1.6411,-1.6207,-1.6088,-1.6151,-1.5957,-1.5792,-1.5792,-1.5792,-1.5792,-1.5792,-1.5792,-1.5614,-1.5108,-1.4731,-1.4258,-1.361,-1.3621,-1.3392,-1.2929,-1.2881,-1.2735,-1.2323,-1.2175,-1.1868,-1.141,-1.0533,-1.0174,0.0,0.0,0.0,-1.3361,0.0,0.0,0.0,0.0,-1.2557,0.0,0.0,0.0,0.0,0.0,-0.9778,-0.9198,-0.8981,0.0,0.0,0.0,0.0,0.0,0.0,0.0,0.0,0.0,0.0,0.0,-1.2117,-1.2883,-1.5578,-1.676,-1.7695,-1.8495,-1.8914,-1.9026,-1.8822,-1.9543,-1.9722,-1.9346,-2.0311,-2.0794,-2.0794,-2.0794,-2.0794,-2.0794,-2.0794,-2.0794,-2.0794,-2.0794,-2.0794,-2.0794,-2.0794,-2.0794,-2.0794,-2.0794,-2.0794,-2.0794,-2.0794,-2.0794,-2.0794,-2.0794,-2.0794,-2.0794,-2.0794,-2.0794,-2.0761,-2.0761,-2.0761,-2.0761,-2.0761,-2.0761,-2.0628,-2.0131,-2.0005,-1.9812,-1.925,-1.9101,-1.9026,-1.8822,-1.8539,-1.8226,-1.8028,-1.7948,-1.7666,-1.6795,-1.668,-1.6466,-1.5881,-1.5792,-1.5792,-1.5792,-1.5792,-1.5792,-1.5792,-1.5792,-1.5614,-1.5108,-1.5062,-1.464,-1.3658,-1.3621,-1.3392,-1.2929,-1.2881,-1.2881,-1.2881,-1.2323,-1.2076,-1.2026,-1.0905,-1.0403,0.0,0.0,-1.5531,-1.3952,0.0,0.0,0.0,0.0,0.0,0.0,0.0,0.0,0.0,0.0,-0.9919,-0.927,-0.8747,-0.8154,0.0,0.0,0.0,0.0,0.0,0.0,0.0,0.0,0.0,-1.0951,-1.1238,-1.2224,-1.4269,-1.5439,-1.6584,-1.7798,-1.8129,-1.8629,-1.9258,-1.9767,-2.0085,-2.0224,-2.0561,-2.0744,-2.0794,-2.0794,-2.0794,-2.0794,-2.0794,-2.0794,-2.0794,-2.0794,-2.0794,-2.0794,-2.0794,-2.0794,-2.0794,-2.0794,-2.0794,-2.0794,-2.0794,-2.0794,-2.0794,-2.0794,-2.0794,-2.0794,-2.0794,-2.0794,-2.0794,-2.0794,-2.0794,-2.0794,-2.0794,-2.0794,-2.0761,-2.0561,-2.0392,-2.022,-1.998,-1.9551,-1.9184,-1.9258,-1.8921,-1.8669,-1.8707,-1.8745,-1.8383,-1.7271,-1.6539,-1.6175,-1.638,-1.612,-1.5913,-1.5913,-1.5913,-1.5913,-1.5792,-1.5513,-1.5289,-1.5108,-1.4455,-1.3941,-1.361,-1.3296,-1.3065,-1.2881,-1.2529,-1.2372,-1.2382,-1.1819,-1.1309,-1.0964,-1.0226,-0.985,-1.4994,-1.5404,0.0,-1.4457,-1.4283,0.0,-1.2679,0.0,0.0,0.0,0.0,0.0,0.0,0.0,-1.0116,-0.979,-0.8888,-0.8024,0.0,0.0,0.0,0.0,0.0,0.0,0.0,0.0,0.0,-1.0193,-1.0449,-1.1424,0.0,0.0,-1.5755,-1.742,-1.7835,-1.8542,-1.9566,-1.9925,-2.022,-2.0475,-2.0644,-2.0777,-2.0794,-2.0794,-2.0794,-2.0794,-2.0794,-2.0794,-2.0794,-2.0794,-2.086,-2.099,-2.099,-2.1039,-2.1135,-2.1023,-2.099,-2.099,-2.099,-2.0893,-2.0794,-2.0794,-2.0794,-2.0794,-2.0794,-2.0794,-2.0794,-2.0794,-2.0794,-2.0794,-2.0794,-2.0794,-2.0794,-2.0695,-2.0444,-2.022,-2.01,-1.9588,-1.9184,-1.9347,-1.9124,-1.8936,-1.9064,-1.8936,-1.8539,-1.776,-1.6993,-1.6552,-1.671,-1.6349,-1.6044,-1.6001,-1.5988,-1.5869,-1.557,-1.5289,-1.5108,-1.5108,-1.4501,-1.4129,-1.4129,-1.3668,-1.3344,-1.3162,-1.2676,-1.2382,-1.2382,-1.1392,-1.0728,-1.0379,-0.9429,-0.8908]},{"header":{"parameterUnit":"m.s-1","parameterCategory":1,"la1":30.6,"la2":29.2853,"lo1":-89.7004,"lo2":-87.6739,"dy":0.0162,"dx":0.0183,"nx":112,"ny":82,"refTime":"2024-09-11T00:00:00:Z","depth":0,"parameterNumber":3,"parameterNumberName":"V-component_of_WINDS"},"data":[0.0,0.0,0.0,0.0,0.0,0.0,0.0,0.0,0.0,0.0,0.0,0.0,0.0,0.0,0.0,0.0,0.0,0.0,0.0,0.0,0.0,0.0,0.0,0.0,0.0,0.0,0.0,0.0,0.0,0.0,0.0,0.0,0.0,0.0,0.0,0.0,0.0,0.0,0.0,0.0,0.0,0.0,0.0,0.0,0.0,0.0,0.0,0.0,0.0,0.0,0.0,0.0,0.0,0.0,0.0,0.0,0.0,0.0,0.0,0.0,0.0,0.0,0.0,0.0,0.0,0.0,0.0,0.0,0.0,0.0,0.0,0.0,0.0,0.0,0.0,0.0,0.0,0.0,0.0,0.0,0.0,0.0,0.0,0.0,0.0,0.0,0.0,0.0,0.0,0.0,0.0,-1.49,-1.6971,-1.8322,-1.8502,-1.7808,-1.6415,-1.4167,0.0,0.0,0.0,0.0,0.0,0.0,0.0,0.0,0.0,0.0,0.0,0.0,0.0,0.0,0.0,0.0,0.0,0.0,0.0,0.0,0.0,0.0,0.0,0.0,0.0,0.0,0.0,0.0,0.0,0.0,0.0,0.0,0.0,0.0,0.0,0.0,0.0,0.0,0.0,0.0,0.0,0.0,0.0,0.0,0.0,0.0,0.0,0.0,0.0,0.0,0.0,0.0,0.0,0.0,0.0,0.0,0.0,0.0,0.0,0.0,0.0,0.0,0.0,0.0,0.0,0.0,0.0,0.0,0.0,0.0,0.0,0.0,0.0,0.0,0.0,0.0,0.0,0.0,0.0,0.0,0.0,0.0,0.0,0.0,0.0,0.0,0.0,0.0,0.0,0.0,0.0,0.0,0.0,0.0,0.0,0.0,0.0,0.0,0.0,0.0,0.0,0.0,0.0,0.0,-1.3601,-1.6422,-1.7776,-1.8469,-1.8505,-1.7414,-1.5994,-1.428,0.0,0.0,0.0,0.0,0.0,0.0,0.0,0.0,0.0,0.0,0.0,0.0,0.0,0.0,0.0,0.0,0.0,0.0,0.0,0.0,0.0,0.0,0.0,0.0,0.0,0.0,0.0,0.0,0.0,0.0,0.0,0.0,0.0,0.0,0.0,0.0,0.0,0.0,0.0,0.0,0.0,0.0,0.0,0.0,0.0,0.0,0.0,0.0,0.0,0.0,0.0,0.0,0.0,0.0,0.0,0.0,0.0,0.0,0.0,0.0,0.0,0.0,0.0,0.0,0.0,0.0,0.0,0.0,0.0,0.0,0.0,0.0,0.0,0.0,0.0,0.0,0.0,0.0,0.0,0.0,0.0,0.0,0.0,0.0,0.0,0.0,0.0,0.0,0.0,0.0,0.0,0.0,0.0,0.0,0.0,0.0,0.0,0.0,0.0,0.0,0.0,0.0,0.0,-1.3496,-1.4892,-1.7772,-1.8336,-1.8569,-1.8771,-1.7501,-1.6042,-1.4459,-1.2871,0.0,0.0,0.0,0.0,0.0,0.0,0.0,0.0,0.0,0.0,0.0,0.0,0.0,0.0,0.0,0.0,0.0,0.0,0.0,0.0,0.0,0.0,0.0,0.0,0.0,0.0,0.0,0.0,0.0,0.0,0.0,0.0,0.0,0.0,0.0,0.0,0.0,0.0,0.0,0.0,0.0,0.0,0.0,0.0,0.0,0.0,0.0,0.0,0.0,0.0,0.0,0.0,0.0,0.0,0.0,0.0,0.0,0.0,0.0,0.0,0.0,0.0,0.0,0.0,0.0,0.0,0.0,0.0,0.0,0.0,0.0,0.0,0.0,0.0,0.0,0.0,0.0,0.0,0.0,0.0,0.0,0.0,0.0,0.0,0.0,0.0,0.0,0.0,0.0,0.0,0.0,0.0,0.0,0.0,0.0,0.0,0.0,0.0,0.0,0.0,0.0,0.0,-1.5273,-1.6246,-1.8662,-1.8753,-1.8789,-1.9046,-1.753,-1.5998,-1.4637,-1.2132,0.0,0.0,0.0,0.0,0.0,0.0,0.0,0.0,0.0,0.0,0.0,0.0,0.0,0.0,0.0,0.0,0.0,0.0,0.0,0.0,0.0,0.0,0.0,0.0,0.0,0.0,0.0,0.0,0.0,0.0,0.0,0.0,0.0,0.0,0.0,0.0,0.0,0.0,0.0,0.0,0.0,0.0,0.0,0.0,0.0,0.0,0.0,0.0,0.0,0.0,0.0,0.0,0.0,0.0,0.0,0.0,0.0,0.0,0.0,0.0,0.0,0.0,0.0,0.0,0.0,0.0,0.0,0.0,0.0,0.0,0.0,0.0,0.0,0.0,0.0,0.0,0.0,0.0,0.0,0.0,0.0,0.0,0.0,0.0,0.0,0.0,0.0,0.0,0.0,0.0,0.0,0.0,0.0,0.0,0.0,0.0,0.0,0.0,0.0,0.0,0.0,0.0,-1.5632,-1.7204,-1.8819,-1.9081,-1.9191,-1.928,-1.7243,-1.5592,-1.4743,-1.1655,0.0,0.0,0.0,0.0,0.0,0.0,0.0,0.0,0.0,0.0,0.0,0.0,0.0,0.0,0.0,0.0,0.0,0.0,0.0,0.0,0.0,0.0,0.0,0.0,0.0,0.0,0.0,0.0,0.0,0.0,0.0,0.0,0.0,0.0,0.0,0.0,0.0,0.0,0.0,0.0,0.0,0.0,0.0,0.0,0.0,0.0,0.0,0.0,0.0,0.0,0.0,0.0,0.0,0.0,0.0,0.0,0.0,0.0,0.0,0.0,0.0,0.0,0.0,0.0,0.0,0.0,0.0,0.0,0.0,0.0,0.0,0.0,0.0,0.0,0.0,0.0,0.0,0.0,0.0,0.0,0.0,0.0,0.0,0.0,0.0,0.0,0.0,0.0,0.0,0.0,0.0,0.0,0.0,0.0,0.0,0.0,0.0,0.0,0.0,0.0,0.0,0.0,-1.5019,-1.6625,0.0,-1.9018,-1.9169,-1.8771,-1.7596,-1.6073,-1.4138,0.0,0.0,0.0,0.0,0.0,0.0,0.0,0.0,0.0,0.0,0.0,0.0,0.0,0.0,0.0,0.0,0.0,0.0,0.0,0.0,0.0,0.0,0.0,0.0,0.0,0.0,0.0,0.0,0.0,0.0,0.0,0.0,0.0,0.0,0.0,0.0,0.0,0.0,0.0,0.0,0.0,0.0,0.0,0.0,0.0,0.0,0.0,0.0,0.0,0.0,0.0,0.0,0.0,0.0,0.0,0.0,0.0,0.0,0.0,0.0,0.0,0.0,0.0,0.0,0.0,0.0,0.0,0.0,0.0,0.0,0.0,0.0,0.0,0.0,0.0,0.0,0.0,0.0,0.0,0.0,0.0,0.0,0.0,0.0,0.0,0.0,0.0,0.0,0.0,0.0,0.0,0.0,0.0,0.0,0.0,0.0,0.0,0.0,0.0,0.0,0.0,0.0,-1.3114,-1.4981,-1.6577,0.0,-1.869,-1.8877,-1.8181,-1.7009,-1.5519,-1.3745,0.0,0.0,0.0,0.0,0.0,0.0,0.0,0.0,0.0,0.0,0.0,0.0,0.0,0.0,0.0,0.0,0.0,0.0,0.0,0.0,0.0,0.0,0.0,0.0,0.0,0.0,0.0,0.0,0.0,0.0,0.0,0.0,0.0,0.0,0.0,0.0,0.0,0.0,0.0,0.0,0.0,0.0,0.0,0.0,0.0,0.0,0.0,0.0,0.0,0.0,0.0,0.0,0.0,0.0,0.0,0.0,0.0,0.0,0.0,0.0,0.0,0.0,0.0,0.0,0.0,0.0,0.0,0.0,0.0,0.0,0.0,0.0,0.0,0.0,0.0,0.0,0.0,0.0,0.0,0.0,0.0,0.0,0.0,0.0,0.0,0.0,0.0,0.0,0.0,0.0,0.0,0.0,0.0,0.0,0.0,0.0,0.0,0.0,0.0,0.0,0.0,0.0,-1.3188,-1.5725,-1.7349,-1.7286,-1.8134,-1.8365,-1.7555,-1.5167,-1.3712,0.0,0.0,0.0,0.0,0.0,0.0,0.0,0.0,0.0,0.0,0.0,0.0,0.0,0.0,0.0,0.0,0.0,0.0,0.0,0.0,0.0,0.0,0.0,0.0,0.0,0.0,0.0,0.0,0.0,0.0,0.0,0.0,0.0,0.0,0.0,0.0,0.0,0.0,0.0,0.0,0.0,0.0,0.0,0.0,0.0,0.0,0.0,0.0,0.0,0.0,0.0,0.0,0.0,0.0,0.0,0.0,0.0,0.0,0.0,0.0,0.0,0.0,0.0,0.0,0.0,0.0,0.0,0.0,0.0,0.0,0.0,0.0,0.0,0.0,0.0,0.0,0.0,0.0,0.0,0.0,0.0,0.0,0.0,0.0,0.0,0.0,0.0,0.0,0.0,0.0,0.0,0.0,0.0,0.0,0.0,0.0,0.0,0.0,0.0,0.0,0.0,0.0,0.0,-1.2553,-1.4979,-1.6561,-1.6535,-1.7366,-1.7581,-1.6731,-1.5484,-1.4245,-1.3064,0.0,0.0,0.0,0.0,0.0,0.0,0.0,0.0,0.0,0.0,0.0,0.0,0.0,0.0,0.0,0.0,0.0,0.0,0.0,0.0,0.0,0.0,0.0,0.0,0.0,0.0,0.0,0.0,0.0,0.0,0.0,0.0,0.0,0.0,0.0,0.0,0.0,0.0,0.0,0.0,0.0,0.0,0.0,0.0,0.0,0.0,0.0,0.0,0.0,0.0,0.0,0.0,0.0,0.0,0.0,0.0,0.0,0.0,0.0,0.0,0.0,0.0,0.0,0.0,0.0,0.0,0.0,0.0,0.0,0.0,0.0,0.0,0.0,0.0,0.0,0.0,0.0,0.0,0.0,0.0,0.0,0.0,0.0,0.0,0.0,0.0,0.0,0.0,0.0,0.0,0.0,0.0,0.0,0.0,0.0,0.0,0.0,0.0,0.0,0.0,0.0,0.0,-1.2243,-1.5002,-1.654,-1.588,-1.6926,-1.7193,-1.5971,-1.5164,-1.4137,-1.2752,0.0,0.0,0.0,0.0,0.0,0.0,0.0,0.0,0.0,0.0,0.0,0.0,0.0,0.0,0.0,0.0,0.0,0.0,0.0,0.0,0.0,0.0,0.0,0.0,0.0,0.0,0.0,0.0,0.0,0.0,0.0,0.0,0.0,0.0,0.0,0.0,0.0,0.0,0.0,0.0,0.0,0.0,0.0,0.0,0.0,0.0,0.0,0.0,0.0,0.0,0.0,0.0,0.0,0.0,0.0,0.0,0.0,0.0,0.0,0.0,0.0,0.0,0.0,0.0,0.0,0.0,0.0,0.0,0.0,0.0,0.0,0.0,0.0,0.0,0.0,0.0,0.0,0.0,0.0,0.0,0.0,0.0,0.0,0.0,0.0,0.0,0.0,0.0,0.0,0.0,0.0,0.0,0.0,0.0,0.0,0.0,0.0,0.0,0.0,0.0,0.0,0.0,-1.2338,-1.5498,-1.7042,-1.5593,-1.6784,-1.7034,-1.546,-1.4516,-1.3642,-1.2777,0.0,0.0,0.0,0.0,0.0,0.0,0.0,0.0,0.0,0.0,0.0,0.0,0.0,0.0,0.0,0.0,0.0,0.0,0.0,0.0,0.0,0.0,0.0,0.0,0.0,0.0,0.0,0.0,0.0,0.0,0.0,0.0,0.0,0.0,0.0,0.0,0.0,0.0,0.0,0.0,0.0,0.0,0.0,0.0,0.0,0.0,0.0,0.0,0.0,0.0,0.0,0.0,0.0,0.0,0.0,0.0,0.0,0.0,0.0,0.0,-1.2679,0.0,0.0,0.0,0.0,0.0,0.0,0.0,0.0,0.0,0.0,0.0,0.0,0.0,0.0,0.0,0.0,0.0,0.0,0.0,0.0,0.0,0.0,0.0,0.0,0.0,0.0,0.0,0.0,0.0,0.0,0.0,0.0,0.0,0.0,0.0,0.0,0.0,0.0,0.0,0.0,0.0,-1.3378,-1.5488,-1.6946,-1.7225,-1.6949,-1.6621,-1.6254,-1.4859,-1.3909,-1.3711,-1.1485,0.0,0.0,0.0,0.0,0.0,0.0,0.0,0.0,0.0,0.0,0.0,0.0,0.0,0.0,0.0,0.0,0.0,0.0,0.0,0.0,0.0,0.0,0.0,0.0,0.0,0.0,0.0,0.0,0.0,0.0,0.0,0.0,0.0,0.0,0.0,0.0,0.0,0.0,0.0,0.0,0.0,0.0,0.0,0.0,0.0,0.0,0.0,0.0,0.0,0.0,0.0,0.0,0.0,0.0,0.0,0.0,0.0,0.0,0.0,0.0,-1.3858,0.0,0.0,0.0,0.0,0.0,0.0,0.0,0.0,0.0,0.0,0.0,0.0,0.0,0.0,0.0,0.0,0.0,0.0,0.0,0.0,0.0,0.0,0.0,0.0,0.0,0.0,0.0,0.0,0.0,0.0,0.0,0.0,0.0,0.0,0.0,0.0,0.0,0.0,0.0,0.0,-1.369,-1.5815,-1.718,-1.7228,-1.7159,-1.6806,-1.5989,-1.5139,-1.4444,-1.4024,-1.2764,0.0,0.0,0.0,0.0,0.0,0.0,0.0,0.0,0.0,0.0,0.0,0.0,0.0,0.0,0.0,0.0,0.0,0.0,0.0,0.0,0.0,0.0,0.0,0.0,0.0,0.0,0.0,0.0,0.0,0.0,0.0,0.0,0.0,0.0,0.0,0.0,0.0,0.0,0.0,0.0,0.0,0.0,0.0,0.0,0.0,0.0,0.0,0.0,0.0,0.0,0.0,0.0,0.0,-1.778,-1.7895,-1.7824,-1.869,-1.9027,-1.8811,-1.6962,-1.6293,-1.6384,-1.5066,0.0,0.0,0.0,0.0,0.0,0.0,0.0,0.0,0.0,0.0,0.0,0.0,0.0,0.0,0.0,0.0,0.0,0.0,0.0,0.0,0.0,0.0,0.0,0.0,-1.6625,-1.6678,0.0,0.0,0.0,0.0,0.0,0.0,0.0,0.0,0.0,0.0,0.0,0.0,-1.4154,-1.6517,-1.7785,-1.7117,-1.7518,-1.7203,-1.5666,-1.5395,-1.4995,-1.428,-1.4089,-1.3063,0.0,0.0,0.0,0.0,0.0,0.0,0.0,0.0,0.0,0.0,0.0,0.0,0.0,0.0,0.0,0.0,0.0,0.0,0.0,0.0,0.0,0.0,0.0,0.0,0.0,0.0,0.0,0.0,0.0,0.0,0.0,0.0,-1.1563,-1.1723,0.0,0.0,0.0,0.0,0.0,0.0,0.0,0.0,0.0,0.0,0.0,0.0,0.0,-1.7645,-1.7773,-1.9568,-2.0192,-1.9684,-2.0802,-2.1078,-2.0583,-2.0898,-2.118,-2.1414,-2.1279,0.0,-1.9072,-1.7625,0.0,0.0,0.0,0.0,0.0,0.0,0.0,0.0,0.0,0.0,0.0,0.0,0.0,0.0,0.0,0.0,0.0,0.0,0.0,0.0,0.0,0.0,-1.9804,-1.9741,-1.9278,-1.8818,0.0,-1.6724,-1.4727,-1.3701,-1.2964,0.0,0.0,0.0,0.0,0.0,0.0,0.0,-1.6014,-1.7874,-1.8966,-1.8878,-1.8277,-1.749,-1.6507,-1.5744,-1.5245,-1.5149,-1.4464,-1.3941,-1.3603,-1.1577,0.0,0.0,0.0,0.0,0.0,0.0,0.0,0.0,0.0,0.0,0.0,0.0,0.0,0.0,0.0,0.0,0.0,0.0,0.0,0.0,0.0,0.0,0.0,0.0,0.0,0.0,0.0,0.0,0.0,-1.1082,-1.2256,-1.2356,-1.2815,-1.2835,0.0,0.0,0.0,0.0,0.0,0.0,0.0,0.0,0.0,-1.79,-1.8934,-1.9837,-2.0604,-2.1417,-2.1872,-2.2016,-2.265,-2.2876,-2.2743,-2.2902,-2.3159,-2.349,-2.357,-2.3263,-2.2571,-2.0575,-1.9297,-1.847,0.0,0.0,0.0,0.0,-1.7134,-1.761,-1.852,-1.8865,0.0,-1.8157,0.0,0.0,0.0,0.0,0.0,0.0,0.0,0.0,0.0,0.0,-2.1344,-2.1757,-2.1582,-2.1336,-2.1372,-2.0422,-1.8776,0.0,-1.5563,-1.4784,-1.2127,0.0,0.0,0.0,0.0,0.0,-1.7168,-1.8426,-1.9204,-1.9191,-1.8865,-1.808,-1.6731,-1.6246,-1.584,-1.5385,-1.5024,-1.4619,-1.4121,-1.3027,-1.1757,0.0,0.0,0.0,0.0,0.0,0.0,0.0,0.0,0.0,0.0,0.0,0.0,0.0,0.0,0.0,0.0,0.0,0.0,0.0,0.0,0.0,0.0,0.0,0.0,0.0,0.0,0.0,0.0,-1.2539,-1.3146,-1.3323,-1.4411,-1.4718,0.0,0.0,0.0,0.0,0.0,0.0,-1.8258,-1.8983,-1.9688,-2.0381,-2.0994,-2.1826,-2.2944,-2.2821,-2.3024,-2.3611,-2.3689,-2.3837,-2.4018,-2.4135,-2.4374,-2.4707,-2.4707,-2.4851,-2.4958,-2.2949,-2.1617,-2.0798,-2.0037,-1.9356,-1.8876,-1.9509,-1.9896,-2.0276,-2.1529,-2.1987,-2.1842,-2.0711,-2.0138,-1.9514,-1.7606,0.0,0.0,0.0,0.0,-2.0118,-2.1199,-2.1979,-2.2614,-2.3173,-2.3314,-2.3279,-2.3023,-2.2984,-2.1939,0.0,-1.8161,-1.7555,-1.4355,0.0,0.0,0.0,0.0,-1.7324,-1.8159,-1.9017,-1.9479,-1.9251,-1.9229,-1.8518,-1.6765,-1.6631,-1.6265,-1.5443,-1.5399,-1.5116,-1.4465,-1.4217,-1.3203,-1.1308,0.0,0.0,0.0,0.0,0.0,0.0,0.0,0.0,0.0,0.0,0.0,0.0,0.0,0.0,0.0,0.0,0.0,0.0,0.0,0.0,0.0,0.0,0.0,0.0,0.0,0.0,0.0,0.0,0.0,-1.5607,-1.7631,0.0,0.0,0.0,0.0,-1.8355,-1.846,-1.916,-2.0715,-2.1588,-2.226,-2.2811,-2.3585,-2.3969,-2.3941,-2.3921,-2.3901,-2.3876,-2.3896,-2.3959,-2.4097,-2.4116,-2.432,-2.4707,-2.4707,-2.4888,-2.5124,-2.4176,-2.334,-2.2585,-2.1789,-2.15,-2.149,-2.1477,-2.2033,-2.2827,-2.2899,-2.2924,-2.3052,-2.3791,-2.296,-2.1642,-2.1513,-2.0357,0.0,0.0,-2.1598,-2.2042,-2.3679,-2.4191,-2.4248,-2.4158,-2.419,-2.3988,-2.309,-2.295,-2.2481,0.0,-2.0344,-1.9558,-1.6951,0.0,-1.6601,-1.6523,-1.7322,-1.8258,-1.9119,-1.9999,-2.0215,-1.9375,-1.9297,-1.8594,-1.6836,-1.6687,-1.6313,-1.5442,-1.5409,-1.5387,-1.5343,-1.4543,-1.4039,-1.3906,-1.1523,0.0,0.0,0.0,0.0,0.0,0.0,0.0,0.0,0.0,0.0,0.0,0.0,0.0,0.0,0.0,0.0,0.0,0.0,0.0,0.0,0.0,0.0,0.0,0.0,0.0,0.0,0.0,0.0,-1.7909,-1.9143,0.0,-1.8229,-1.8888,-1.974,-2.0537,-2.1123,-2.1916,-2.3,-2.3249,-2.3492,-2.375,-2.3751,-2.3981,-2.4442,-2.3867,-2.3736,-2.41,-2.3786,-2.375,-2.3919,-2.4058,-2.4372,-2.4818,-2.4828,-2.5024,-2.5303,-2.4985,-2.4739,-2.4505,-2.4118,-2.405,-2.4148,-2.4122,-2.4329,-2.4618,-2.4613,-2.4644,-2.4647,-2.4436,-2.3552,-2.2589,-2.2624,-2.2597,-2.2675,-2.324,-2.3805,-2.4365,-2.4935,-2.5082,-2.5099,-2.5051,-2.5043,-2.4982,-2.4649,-2.4597,-2.4277,-2.3116,-2.2454,-2.1289,-1.8685,-1.9178,-1.9353,-1.771,-1.869,-1.9726,-2.0039,-2.0371,-2.0488,-2.0171,-2.0132,-1.9664,-1.8474,-1.787,-1.7163,-1.6289,-1.5701,-1.5149,-1.4581,-1.4269,-1.3587,-1.2517,-1.1597,-1.0565,0.0,0.0,0.0,0.0,0.0,0.0,0.0,0.0,0.0,0.0,0.0,0.0,0.0,0.0,0.0,0.0,0.0,0.0,0.0,0.0,0.0,0.0,0.0,0.0,0.0,0.0,-1.8749,-1.9536,-2.0712,-2.1077,-2.0172,-2.1076,-2.198,-2.2496,-2.314,-2.3749,-2.4266,-2.421,-2.4301,-2.4596,-2.4296,-2.4478,-2.5183,-2.4563,-2.442,-2.4723,-2.4189,-2.4019,-2.4133,-2.4109,-2.4319,-2.4666,-2.4771,-2.4987,-2.5264,-2.5274,-2.536,-2.5484,-2.5404,-2.5412,-2.5511,-2.5476,-2.548,-2.5478,-2.5486,-2.5523,-2.5479,-2.4929,-2.4346,-2.3853,-2.3869,-2.4307,-2.4749,-2.4729,-2.5117,-2.5556,-2.5512,-2.5531,-2.5523,-2.5473,-2.5486,-2.5492,-2.5439,-2.5453,-2.5286,-2.4696,-2.3941,-2.2759,-2.073,-2.1099,-2.1128,-1.9474,-1.9951,-2.0516,-2.0527,-2.0566,-2.0604,-2.0597,-2.0594,-2.0243,-1.9368,-1.8491,-1.7632,-1.6753,-1.5872,-1.5147,-1.4559,-1.4267,-1.3584,-1.2472,-1.2156,-1.1282,-0.9844,0.0,0.0,0.0,0.0,0.0,0.0,0.0,0.0,0.0,0.0,0.0,0.0,0.0,0.0,0.0,0.0,0.0,0.0,0.0,0.0,0.0,0.0,0.0,-1.8126,-1.9094,-1.9985,-2.0539,-2.2424,-2.3161,-2.1789,-2.318,-2.4173,-2.4173,-2.4357,-2.4501,-2.4519,-2.4519,-2.4783,-2.5404,-2.5421,-2.5625,-2.6116,-2.6098,-2.6003,-2.5825,-2.5165,-2.4838,-2.4843,-2.4363,-2.4191,-2.4266,-2.4497,-2.4764,-2.4994,-2.5006,-2.5198,-2.5484,-2.5503,-2.5511,-2.5484,-2.5423,-2.5401,-2.5403,-2.548,-2.5498,-2.5498,-2.5498,-2.5498,-2.5486,-2.5418,-2.5441,-2.5495,-2.5495,-2.549,-2.5499,-2.5493,-2.554,-2.5556,-2.5418,-2.5446,-2.546,-2.5331,-2.5348,-2.5382,-2.5303,-2.471,-2.3952,-2.3093,-2.2278,-2.1741,-2.1799,-2.1048,0.0,-2.0598,-2.0601,-2.0601,-2.0601,-2.0597,-2.0261,-1.9401,-1.8524,-1.7645,-1.6785,-1.5908,-1.54,-1.5355,-1.4559,-1.4091,-1.4069,-1.3225,-1.2387,-1.1532,0.0,0.0,0.0,0.0,0.0,0.0,0.0,0.0,0.0,0.0,0.0,0.0,0.0,0.0,0.0,0.0,0.0,0.0,0.0,0.0,0.0,0.0,-1.9699,-1.9507,-2.0741,-2.1941,-2.2659,-2.3307,-2.3523,-2.3091,-2.3473,-2.3725,-2.3682,-2.3816,-2.4174,-2.4754,-2.479,-2.5132,-2.5882,-2.5768,-2.5978,-2.6605,-2.6071,-2.6019,-2.6374,-2.596,-2.5778,-2.5805,-2.5364,-2.5282,-2.5402,-2.4945,-2.4874,-2.5082,-2.5122,-2.5201,-2.5284,-2.5395,-2.544,-2.5432,-2.541,-2.5422,-2.5485,-2.5486,-2.5473,-2.5425,-2.5425,-2.5387,-2.5357,-2.5398,-2.5441,-2.5488,-2.5374,-2.5382,-2.5418,-2.5378,-2.5367,-2.5365,-2.534,-2.533,-2.5339,-2.5322,-2.5313,-2.5322,-2.5293,-2.5139,-2.475,-2.3901,-2.3068,-2.2311,-2.1739,-2.0944,0.0,-2.0455,-2.0551,-2.0596,-2.0596,-2.0594,-2.0494,-2.0256,-1.8851,-1.7893,-1.7657,-1.6233,-1.5119,-1.4472,-1.4238,-1.3809,-1.3162,-1.2917,-1.2687,0.0,0.0,0.0,0.0,0.0,0.0,0.0,0.0,0.0,0.0,0.0,0.0,0.0,0.0,0.0,0.0,0.0,0.0,0.0,0.0,0.0,0.0,-1.9395,-2.0993,-2.1128,-2.202,-2.2914,-2.3486,-2.3607,-2.3607,-2.3562,-2.3916,-2.4136,-2.4073,-2.4522,-2.499,-2.5457,-2.5493,-2.5832,-2.6591,-2.6494,-2.6693,-2.7295,-2.688,-2.6798,-2.7063,-2.6623,-2.6408,-2.644,-2.6012,-2.5923,-2.608,-2.54,-2.525,-2.55,-2.5227,-2.5157,0.0,0.0,0.0,0.0,0.0,-2.5339,-2.5376,-2.5414,-2.5398,-2.5357,-2.5357,-2.5331,-2.5293,-2.5303,-2.535,-2.5359,-2.5313,-2.5331,-2.534,-2.5303,-2.5332,-2.5321,-2.5313,-2.5322,-2.534,-2.5313,-2.5322,-2.534,-2.5313,-2.5322,0.0,-2.4687,-2.3907,-2.3067,-2.2262,-2.144,-2.0787,-2.0434,-2.0474,-2.0531,-2.056,-2.056,-2.0579,-2.0605,-1.9335,0.0,0.0,0.0,-1.5387,-1.4157,-1.4097,0.0,0.0,0.0,0.0,0.0,0.0,0.0,0.0,-1.3393,-1.3748,0.0,0.0,0.0,0.0,0.0,0.0,0.0,0.0,0.0,0.0,0.0,0.0,0.0,0.0,0.0,0.0,-2.0611,-2.1909,-2.2548,-2.2884,-2.3168,-2.343,-2.3517,-2.3552,-2.3642,-2.4405,-2.4928,-2.4995,-2.5764,-2.6291,-2.6359,0.0,0.0,0.0,0.0,-2.7531,-2.7911,-2.7911,-2.7806,-2.7624,-2.7159,-2.6924,-2.6933,-2.6469,-2.6372,-2.6498,-2.5866,-2.5818,-2.6095,-2.5385,-2.5114,-2.5179,-2.5182,-2.5241,-2.5292,-2.5233,-2.5209,-2.5225,-2.5273,0.0,0.0,-2.5293,-2.5293,-2.5283,-2.5209,-2.5209,-2.5222,-2.5282,-2.5312,-2.5303,-2.5303,-2.533,-2.5374,-2.5313,-2.5359,-2.5374,-2.5303,-2.5359,-2.5374,-2.5303,-2.5359,-2.5374,-2.5303,-2.463,-2.3857,-2.3141,-2.2223,-2.1345,-2.0633,-2.0454,-2.0413,-2.0467,0.0,0.0,-2.0555,-1.977,-1.8949,-1.8169,-1.7309,-1.6135,-1.4574,-1.4515,-1.4883,-1.5657,-1.5684,-1.6444,-1.7994,-1.7997,-1.8059,-1.8081,-1.5653,-1.5427,0.0,0.0,0.0,0.0,0.0,0.0,0.0,0.0,0.0,0.0,0.0,0.0,0.0,0.0,0.0,-1.9613,-2.1078,-2.2133,-2.2286,-2.2563,-2.291,-2.323,-2.3504,-2.3903,-2.4479,-2.47,-2.504,-2.5582,-2.5786,-2.6186,-2.6831,-2.6849,-2.7094,-2.76,-2.7617,-2.7543,-2.7369,-2.7338,-2.7338,-2.7307,0.0,0.0,-2.7751,-2.7452,-2.7323,-2.7314,-2.6603,-2.6381,-2.6466,-2.5869,-2.5416,-2.5057,-2.5153,-2.5212,-2.5215,-2.5264,-2.5283,-2.5283,-2.5303,-2.5303,-2.5293,-2.5228,-2.5217,-2.5209,-2.5198,-2.525,0.0,-2.5311,-2.5312,-2.5303,-2.5303,-2.5303,-2.5313,-2.5293,-2.5303,-2.5313,-2.5293,-2.5303,-2.5313,-2.5293,-2.5303,-2.5313,-2.5313,-2.462,-2.4061,-2.3897,-2.2566,-2.1539,-2.1385,-2.0795,-2.0381,-2.0342,-2.0337,-2.0337,-2.0351,-1.9609,-1.9037,-1.8827,-1.8047,-1.7442,-1.7108,-1.7131,-1.7213,-1.734,-1.7442,-1.7634,-1.7909,-1.7965,-1.8334,-1.8941,-1.7777,-1.7779,0.0,0.0,0.0,0.0,0.0,0.0,0.0,0.0,0.0,0.0,0.0,-1.7483,-1.8251,0.0,-2.0013,-2.0738,-2.1541,-2.2173,-2.2501,-2.2474,-2.2563,-2.2917,-2.3383,-2.3844,-2.4198,-2.4954,-2.5542,-2.5865,-2.6425,-2.6841,-2.7087,-2.7264,-2.7384,-2.7444,-2.7461,-2.7369,-2.7213,-2.7213,-2.7213,-2.7213,-2.7474,-2.7683,-2.784,-2.77,-2.7803,-2.8009,-2.7235,-2.7009,-2.7111,-2.6486,-2.6114,-2.5874,-2.5529,-2.5297,-2.5164,-2.5239,-2.525,-2.525,-2.525,-2.525,-2.5239,-2.5214,-2.5203,-2.5195,-2.5206,-2.5209,-2.525,-2.5252,-2.5273,-2.5312,-2.5312,-2.5293,-2.5303,-2.5303,-2.5303,-2.5303,-2.5303,-2.5303,-2.5303,-2.5303,-2.5303,-2.5303,-2.5293,-2.4966,-2.4553,-2.4168,-2.3011,-2.2045,-2.1606,-2.0827,-2.0302,-2.0308,-2.0302,-2.0302,-2.0307,-1.9521,-1.9045,-1.8994,-1.8235,-1.7804,-1.7804,-1.7838,-1.8047,-1.844,-1.8511,-1.8772,-1.9204,-1.9221,-1.9464,-1.9837,-1.9445,-1.9464,0.0,0.0,0.0,0.0,0.0,0.0,0.0,0.0,-1.6348,-1.744,-1.8626,-1.9664,-2.0344,-2.0927,-2.1482,-2.2126,-2.2272,-2.2518,-2.3023,-2.2655,-2.2429,-2.2696,-2.3182,-2.3615,-2.3898,-2.5062,-2.5906,-2.6169,-2.7078,-2.7474,-2.7213,-2.7461,-2.7461,-2.7117,-2.7117,-2.7053,-2.6989,-2.6989,-2.6989,-2.6989,-2.7036,-2.7227,-2.7504,-2.7565,-2.7829,-2.8228,-2.7627,-2.7501,-2.761,-2.708,-2.6853,-2.6728,-2.608,-2.5576,-2.5181,-2.5108,-2.5088,-2.5088,-2.5088,-2.5113,-2.5137,-2.5125,-2.5168,-2.5203,-2.5172,-2.5164,-2.5164,-2.5126,-2.5179,-2.525,-2.525,-2.5262,-2.5274,-2.5303,-2.5303,-2.5303,-2.5303,-2.5264,-2.5253,-2.5293,-2.5243,-2.5212,-2.525,-2.5209,-2.499,-2.4409,-2.3573,-2.2767,-2.2067,-2.1079,-2.0463,-2.0508,-2.0358,-2.0258,-2.0263,-1.9625,-1.9207,-1.9207,-1.8603,-1.8256,-1.8268,-1.8268,-1.8589,-1.9303,-1.9347,-1.9701,-2.0445,-2.049,-2.0497,-2.049,-2.0672,-2.0753,-1.2315,-1.2977,-1.3513,-1.4788,-1.4779,-1.5397,0.0,0.0,-1.9218,-2.0817,-2.1259,-2.1635,-2.2424,-2.2623,-2.2922,-2.3636,-2.3752,-2.3785,-2.3868,-2.327,-2.2789,-2.2775,-2.2802,-2.3288,-2.4562,-2.4895,-2.5532,-2.6794,-2.7112,-2.7244,-2.7213,-2.7244,-2.7117,-2.6758,-2.6758,-2.6556,-2.6154,-2.6118,-2.6118,-2.6154,-2.6454,-2.6657,-2.6825,-2.7117,-2.7276,-2.7352,-2.7625,-2.7656,-2.751,-2.7506,-2.7224,-2.6784,-2.6692,-2.6209,-2.5478,-2.4867,-2.4685,-2.4753,-2.4685,-2.479,-2.4929,-2.485,-2.5006,-2.5184,-2.5057,-2.5013,-2.4994,-2.4888,-2.4942,-2.5031,-2.5031,-2.5115,-2.5222,-2.5292,-2.5292,-2.5302,-2.5303,-2.5163,-2.5088,-2.5271,-2.5063,-2.4902,-2.5006,-2.4929,-2.4904,-2.5056,-2.4387,-2.3802,-2.3637,-2.2259,-2.1283,-2.1273,-2.0575,-2.0116,-2.0125,-2.003,-1.9991,-1.9991,-1.9887,-1.9865,-1.9927,-1.9927,-1.9973,-2.0077,-2.0189,-2.0253,-2.0234,-2.0405,-2.0464,-2.0428,-2.1262,-2.165,-1.4798,-1.557,-1.5854,0.0,-1.6998,-1.7497,-1.9496,-1.9828,-2.0162,-2.1982,-2.2297,-2.2341,-2.2573,-2.2949,-2.3078,0.0,-2.3424,-2.405,-2.4172,-2.3408,-2.2961,-2.3293,-2.2615,-2.2689,-2.4123,-2.4691,-2.5412,-2.6454,-2.6758,-2.6825,-2.6623,-2.6808,-2.6775,-2.6417,-2.6747,-2.6836,-2.6652,-2.6989,-2.6934,-2.6524,-2.673,-2.6749,-2.659,-2.6808,-2.7021,-2.7213,-2.7413,-2.7473,-2.7467,-2.7566,-2.7564,-2.7501,-2.7071,-2.6822,-2.6578,-2.5614,-2.4951,-2.4572,-2.4556,-2.462,-2.4712,-2.4697,-2.479,-2.4893,-2.4837,-2.4879,-2.4929,-2.4874,-2.4981,-2.5099,-2.5013,-2.505,-2.5068,-2.5019,-2.5013,-2.5006,-2.5019,-2.4949,-2.491,-2.4994,-2.4902,-2.4832,-2.4974,-2.4861,-2.4847,-2.5153,-2.4435,-2.3816,-2.3793,-2.2789,-2.1923,-2.1445,-2.1082,-2.0652,-2.0127,-2.0088,-2.0088,-2.0088,-2.0088,-2.0107,-2.0133,-2.0133,-2.0159,-2.0208,-2.0255,-2.0283,-2.0255,-2.0344,-2.0623,-2.1099,-2.1496,-2.22,-1.5982,-1.6916,0.0,-1.782,-1.8352,-1.8952,-1.9667,-2.0081,-2.0713,-2.2199,-2.2428,-2.2323,-2.226,-2.2647,-2.2815,-2.2374,-2.3211,-2.4035,-2.4367,-2.3439,-2.2881,-2.328,-2.2151,-2.1923,-2.3335,-2.4244,-2.5089,-2.6066,-2.6382,-2.64,-2.6132,-2.6347,-2.6465,-2.6396,-2.6796,-2.712,-2.7312,-2.7765,-2.7709,-2.7185,-2.706,-2.6875,-2.6599,-2.6536,-2.6725,-2.7053,-2.7115,-2.7241,-2.7426,-2.7487,-2.7725,-2.7939,-2.7405,-2.7201,-2.7132,-2.6332,-2.5486,-2.4669,-2.441,-2.4424,-2.451,-2.451,-2.4594,-2.4657,-2.4626,-2.4685,-2.4756,-2.4731,-2.4847,-2.4955,-2.4847,-2.4893,-2.4888,-2.4804,-2.4775,-2.479,-2.4804,-2.476,-2.4731,-2.4775,-2.47,-2.467,-2.4804,-2.4685,-2.4639,-2.4898,-2.4336,-2.3952,-2.4087,-2.3435,-2.2639,-2.1827,-2.1541,-2.1139,-2.0518,-2.0251,-2.0088,-2.0088,-2.0108,-2.0117,-2.0134,-2.0117,-2.0134,-2.0208,-2.0208,-2.0204,-2.0241,-2.0514,-2.0965,-2.1589,-2.2067,-2.2944,-1.4732,0.0,-1.6968,-1.7164,-1.8073,-1.9211,-2.0497,-2.0871,-2.1126,-2.1619,-2.1581,-2.151,-2.1774,-2.1824,-2.2283,-2.3628,-2.3759,-2.3934,-2.4587,-2.3427,-2.2508,-2.2443,-2.1323,-2.1027,0.0,-2.3412,-2.4562,-2.5819,-2.599,-2.599,-2.5917,-2.5934,-2.6229,-2.6864,-2.6913,-2.7196,-2.7883,-2.7899,-2.7899,-2.7867,-2.7166,-2.683,-2.6864,-2.6286,-2.6295,-2.6725,-2.6725,-2.7004,-2.7378,-2.7409,-2.7517,-2.7713,-2.7695,-2.7192,-2.6581,-2.6846,-2.6195,-2.5053,-2.421,-2.4096,-2.4303,-2.4303,-2.4444,-2.4591,-2.4441,-2.4407,-2.4391,-2.4266,-2.4321,-2.4424,-2.4424,-2.4559,-2.4704,-2.4697,-2.4697,-2.4712,-2.479,-2.4639,-2.4561,-2.4666,-2.4444,-2.4266,-2.4408,-2.4303,-2.4209,-2.4228,-2.432,-2.4567,-2.5087,-2.4396,-2.3537,-2.2658,-2.1866,-2.1388,-2.1369,-2.0595,-2.0088,-2.0088,-2.0108,-2.0126,-2.018,-2.0135,-2.0126,-2.0208,-2.0208,-2.0167,-2.0098,-2.1082,-2.1543,-2.1543,-2.3242,-2.4045,-1.5215,0.0,-1.6573,-1.7376,-1.799,-1.8638,-1.9681,-2.0079,-2.0442,-2.1301,-2.1377,-2.1272,-2.1285,-2.1615,-2.2017,-2.2197,-2.3026,-2.3733,-2.4039,-2.3551,-2.3134,-2.294,-2.2236,0.0,0.0,0.0,0.0,-2.5325,-2.5476,-2.5589,-2.5881,-2.5897,-2.6208,-2.6896,-2.7343,-2.7867,-2.8542,-2.8988,-2.8962,-2.8475,-2.7843,-2.732,-2.6913,-2.6775,-2.6545,-2.6243,-2.64,-2.6521,-2.6674,-2.6775,-2.6989,-2.7307,-2.7307,-2.7304,-2.7245,-2.6803,-2.6428,-2.5946,-2.4956,-2.4717,-2.473,-2.422,-2.4115,-2.4192,-2.4192,-2.4266,-2.4318,-2.432,-2.4459,-2.4578,-2.4424,-2.4441,-2.4476,-2.4374,-2.4375,-2.4375,-2.441,-2.4339,-2.4303,-2.4357,-2.4284,-2.4247,-2.4391,-2.4284,-2.4247,-2.4321,-2.4373,-2.4508,-2.4842,-2.4611,-2.4101,-2.3218,-2.2879,-2.254,-2.2095,-2.1259,-2.0798,-2.089,-2.0899,-2.068,-2.0155,-2.0623,-2.0671,-2.0143,-2.0699,-2.0996,-2.0958,-2.1847,-2.2547,-2.3111,-2.3697,-2.4273,-1.5617,-1.6051,-1.6376,-1.7771,-1.8253,-1.8645,-1.9557,-1.9836,-2.0039,-2.0609,-2.0552,-2.0333,-2.0236,-2.0512,-2.088,-2.1325,-2.2169,-2.293,-2.3447,-2.3194,-2.2935,-2.2772,-2.2303,-2.2191,0.0,0.0,0.0,-2.4808,-2.4887,-2.5132,-2.5637,-2.5654,-2.6086,-2.6974,-2.7612,-2.8249,-2.8941,-2.9572,-2.9545,-2.8773,-2.8236,-2.7705,-2.7306,-2.7098,-2.6813,-2.6478,-2.6322,-2.6277,-2.6295,-2.6382,-2.6589,-2.6875,-2.6908,-2.7103,-2.7238,-2.6904,-2.6742,-2.6603,-2.5636,-2.5131,-2.487,-2.4454,-2.4153,-2.3976,-2.4036,-2.4135,-2.4211,-2.4266,-2.4392,-2.4461,-2.4356,-2.4338,-2.4321,-2.4228,-2.419,-2.419,-2.419,-2.419,-2.419,-2.419,-2.419,-2.4228,-2.4302,-2.4266,-2.4247,-2.4321,-2.4338,-2.4426,-2.4676,-2.4734,-2.4557,-2.3992,-2.3714,-2.3404,-2.298,-2.2133,-2.1673,-2.1748,-2.1736,-2.1496,-2.1004,-2.1499,-2.1518,-2.0996,-2.1531,-2.1827,-2.1827,-2.2658,-2.3346,-2.3919,-2.4224,-2.4664,-1.5792,-1.6049,-1.6451,-1.8134,-1.8701,-1.9118,-1.9972,-2.0016,-1.9765,-1.9498,-1.9102,-1.875,-1.8693,0.0,-1.9089,-2.099,-2.1222,-2.1622,-2.2907,-2.2542,-2.2091,0.0,0.0,0.0,0.0,0.0,0.0,-2.4328,0.0,-2.4663,-2.5229,-2.5259,-2.5859,-2.7133,-2.7701,-2.8318,-2.9074,-2.956,-2.9475,-2.8753,-2.8271,-2.8019,-2.8003,-2.7267,-2.7092,-2.723,-2.6518,-2.6222,-2.6295,-2.6295,-2.6382,-2.6485,-2.6554,-2.6589,-2.664,-2.7038,-2.7181,-2.7037,-2.617,-2.5369,-2.4741,-2.5,-2.4544,-2.393,-2.3976,-2.3996,-2.3996,-2.4074,-2.4094,-2.4113,-2.417,-2.419,-2.4208,-2.419,-2.419,-2.419,-2.419,-2.419,-2.419,-2.419,-2.419,-2.419,-2.419,-2.4208,-2.419,-2.419,-2.419,-2.4303,-2.4629,-2.4794,-2.4855,-2.4855,-2.4296,-2.3912,-2.3923,-2.3119,-2.2642,-2.2637,-2.2578,-2.2578,-2.259,-2.2642,-2.2642,-2.2601,-2.2639,-2.2677,-2.2677,-2.3537,-2.3976,-2.3995,-2.4809,-2.5191,-1.5707,-1.6173,-1.6676,-1.7633,-1.7569,-1.7476,-1.8215,-1.797,-1.7618,-1.7593,-1.7477,-1.7293,-1.6801,0.0,0.0,-1.9435,-2.0433,0.0,-2.2759,-2.3314,0.0,-2.3458,0.0,-2.4043,-2.4094,-2.4109,0.0,0.0,-2.4627,-2.494,-2.5922,-2.5952,-2.6336,-2.7149,-2.7257,-2.7643,-2.848,-2.8638,-2.8592,-2.842,-2.8714,-2.8532,-2.7992,-2.7753,-2.7392,-2.6972,-2.6339,-2.6115,-2.6239,-2.6239,-2.6293,-2.6347,-2.6365,-2.6434,-2.6554,-2.6708,-2.6759,-2.6774,-2.6826,-2.6481,-2.5861,-2.4991,-2.445,-2.4093,-2.3973,-2.3795,-2.3692,-2.3937,-2.4016,-2.4036,-2.4113,-2.4132,-2.4151,-2.419,-2.419,-2.419,-2.419,-2.419,-2.419,-2.419,-2.419,-2.419,-2.419,-2.417,-2.4132,-2.4132,-2.4132,-2.4171,-2.4303,-2.4375,-2.4375,-2.4375,-2.4189,-2.4092,-2.4188,-2.3393,-2.2989,-2.3251,-2.3243,-2.3063,-2.2631,-2.3191,-2.3202,-2.262,-2.325,-2.3575,-2.3575,-2.4435,-2.4866,-2.4866,-2.5096,-2.5191,-1.6336,-1.6738,-1.7134,-1.7915,-1.7716,-1.7327,-1.7488,-1.7276,-1.6805,-1.6064,-1.5964,0.0,-1.5249,-1.6303,0.0,0.0,0.0,0.0,-2.2381,-2.3172,-2.3593,0.0,-2.3879,0.0,-2.4047,-2.3997,-2.421,0.0,-2.4646,-2.5003,-2.5893,-2.586,-2.6158,-2.6783,-2.6946,-2.7406,-2.8176,-2.8046,-2.8046,-2.8288,-2.8352,-2.8341,-2.8185,-2.7549,-2.716,-2.7008,0.0,-2.5828,-2.6115,-2.6115,-2.6187,-2.6241,-2.6295,-2.6347,-2.6434,-2.652,-2.6554,-2.6572,-2.6859,-2.6747,-2.6398,-2.5702,-2.5095,-2.4602,-2.4306,-2.41,-2.3965,-2.3946,-2.3955,-2.3976,-2.4036,-2.4054,-2.4074,-2.4094,-2.4113,-2.4113,-2.4113,-2.4113,-2.4113,-2.4113,-2.4113,-2.4113,-2.4113,-2.4074,-2.4054,-2.4054,-2.4054,-2.4074,-2.4094,-2.4191,-2.4248,-2.4248,-2.4248,-2.432,-2.4422,-2.3964,-2.3754,-2.3975,-2.393,-2.3798,-2.3563,-2.3999,-2.4087,-2.3747,-2.4224,-2.4473,-2.4473,-2.4962,-2.5191,-2.5191,-2.5191,-2.5191,-1.7014,-1.7375,-1.7693,-1.8519,-1.8282,-1.7709,-1.7217,-1.699,-1.6373,-1.4712,0.0,-1.4394,-1.3794,-1.492,-1.6255,-1.727,0.0,-2.0865,-2.1744,-2.2465,-2.293,-2.3013,-2.3139,-2.3218,-2.3218,-2.3218,-2.3647,-2.4729,-2.4713,-2.4977,-2.5667,-2.5592,-2.5783,-2.6258,-2.6774,-2.7312,-2.7883,-2.7565,-2.7615,-2.811,-2.77,-2.7815,-2.8321,-2.6979,-2.6654,-2.7137,-2.5759,0.0,-2.5901,-2.5974,-2.6063,-2.6168,-2.6277,-2.6295,-2.6295,-2.6434,-2.6485,-2.6485,-2.6554,-2.6572,-2.6573,-2.6467,-2.5928,-2.5257,-2.4711,-2.452,-2.4408,-2.3923,-2.3795,-2.3834,-2.3917,-2.3937,-2.3937,-2.3996,-2.3996,-2.3996,-2.3996,-2.3996,-2.3996,-2.3996,-2.3996,-2.3996,-2.3996,-2.3996,-2.3996,-2.3996,-2.3996,-2.3996,-2.3996,-2.4136,-2.4265,-2.4265,-2.4353,-2.4439,-2.4491,-2.4442,-2.4442,-2.4543,-2.4424,-2.4472,-2.4747,-2.4771,-2.4893,-2.5132,-2.5156,-2.5168,-2.5168,-2.518,-2.5191,-2.5191,-2.5191,-2.5191,-1.6466,-1.7306,-1.8035,-1.8182,-1.7543,-1.67,-1.6254,-1.5274,0.0,0.0,-1.296,-1.2605,-1.1762,-1.3229,0.0,-1.5885,0.0,0.0,0.0,0.0,-2.2481,0.0,0.0,0.0,0.0,0.0,0.0,0.0,0.0,-2.5422,-2.6115,-2.6183,-2.6172,-2.6286,-2.6525,-2.6654,-2.6797,-2.6855,-2.6974,-2.7063,-2.7378,-2.7565,-2.762,-2.675,-2.639,-2.6489,-2.5519,0.0,-2.5384,-2.5828,-2.6026,-2.6063,-2.6151,-2.6203,-2.6239,-2.6312,-2.633,-2.6347,-2.6468,-2.6554,-2.6539,-2.621,-2.5836,-2.5384,-2.4531,-2.4095,-2.3832,-2.3351,-2.3236,-2.3289,-2.354,-2.3588,-2.3671,-2.3937,-2.3996,-2.3996,-2.3996,-2.3996,-2.3996,-2.3996,-2.3996,-2.3996,-2.3996,-2.3937,-2.3917,-2.3917,-2.3917,-2.3917,-2.3917,-2.3998,-2.4057,-2.4057,-2.4019,-2.4019,-2.4019,-2.3959,-2.4001,-2.4174,-2.4155,-2.4265,-2.4554,-2.4554,-2.462,-2.4783,-2.4893,-2.4942,-2.4942,-2.5113,-2.5191,-2.5191,-2.5191,-2.5191,-1.6763,-1.7534,-1.8027,-1.7806,-1.7174,-1.629,-1.4993,0.0,0.0,0.0,-1.1658,-1.1481,-1.0621,0.0,0.0,0.0,0.0,0.0,0.0,0.0,0.0,0.0,0.0,0.0,0.0,0.0,0.0,0.0,0.0,-2.4768,-2.6111,-2.6233,-2.6165,-2.6111,-2.6272,-2.6379,-2.6379,-2.6539,-2.6712,-2.6779,-2.7011,-2.7152,-2.7108,-2.6039,-2.5694,-2.5864,-2.4798,0.0,-2.5169,-2.5438,-2.5717,-2.5954,-2.6079,-2.6115,-2.6115,-2.6222,-2.6258,-2.6258,-2.6347,-2.6417,-2.6436,-2.6335,-2.6249,-2.5976,-2.4879,-2.4469,-2.4199,-2.335,-2.3091,-2.3116,-2.3265,-2.3289,-2.3335,-2.3491,-2.3642,-2.3771,-2.3876,-2.3896,-2.3896,-2.3896,-2.3896,-2.3896,-2.3896,-2.3876,-2.3855,-2.3855,-2.3855,-2.3855,-2.3855,-2.3876,-2.3917,-2.3937,-2.3896,-2.3858,-2.3896,-2.3837,-2.3858,-2.3979,-2.3959,-2.4079,-2.4391,-2.4391,-2.4476,-2.4707,-2.4764,-2.4808,-2.4808,-2.4961,-2.5044,-2.5044,-2.5156,-2.5191,-1.6897,-1.7562,-1.7886,-1.7473,-1.7002,-1.6095,-1.4052,-1.3412,0.0,0.0,-1.0553,-1.0583,-0.9929,0.0,-1.302,0.0,0.0,0.0,0.0,0.0,0.0,0.0,0.0,0.0,0.0,0.0,0.0,0.0,0.0,0.0,-2.5825,-2.5893,-2.5893,-2.6002,-2.6165,-2.6286,-2.6286,-2.6418,-2.6539,-2.6674,-2.6674,-2.6727,-2.6669,-2.5408,-2.5043,-2.5292,-2.4119,0.0,0.0,-2.4879,-2.5246,-2.5733,-2.5791,-2.5901,-2.6026,-2.6115,-2.6168,-2.6203,-2.6241,-2.6295,-2.633,-2.6486,-2.6471,-2.625,-2.5141,-2.47,-2.4345,-2.3241,-2.2935,-2.2935,-2.301,-2.301,-2.3035,-2.3109,-2.3253,-2.3463,-2.3689,-2.3732,-2.3753,-2.3795,-2.3795,-2.3795,-2.3795,-2.3795,-2.3795,-2.3795,-2.3795,-2.3795,-2.3795,-2.3795,-2.3816,-2.3876,-2.3837,-2.3816,-2.3858,-2.3816,-2.3816,-2.3876,-2.3816,-2.3919,-2.4229,-2.4229,-2.4357,-2.4596,-2.461,-2.4626,-2.4626,-2.4818,-2.4902,-2.4902,-2.5113,-2.5191,-1.621,-1.7036,-1.7427,-1.7392,-1.7002,-1.6095,-1.4052,0.0,0.0,-1.0295,-0.9829,-0.9692,-0.9487,-1.0144,-1.1182,-1.2584,-1.344,-1.4713,0.0,0.0,0.0,0.0,0.0,0.0,0.0,0.0,0.0,0.0,0.0,0.0,-2.5231,-2.516,-2.5453,-2.6233,-2.6179,-2.6179,-2.6286,-2.6326,-2.634,-2.634,-2.634,-2.6433,-2.6467,-2.5214,-2.4722,-2.481,-2.3955,0.0,0.0,-2.4282,-2.4744,-2.5185,-2.523,-2.5589,-2.601,-2.6026,-2.6115,-2.622,-2.6203,-2.6258,-2.6295,-2.633,-2.5983,-2.5478,-2.476,-2.4079,-2.3384,-2.257,-2.2377,-2.2432,-2.2685,-2.2738,-2.2799,-2.306,-2.3116,-2.3206,-2.3463,-2.3526,-2.3576,-2.3753,-2.3795,-2.3795,-2.3795,-2.3795,-2.3795,-2.3795,-2.3795,-2.3795,-2.3795,-2.3795,-2.3795,-2.3816,-2.3795,-2.3795,-2.3816,-2.3795,-2.3795,-2.3816,-2.3795,-2.3876,-2.4016,-2.4036,-2.4113,-2.4247,-2.4374,-2.4424,-2.4424,-2.4741,-2.4902,-2.4902,-2.5113,-2.5191,-1.5863,-1.6642,-1.6965,-1.6566,-1.6348,-1.5579,-1.3276,0.0,-1.1733,-0.9956,-0.9497,-0.942,-0.9446,-1.014,-1.0985,-1.1825,-1.2497,-1.3574,-1.5358,0.0,0.0,0.0,0.0,0.0,0.0,0.0,0.0,0.0,0.0,0.0,-2.4008,-2.4394,-2.4694,-2.4894,-2.5356,-2.5591,-2.5646,-2.5988,-2.6233,-2.6286,-2.6286,-2.634,-2.6336,-2.5149,-2.4624,-2.4615,-2.3622,0.0,0.0,-2.3837,-2.4188,-2.4655,-2.5013,-2.5285,-2.5513,-2.5864,-2.6026,-2.6079,-2.6168,-2.6203,-2.6175,-2.5779,-2.5213,-2.4627,-2.4469,-2.3924,-2.3182,-2.2485,-2.231,-2.2338,-2.2432,-2.246,-2.2542,-2.2799,-2.2876,-2.2935,-2.3206,-2.3253,-2.3283,-2.3359,-2.3513,-2.362,-2.362,-2.371,-2.3795,-2.3795,-2.3795,-2.3795,-2.3795,-2.3795,-2.3795,-2.3795,-2.3795,-2.3795,-2.3795,-2.3795,-2.3795,-2.3795,-2.3795,-2.3876,-2.3996,-2.3996,-2.4074,-2.4208,-2.4247,-2.4284,-2.4284,-2.4626,-2.4779,-2.4794,-2.5076,-2.5156,-1.5464,-1.623,-1.6483,-1.6028,-1.5833,-1.5096,0.0,-1.2081,-1.1455,-0.9746,-0.9354,-0.9366,-0.9485,-1.0044,-1.0666,-1.1265,-1.1902,-1.2889,-1.4435,0.0,0.0,0.0,0.0,0.0,0.0,0.0,0.0,0.0,0.0,0.0,-2.298,-2.3399,-2.3813,-2.4092,-2.461,-2.4838,-2.4838,-2.5481,-2.5839,-2.5893,-2.6111,-2.6233,-2.619,-2.5012,-2.4525,-2.4531,-2.336,0.0,0.0,-2.3392,-2.3653,-2.412,-2.4517,-2.4759,-2.4958,-2.5513,-2.5775,-2.5864,-2.6043,-2.6132,-2.612,-2.5592,-2.4813,-2.4098,-2.4258,-2.365,-2.2836,-2.2343,-2.2237,-2.2282,-2.2282,-2.231,-2.2366,-2.2542,-2.2579,-2.2659,-2.291,-2.2985,-2.301,-2.3067,-2.3253,-2.3412,-2.3481,-2.362,-2.3732,-2.3795,-2.3795,-2.3795,-2.3795,-2.3795,-2.3795,-2.3795,-2.3795,-2.3795,-2.3795,-2.3795,-2.3795,-2.3795,-2.3795,-2.3876,-2.3996,-2.3996,-2.4074,-2.4208,-2.419,-2.419,-2.419,-2.4479,-2.461,-2.4626,-2.4912,-2.5006,-1.4944,-1.5695,-1.6079,-1.5913,-1.5591,-1.4778,-1.2684,-1.1885,-1.1199,-0.9702,-0.9408,-0.9408,-0.9485,-0.9497,-0.99,-1.101,-1.1596,-1.2549,-1.4356,0.0,0.0,0.0,0.0,0.0,0.0,0.0,0.0,0.0,0.0,0.0,-2.2197,-2.2185,-2.2836,-2.4234,-2.4092,-2.4021,-2.4021,-2.4694,-2.5005,-2.5005,-2.5619,-2.5948,-2.6068,-2.4793,-2.4291,0.0,0.0,0.0,0.0,-2.2857,-2.3187,-2.3595,-2.3595,-2.3948,-2.4471,-2.4918,-2.5246,-2.5443,-2.5807,-2.6043,-2.6168,-2.6026,-2.5073,-2.4,-2.4081,-2.3126,-2.1998,-2.1998,-2.2106,-2.2214,-2.2282,-2.231,-2.231,-2.231,-2.231,-2.2394,-2.2632,-2.2712,-2.2773,-2.306,-2.3091,-2.3206,-2.344,-2.3504,-2.3576,-2.3774,-2.3795,-2.3795,-2.3795,-2.3795,-2.3795,-2.3795,-2.3795,-2.3795,-2.3795,-2.3795,-2.3795,-2.3795,-2.3795,-2.3876,-2.3996,-2.3996,-2.4074,-2.4208,-2.419,-2.419,-2.419,-2.4338,-2.4407,-2.4407,-2.461,-2.4734,-1.3205,-1.3764,-1.407,-1.3574,-1.3633,-1.3369,-1.1673,-1.146,-1.1199,-0.9754,-0.9446,-0.9408,-0.9485,-0.9497,-0.998,-1.1495,-1.1838,-1.2503,0.0,0.0,0.0,0.0,0.0,0.0,0.0,0.0,0.0,0.0,0.0,0.0,-2.2197,-2.1849,-2.2055,-2.2823,-2.322,-2.3374,-2.3374,-2.4465,-2.5005,-2.5005,-2.5619,-2.5893,-2.5906,-2.4742,-2.4226,0.0,0.0,0.0,0.0,-2.2841,-2.2947,-2.3142,-2.3465,-2.3724,-2.3964,-2.4799,-2.513,-2.5246,-2.5733,-2.5625,-2.532,-2.5269,-2.4331,-2.3238,-2.327,-2.2635,-2.194,-2.1998,-2.2106,-2.2214,-2.2242,-2.2271,-2.231,-2.231,-2.231,-2.2338,-2.2405,-2.2432,-2.246,-2.2525,-2.2694,-2.285,-2.2952,-2.3271,-2.3463,-2.3353,-2.3468,-2.3531,-2.3353,-2.3468,-2.3598,-2.3598,-2.371,-2.3795,-2.3795,-2.3795,-2.3795,-2.3795,-2.3795,-2.3837,-2.3917,-2.3976,-2.4036,-2.4132,-2.417,-2.419,-2.419,-2.432,-2.4476,-2.461,-2.4719,-2.4832,-1.1906,-1.2591,-1.2886,-1.2435,-1.2447,-1.2295,-1.1148,-1.1026,-1.0789,-0.9709,-0.9458,-0.9446,-0.9485,-0.9497,-0.9968,-1.1415,-1.1793,-1.2468,0.0,0.0,0.0,0.0,0.0,0.0,0.0,0.0,0.0,0.0,0.0,0.0,-2.1909,-2.1584,-2.1464,-2.1596,-2.1967,-2.2219,-2.2441,-2.372,-2.441,-2.4637,-2.5495,-2.5767,-2.5514,-2.4605,-2.3999,0.0,0.0,0.0,0.0,-2.2795,-2.2826,-2.2933,-2.3231,-2.3348,-2.3436,-2.423,-2.4679,-2.4879,-2.5208,-2.5098,-2.4851,-2.4951,-2.421,-2.3157,-2.2642,-2.2175,-2.1869,-2.194,-2.2032,-2.2094,-2.2123,-2.2163,-2.2192,-2.2192,-2.2237,-2.2254,-2.2254,-2.2282,-2.231,-2.231,-2.2432,-2.2579,-2.2685,-2.2977,-2.3182,-2.3091,-2.3253,-2.3301,-2.3116,-2.3253,-2.3394,-2.3504,-2.362,-2.371,-2.3795,-2.3795,-2.3795,-2.3795,-2.3795,-2.3816,-2.3896,-2.3958,-2.4016,-2.4094,-2.417,-2.419,-2.419,-2.4284,-2.4426,-2.4645,-2.467,-2.4771,0.0,-1.1844,-1.226,-1.213,-1.1859,-1.1441,-1.0919,-1.0529,0.0,-0.9605,-0.9497,-0.9521,-0.9593,-0.9569,-0.9944,-1.1075,-1.1676,0.0,0.0,0.0,0.0,0.0,0.0,0.0,0.0,0.0,0.0,0.0,0.0,0.0,-2.1368,-2.1308,-2.1067,-2.0574,-2.049,-2.0742,-2.1344,-2.2566,-2.338,-2.3903,-2.5177,-2.5472,-2.4896,-2.4329,-2.3659,0.0,0.0,0.0,0.0,-2.2735,-2.2826,-2.2888,-2.2888,-2.2888,-2.2933,-2.3436,-2.3921,-2.4364,-2.4328,-2.4476,-2.4688,-2.4846,-2.4346,-2.349,-2.2181,-2.1797,-2.1811,-2.1869,-2.1899,-2.1911,-2.1969,-2.1998,-2.1998,-2.1998,-2.2106,-2.2185,-2.2214,-2.2254,-2.2282,-2.231,-2.231,-2.2394,-2.2632,-2.2685,-2.2773,-2.301,-2.306,-2.3042,-2.306,-2.3084,-2.3206,-2.344,-2.3504,-2.3598,-2.3774,-2.3795,-2.3795,-2.3795,-2.3795,-2.3816,-2.3896,-2.3958,-2.4016,-2.4094,-2.417,-2.419,-2.419,-2.419,-2.4303,-2.4495,-2.4508,-2.4598,-0.855,0.0,-1.0212,-1.0183,-1.0403,-1.0475,0.0,-1.0072,-1.0161,-0.9605,0.0,-0.9737,-1.057,-1.0401,-1.0738,-1.2637,-1.3047,0.0,0.0,0.0,0.0,0.0,0.0,0.0,0.0,0.0,0.0,0.0,0.0,-2.1144,-2.0803,-2.0394,-2.0105,-1.9973,-1.9576,-1.9829,-2.0791,-2.1924,-2.2583,-2.2714,-2.3939,-2.447,-2.4315,-2.3617,-2.3238,0.0,0.0,0.0,-2.2463,-2.2569,-2.2735,-2.2841,-2.2857,-2.2888,-2.2933,-2.3436,-2.3681,-2.3852,-2.4177,-2.4027,-2.3535,-2.2941,-2.2828,-2.28,-2.1958,-2.1768,-2.1781,-2.1811,-2.1869,-2.1882,-2.1911,-2.1969,-2.1998,-2.1998,-2.2027,-2.2089,-2.2168,-2.2214,-2.2225,-2.2282,-2.231,-2.231,-2.2377,-2.2552,-2.2659,-2.2497,-2.2642,-2.2738,-2.2497,-2.2833,-2.3116,-2.3206,-2.3513,-2.3753,-2.3795,-2.3795,-2.3795,-2.3795,-2.3795,-2.3816,-2.3816,-2.3937,-2.4016,-2.4016,-2.4151,-2.419,-2.419,-2.419,-2.4303,-2.4495,-2.4508,-2.4598,-0.7383,-0.8682,-0.9857,-0.9857,-1.0281,-1.0594,-1.0305,-1.0089,-0.9833,0.0,0.0,-0.9749,-1.0582,-1.0702,-1.1207,-1.2866,-1.3541,0.0,0.0,0.0,0.0,0.0,0.0,0.0,0.0,0.0,0.0,0.0,0.0,-2.0661,-2.0249,-1.9949,-1.9672,-1.942,-1.9143,-1.9396,-2.0225,-2.1134,-2.1779,-2.2322,-2.3291,-2.3682,-2.3617,-2.3266,-2.2943,0.0,0.0,0.0,-2.2417,-2.2463,-2.2629,-2.2795,-2.2826,-2.2857,-2.2933,-2.3187,-2.3436,-2.361,-2.3653,-2.3496,-2.3111,-2.2228,-2.2245,-2.2491,-2.1864,-2.1694,-2.1708,-2.1781,-2.1827,-2.184,-2.184,-2.1899,-2.1911,-2.1911,-2.194,-2.1969,-2.2049,-2.2077,-2.2135,-2.2163,-2.2209,-2.2254,-2.2254,-2.2405,-2.246,-2.231,-2.2432,-2.246,-2.231,-2.2552,-2.2799,-2.2884,-2.3259,-2.3535,-2.3646,-2.3753,-2.3795,-2.3795,-2.3795,-2.3795,-2.3795,-2.3917,-2.4016,-2.4094,-2.417,-2.419,-2.419,-2.419,-2.4302,-2.4491,-2.4524,-2.4648,-0.7155,-0.8862,-1.0389,-1.0233,-1.0702,-1.1195,-1.1111,0.0,0.0,0.0,0.0,0.0,0.0,0.0,0.0,0.0,0.0,0.0,0.0,0.0,0.0,0.0,0.0,0.0,0.0,0.0,0.0,0.0,0.0,-2.0165,-1.9684,-1.966,-1.9456,-1.9064,-1.8987,-1.9257,-1.9715,-2.0287,-2.0996,-2.1953,-2.259,-2.2848,-2.286,-2.286,-2.2628,-2.2184,0.0,0.0,-2.237,-2.237,-2.2523,-2.2749,-2.2749,-2.2826,-2.2902,-2.2902,-2.3142,-2.3436,-2.3023,-2.2931,-2.2823,-2.2072,-2.2009,-2.2167,-2.1629,-2.1511,-2.1603,-2.1738,-2.1768,-2.1797,-2.1797,-2.1797,-2.1797,-2.1797,-2.184,-2.1899,-2.1899,-2.194,-2.1998,-2.1998,-2.2089,-2.2168,-2.2214,-2.2242,-2.2282,-2.231,-2.231,-2.231,-2.231,-2.2338,-2.246,-2.2721,-2.301,-2.3277,-2.3508,-2.3689,-2.3795,-2.3795,-2.3795,-2.3816,-2.3816,-2.3937,-2.4074,-2.4208,-2.419,-2.419,-2.419,-2.4191,-2.4284,-2.4505,-2.4559,-2.4685,-0.8056,-0.968,-1.0762,-0.9833,-1.0714,-1.1652,-1.1195,-1.0966,0.0,0.0,0.0,0.0,0.0,0.0,0.0,0.0,0.0,0.0,0.0,0.0,0.0,0.0,0.0,0.0,0.0,0.0,0.0,0.0,0.0,-1.9322,-1.9119,-1.9107,-1.9136,-1.917,-1.9052,-1.9141,-1.9438,-1.978,-2.0013,-2.0205,-2.077,-2.1232,-2.1656,-2.1656,-2.1842,-2.2184,0.0,-2.2231,-2.2231,-2.237,-2.2417,-2.2477,-2.2569,-2.2735,-2.2795,-2.2795,-2.2917,-2.2978,-2.2933,-2.2436,-2.1819,-2.1702,-2.1389,-2.1052,-2.1038,-2.1198,-2.1464,-2.1603,-2.1664,-2.1738,-2.1797,-2.1797,-2.1797,-2.1797,-2.1811,-2.184,-2.1899,-2.1911,-2.194,-2.1998,-2.2027,-2.2061,-2.2168,-2.2214,-2.2225,-2.2282,-2.231,-2.231,-2.231,-2.2515,-2.2721,-2.301,-2.3277,-2.3531,-2.3732,-2.3774,-2.3795,-2.3795,-2.3795,-2.3837,-2.3958,-2.3996,-2.4074,-2.4208,-2.419,-2.419,-2.419,-2.4191,-2.4284,-2.4505,-2.4444,-2.453,-0.7203,-0.879,-1.0197,-0.9992,-1.1568,-1.3131,-1.289,-1.2396,0.0,0.0,0.0,0.0,0.0,0.0,0.0,0.0,0.0,0.0,0.0,0.0,0.0,0.0,0.0,0.0,0.0,0.0,0.0,0.0,0.0,0.0,-1.9105,-1.9117,-1.9105,-1.9105,-1.9158,-1.9263,-1.9275,-1.946,-1.9708,-2.0016,-2.0207,-2.0709,-2.152,-2.1423,-2.1712,-2.2184,0.0,-2.2184,-2.2231,-2.2324,-2.2417,-2.2509,-2.2675,-2.2781,-2.2872,-2.2872,-2.2655,-2.2425,-2.2425,-2.1821,-2.1072,-2.1072,-2.0931,-2.0794,-2.086,-2.1071,-2.1371,-2.1464,-2.1587,-2.1724,-2.1738,-2.1768,-2.1797,-2.1797,-2.1797,-2.1811,-2.184,-2.184,-2.1869,-2.1899,-2.1911,-2.1957,-2.202,-2.214,-2.2214,-2.2225,-2.2282,-2.231,-2.231,-2.2525,-2.2764,-2.2876,-2.3253,-2.3549,-2.3642,-2.3732,-2.3795,-2.3795,-2.3795,-2.3837,-2.3937,-2.3955,-2.4016,-2.4151,-2.4151,-2.417,-2.419,-2.4191,-2.4266,-2.4391,-2.4411,-2.4464,-0.6751,-0.8142,-0.9677,-1.0485,-1.2239,-1.3831,-1.4205,-1.3565,0.0,0.0,0.0,0.0,0.0,0.0,0.0,0.0,0.0,0.0,0.0,0.0,0.0,0.0,0.0,0.0,0.0,0.0,0.0,0.0,0.0,0.0,-1.9182,-1.917,-1.9158,-1.9146,-1.9263,-1.9368,-1.9328,-1.942,-1.9617,-2.0029,-2.0055,-2.0547,-2.141,-2.1423,-2.1746,-2.2231,-2.2231,-2.2278,-2.2324,-2.2417,-2.2509,-2.2615,-2.2735,-2.2781,-2.2857,-2.2888,-2.2541,-2.1989,-2.1989,-2.1339,-2.0472,-2.0472,-2.0506,-2.0561,-2.0646,-2.0844,-2.1103,-2.1293,-2.1433,-2.1556,-2.1648,-2.1738,-2.1797,-2.1797,-2.1797,-2.1797,-2.1797,-2.1797,-2.1797,-2.1797,-2.184,-2.1899,-2.1899,-2.202,-2.214,-2.2185,-2.2225,-2.2282,-2.231,-2.2487,-2.2632,-2.2685,-2.3077,-2.3348,-2.3504,-2.3667,-2.3795,-2.3795,-2.3795,-2.3816,-2.3896,-2.3896,-2.3955,-2.4074,-2.4094,-2.4132,-2.417,-2.4191,-2.4229,-2.4284,-2.4358,-2.443,-0.8117,-0.9006,-0.9857,-1.1399,-1.1916,-1.2468,-1.3951,-1.3855,0.0,-1.4629,0.0,0.0,0.0,0.0,0.0,0.0,0.0,0.0,0.0,0.0,0.0,0.0,0.0,0.0,0.0,0.0,0.0,0.0,0.0,0.0,-1.917,-1.9052,-1.9198,-1.9565,-1.9316,-1.9368,-1.9759,-1.9656,-1.9565,-1.9473,-1.994,-2.0446,-2.0858,-2.1361,-2.1888,-2.237,-2.237,-2.2463,-2.2555,-2.2555,-2.2615,-2.2615,-2.2615,-2.2675,-2.2795,-2.2857,-2.2541,-2.1989,-2.1989,-2.1162,-2.0142,-2.0142,-1.9982,-1.9818,-2.0154,-2.0243,-2.0413,-2.1103,-2.1135,-2.1055,-2.1556,-2.1708,-2.1708,-2.1797,-2.1797,-2.1797,-2.1797,-2.1797,-2.1797,-2.1797,-2.1781,-2.1827,-2.1899,-2.1928,-2.1974,-2.2168,-2.2214,-2.2242,-2.2282,-2.231,-2.2432,-2.2659,-2.2738,-2.2952,-2.3458,-2.3667,-2.3795,-2.3795,-2.3795,-2.3816,-2.3896,-2.3896,-2.3937,-2.3996,-2.4074,-2.4094,-2.4094,-2.4172,-2.421,-2.421,-2.4339,-2.4412,-0.7046,-0.8322,-0.9713,-1.0666,-1.1652,0.0,0.0,-1.4904,-1.5548,-1.59,-1.6248,0.0,0.0,0.0,0.0,0.0,0.0,0.0,0.0,0.0,0.0,0.0,0.0,0.0,0.0,0.0,0.0,0.0,0.0,0.0,-1.9182,-1.917,-1.9158,-1.9198,-1.9263,-1.9368,-1.942,-1.9473,-1.946,-1.9512,-1.9759,-2.0245,-2.1042,-2.1104,-2.1636,-2.2509,-2.2417,-2.2463,-2.2615,-2.2689,-2.2735,-2.2735,-2.2766,-2.2566,-2.2323,-2.2308,-2.1699,-2.0814,-2.0814,-2.0233,-1.9478,-1.9478,-1.9567,-1.9711,-1.9854,-2.0189,-2.0646,-2.0925,-2.1055,-2.1214,-2.1448,-2.1617,-2.1724,-2.1738,-2.1768,-2.1797,-2.1797,-2.1797,-2.1797,-2.1797,-2.1797,-2.1811,-2.184,-2.1869,-2.1928,-2.2003,-2.2032,-2.2106,-2.2225,-2.236,-2.2535,-2.2685,-2.3003,-2.3324,-2.3664,-2.3753,-2.3795,-2.3795,-2.3795,-2.3816,-2.3837,-2.3837,-2.3876,-2.3937,-2.3958,-2.3996,-2.4054,-2.4113,-2.4171,-2.419,-2.4247,-2.4284,-0.6818,-0.8261,-0.9869,-1.0425,0.0,0.0,-1.4084,-1.5355,-1.6428,-1.6763,-1.7159,0.0,0.0,0.0,0.0,0.0,0.0,0.0,0.0,0.0,0.0,0.0,0.0,0.0,0.0,0.0,0.0,0.0,0.0,0.0,0.0,-1.917,-1.9158,-1.9198,-1.9316,-1.942,-1.9368,-1.946,-1.9565,-1.9656,-1.9656,-2.0194,-2.1237,-2.1348,-2.1888,-2.2675,-2.2583,-2.2569,-2.2706,-2.2781,-2.2841,-2.2812,-2.2685,-2.2367,-2.1975,-2.1757,-2.1017,-2.0103,-2.0103,-1.9653,-1.9101,-1.9101,-1.9288,-1.953,-1.9639,-1.996,-2.0292,-2.0545,-2.0712,-2.0877,-2.1135,-2.1433,-2.1664,-2.1664,-2.1738,-2.1781,-2.1768,-2.1797,-2.1797,-2.1797,-2.1797,-2.1797,-2.1797,-2.184,-2.1869,-2.1899,-2.194,-2.2015,-2.2106,-2.2315,-2.2436,-2.2525,-2.2935,-2.3307,-2.3562,-2.3667,-2.3732,-2.3795,-2.3795,-2.3795,-2.3795,-2.3795,-2.3816,-2.3876,-2.3896,-2.3917,-2.3976,-2.4054,-2.4113,-2.417,-2.4191,-2.421,-0.7922,-0.9079,-1.0449,0.0,0.0,0.0,-1.418,-1.5079,-1.6104,-1.7207,0.0,0.0,0.0,0.0,0.0,0.0,0.0,0.0,0.0,0.0,0.0,0.0,0.0,0.0,0.0,0.0,0.0,0.0,0.0,0.0,0.0,-1.904,-1.9186,-1.9552,-1.9448,-1.95,-1.9786,-1.9798,-1.9798,-1.9798,-1.9798,-2.0295,-2.1237,-2.2292,-2.2764,-2.2795,-2.2795,-2.2826,-2.2888,-2.2873,-2.2873,-2.2815,-2.2222,-2.1989,-2.1902,-2.1235,-2.0611,-2.0088,-2.0088,-1.9653,-1.9101,-1.9101,-1.9101,-1.9176,-1.9581,-1.9435,-1.9273,-2.0,-1.9945,-1.9889,-2.0613,-2.1183,-2.1589,-2.1589,-2.1694,-2.1797,-2.1708,-2.1768,-2.1797,-2.1797,-2.1797,-2.1797,-2.1797,-2.1797,-2.1811,-2.1899,-2.1899,-2.1911,-2.1998,-2.1998,-2.2044,-2.2197,-2.2426,-2.2756,-2.3067,-2.3348,-2.3576,-2.3795,-2.3795,-2.3795,-2.3795,-2.3795,-2.3795,-2.3795,-2.3876,-2.3896,-2.3896,-2.4036,-2.4094,-2.4094,-2.4172,-2.4192,-0.7752,-0.9538,0.0,0.0,0.0,0.0,0.0,-1.5921,0.0,0.0,0.0,0.0,0.0,0.0,0.0,0.0,0.0,0.0,0.0,0.0,0.0,0.0,0.0,0.0,0.0,0.0,0.0,0.0,0.0,0.0,0.0,-1.8004,-1.8054,-1.8203,-1.824,-1.8339,-1.8376,-1.8759,-1.8995,-1.9095,-1.9876,-2.0597,-2.1334,-2.1202,-2.1554,-2.231,-2.1458,-2.1356,-2.1693,-2.1585,-2.1569,-2.1554,-2.1365,-2.1032,-2.064,-2.0436,-1.9957,-1.9406,-1.9406,-1.9275,-1.9101,-1.9101,-1.9101,-1.9139,-1.925,-1.9398,-1.9581,-1.9782,-2.017,-2.0512,-2.0761,-2.1151,-2.1464,-2.1464,-2.1587,-2.1708,-2.1708,-2.1768,-2.1797,-2.1797,-2.1797,-2.1797,-2.1797,-2.1797,-2.1827,-2.1827,-2.184,-2.184,-2.1911,-2.1969,-2.2084,-2.2337,-2.2634,-2.2917,-2.323,-2.3481,-2.3678,-2.3725,-2.3725,-2.375,-2.3795,-2.3795,-2.3795,-2.3795,-2.3816,-2.3816,-2.3816,-2.3917,-2.3976,-2.3958,-2.4036,-2.4154,-0.9488,-1.1115,0.0,0.0,0.0,0.0,0.0,0.0,0.0,0.0,0.0,0.0,0.0,0.0,0.0,0.0,0.0,0.0,0.0,0.0,0.0,0.0,0.0,0.0,0.0,0.0,0.0,0.0,0.0,0.0,0.0,-1.7533,-1.763,-1.7678,-1.781,-1.7906,-1.7954,-1.8288,-1.8486,-1.8584,-1.9217,-1.9846,-2.0361,-2.047,-2.0866,-2.15,-2.0694,-2.0509,-2.0893,-2.0953,-2.0976,-2.0947,-2.0741,-2.0367,-2.0005,-1.9798,-1.9449,-1.9101,-1.9101,-1.9101,-1.9101,-1.9101,-1.9101,-1.9101,-1.9101,-1.9288,-1.9472,-1.9472,-1.9782,-2.0154,-2.0308,-2.053,-2.0812,-2.1261,-2.1495,-2.1664,-2.1587,-2.1648,-2.1738,-2.1768,-2.1768,-2.1768,-2.1797,-2.1797,-2.1797,-2.1797,-2.1797,-2.1811,-2.1869,-2.1899,-2.2056,-2.2375,-2.2581,-2.2841,-2.3271,-2.3435,-2.3589,-2.37,-2.37,-2.3721,-2.375,-2.3789,-2.3792,-2.3795,-2.3795,-2.3795,-2.3795,-2.3876,-2.3937,-2.4018,-2.4095,-2.4229,-1.2088,0.0,0.0,0.0,0.0,0.0,0.0,0.0,0.0,0.0,0.0,0.0,0.0,0.0,0.0,0.0,0.0,0.0,0.0,0.0,0.0,0.0,0.0,0.0,0.0,0.0,0.0,0.0,0.0,0.0,0.0,-1.7376,-1.7532,-1.7615,-1.7793,-1.7887,-1.8006,-1.8056,-1.8081,-1.8129,-1.8131,-1.838,-1.874,-1.9867,-2.0327,-2.0246,-2.0108,-2.0061,-2.0175,-2.0526,-2.0693,-2.0691,-2.0193,-1.9947,-1.9767,-1.9281,-1.9101,-1.9101,-1.9101,-1.9101,-1.9101,-1.9101,-1.9101,-1.9101,-1.9101,-1.9101,-1.9101,-1.9101,-1.9101,-1.925,-1.9639,-1.9782,-2.0065,-2.1071,-2.1419,-2.1511,-2.1417,-2.1511,-2.162,-2.1694,-2.1694,-2.1724,-2.1768,-2.1797,-2.1781,-2.1797,-2.1797,-2.1797,-2.1797,-2.1797,-2.1928,-2.2315,-2.2371,-2.2598,-2.3151,-2.3265,-2.3383,-2.3634,-2.3678,-2.3678,-2.3678,-2.3761,-2.3807,-2.3795,-2.3795,-2.3795,-2.3795,-2.3896,-2.4018,-2.4173,-2.4229,-2.4375,-1.1261,-1.3011,0.0,0.0,0.0,0.0,0.0,0.0,0.0,0.0,0.0,0.0,0.0,0.0,0.0,0.0,0.0,0.0,0.0,0.0,0.0,0.0,0.0,0.0,0.0,0.0,0.0,0.0,0.0,0.0,-1.6152,-1.6263,-1.6341,-1.6386,-1.6532,-1.6589,-1.6633,-1.7066,-1.7309,0.0,-1.7743,-1.8001,-1.8166,-1.8421,-1.8244,-1.7827,-1.842,-1.853,-1.8221,-1.8655,-1.912,-1.9469,-1.9362,-1.9257,-1.9166,-1.9075,-1.9017,-1.9017,-1.9017,-1.9055,-1.9101,-1.9101,-1.9078,-1.9017,-1.9017,-1.9017,-1.9017,-1.9017,-1.9302,-1.9639,-2.0015,-2.0342,-2.0679,-2.1183,-2.1183,-2.1119,-2.1355,-2.1511,-2.162,-2.162,-2.162,-2.162,-2.1634,-2.1634,-2.1664,-2.1708,-2.1768,-2.1797,-2.1797,-2.1797,-2.184,-2.1899,-2.2113,-2.2292,-2.2412,-2.2884,-2.3168,-2.3241,-2.343,-2.3562,-2.3607,-2.3739,-2.3804,-2.3807,-2.3792,-2.3795,-2.3795,-2.3979,-2.3999,-2.3899,-2.4058,-2.4192,-1.1934,0.0,0.0,0.0,0.0,0.0,0.0,0.0,0.0,0.0,0.0,0.0,0.0,0.0,0.0,0.0,0.0,0.0,0.0,0.0,0.0,0.0,0.0,0.0,0.0,0.0,0.0,0.0,0.0,-1.608,-1.5804,-1.5913,-1.5988,-1.5988,-1.6144,-1.62,-1.62,-1.6559,-1.674,-1.6828,-1.707,-1.7161,-1.7127,-1.748,-1.7293,-1.6784,-1.7574,-1.7811,-1.7693,-1.8279,-1.8644,-1.8927,-1.895,-1.8927,-1.8879,-1.8889,-1.8889,-1.8889,-1.8889,-1.8912,-1.8988,-1.904,-1.9003,-1.8927,-1.8993,-1.8941,-1.8889,-1.8889,-1.9064,-1.931,-1.9464,-1.9681,-1.9965,-2.0447,-2.0828,-2.1135,-2.1293,-2.1419,-2.1481,-2.1511,-2.1495,-2.1511,-2.1589,-2.1589,-2.162,-2.165,-2.1724,-2.1738,-2.1738,-2.1797,-2.184,-2.1969,-2.2124,-2.232,-2.259,-2.291,-2.3151,-2.3289,-2.3407,-2.3517,-2.3539,-2.3652,-2.3718,-2.3743,-2.3747,-2.375,-2.375,-2.3855,-2.3899,-2.3901,-2.4001,-2.4136,-1.2498,0.0,0.0,0.0,0.0,0.0,0.0,0.0,0.0,0.0,0.0,0.0,0.0,0.0,0.0,0.0,0.0,0.0,0.0,0.0,0.0,0.0,0.0,0.0,0.0,0.0,0.0,0.0,0.0,-1.5792,-1.5792,-1.5913,-1.5957,-1.5957,-1.61,-1.6156,-1.6156,-1.6318,-1.6392,-1.6392,-1.6436,-1.6362,-1.6156,-1.6732,-1.6784,-1.6436,-1.7144,-1.7516,-1.7666,-1.8333,-1.862,-1.8697,-1.8798,-1.876,-1.8711,-1.876,-1.8784,-1.8784,-1.8784,-1.8784,-1.8822,-1.8941,-1.8889,-1.8798,-1.8903,-1.8851,-1.8784,-1.8784,-1.8784,-1.8822,-1.8898,-1.8936,-1.9147,-1.9752,-2.0548,-2.1214,-2.1246,-2.1277,-2.1309,-2.1355,-2.1386,-2.1433,-2.1511,-2.1559,-2.1573,-2.1573,-2.1634,-2.1694,-2.1694,-2.1738,-2.184,-2.2096,-2.2108,-2.232,-2.2807,-2.2884,-2.3035,-2.3271,-2.3383,-2.343,-2.3453,-2.3539,-2.3607,-2.3656,-2.3678,-2.37,-2.37,-2.3743,-2.3813,-2.3941,-2.402,-2.4136,0.0,0.0,0.0,0.0,0.0,0.0,0.0,0.0,0.0,0.0,0.0,0.0,0.0,0.0,0.0,0.0,0.0,0.0,0.0,0.0,0.0,0.0,0.0,0.0,0.0,0.0,0.0,0.0,-1.5792,-1.5792,-1.5792,-1.5836,-1.5836,-1.5836,-1.5957,-1.6044,-1.6044,-1.6144,-1.6275,-1.6392,-1.6275,-1.6188,-1.6044,-1.6118,-1.6061,-1.5925,-1.6863,-1.7297,-1.7394,-1.7908,-1.8358,-1.8784,-1.8784,-1.876,-1.8711,-1.8711,-1.8711,-1.8711,-1.8711,-1.8736,-1.8784,-1.8822,-1.8774,-1.8711,-1.8711,-1.8711,-1.8711,-1.8711,-1.8774,-1.8898,-1.9221,-1.95,-1.9788,-2.0224,-2.0613,-2.0925,-2.1103,-2.1214,-2.1309,-2.1309,-2.1309,-2.1309,-2.1356,-2.1402,-2.1417,-2.1417,-2.1542,-2.1603,-2.1603,-2.162,-2.1664,-2.1768,-2.1768,-2.1797,-2.1886,-2.2113,-2.2303,-2.2466,-2.2824,-2.3133,-2.3313,-2.3448,-2.3517,-2.3539,-2.3634,-2.37,-2.37,-2.3873,-2.3873,-2.3747,-2.4037,-2.4097,-1.1471,0.0,0.0,0.0,0.0,0.0,0.0,0.0,0.0,0.0,0.0,0.0,0.0,0.0,0.0,0.0,0.0,0.0,0.0,0.0,0.0,0.0,0.0,0.0,0.0,0.0,0.0,0.0,-1.5792,-1.5792,-1.5792,-1.5792,-1.5792,-1.5792,-1.5881,-1.5869,-1.5869,-1.6001,-1.6144,-1.6275,-1.6244,-1.6144,-1.5988,-1.5988,-1.6132,-1.6448,-1.6765,-1.7214,-1.7693,-1.7828,-1.8201,-1.8606,-1.8606,-1.862,-1.8595,-1.8595,-1.8595,-1.8595,-1.8595,-1.862,-1.8644,-1.8736,-1.8659,-1.8595,-1.8673,-1.8634,-1.8595,-1.8595,-1.862,-1.8721,-1.9049,-1.9087,-1.9199,-1.9711,-1.9874,-2.0035,-2.0444,-2.0778,-2.1055,-2.1167,-2.1262,-2.1309,-2.1309,-2.1309,-2.134,-2.134,-2.1433,-2.1495,-2.1495,-2.1542,-2.162,-2.1634,-2.1634,-2.1708,-2.1869,-2.2068,-2.2303,-2.2563,-2.2867,-2.3102,-2.3193,-2.3241,-2.3313,-2.3401,-2.3522,-2.3607,-2.3607,-2.375,-2.3813,-2.375,-2.4036,-2.4056,0.0,0.0,0.0,0.0,0.0,0.0,0.0,0.0,0.0,0.0,0.0,0.0,0.0,0.0,0.0,0.0,0.0,0.0,0.0,0.0,0.0,0.0,0.0,0.0,0.0,0.0,0.0,0.0,-1.5792,-1.5792,-1.5792,-1.5792,-1.5792,-1.5792,-1.5836,-1.5836,-1.5836,-1.6001,-1.6088,-1.6144,-1.6144,-1.61,-1.5957,-1.5957,-1.6306,-1.696,-1.6863,-1.7214,-1.7801,-1.7922,-1.8175,-1.8517,-1.8517,-1.8517,-1.8517,-1.8517,-1.8517,-1.8517,-1.8517,-1.8517,-1.8517,-1.8634,-1.8595,-1.8517,-1.8634,-1.8595,-1.8517,-1.8517,-1.8517,-1.8556,-1.876,-1.8697,-1.8736,-1.9265,-1.9384,-1.95,-2.0065,-2.0512,-2.0827,-2.099,-2.1087,-2.1183,-2.1183,-2.1183,-2.1183,-2.1183,-2.1214,-2.1261,-2.134,-2.1419,-2.1481,-2.1542,-2.1542,-2.1648,-2.194,-2.2096,-2.232,-2.2677,-2.2876,-2.3003,-2.3045,-2.3095,-2.3144,-2.3241,-2.3336,-2.3453,-2.3549,-2.362,-2.3689,-2.3774,-2.3917,-2.3937,0.0,0.0,0.0,0.0,0.0,0.0,0.0,0.0,0.0,0.0,0.0,0.0,0.0,0.0,0.0,0.0,0.0,0.0,0.0,0.0,0.0,0.0,0.0,0.0,0.0,0.0,0.0,0.0,-1.5792,-1.5792,-1.5792,-1.5792,-1.5792,-1.5792,-1.5913,-1.5988,-1.5988,-1.6144,-1.6144,-1.5988,-1.5988,-1.5957,-1.5792,-1.5792,-1.6306,-1.7199,-1.7199,-1.7199,-1.7323,-1.8149,-1.8478,-1.8517,-1.8517,-1.8517,-1.8517,-1.8517,-1.8517,-1.8517,-1.8517,-1.8517,-1.8517,-1.8517,-1.8517,-1.8517,-1.8517,-1.8517,-1.8517,-1.8517,-1.8517,-1.8517,-1.8517,-1.8697,-1.8988,-1.9339,-1.9603,-1.9894,-2.0308,-2.0579,-2.0794,-2.0827,-2.0827,-2.0827,-2.0827,-2.0827,-2.0827,-2.0827,-2.0827,-2.0893,-2.1103,-2.1135,-2.1183,-2.1386,-2.1417,-2.1509,-2.1781,-2.1811,-2.2003,-2.2405,-2.2535,-2.2703,-2.2902,-2.3045,-2.3102,-2.3119,-2.3119,-2.3301,-2.3692,-2.3571,-2.3571,-2.3714,-2.3714,-2.3714,0.0,0.0,0.0,0.0,0.0,0.0,0.0,0.0,0.0,0.0,0.0,0.0,0.0,0.0,0.0,0.0,0.0,0.0,0.0,0.0,0.0,0.0,0.0,0.0,0.0,0.0,0.0,0.0,0.0,-1.5792,-1.5792,-1.5792,-1.5792,-1.5792,-1.5836,-1.5869,-1.5869,-1.5925,-1.5925,-1.5869,-1.5957,-1.5913,-1.5792,-1.6207,-1.6509,-1.6778,-1.7073,-1.7529,-1.7975,-1.7434,-1.7557,-1.8016,-1.7774,-1.7814,-1.8055,-1.8055,-1.8254,-1.8517,-1.8517,-1.8517,-1.8517,-1.8517,-1.8517,-1.8517,-1.8517,-1.8517,-1.8517,-1.8517,-1.8517,-1.8556,-1.8721,-1.8697,-1.8659,-1.8774,-1.9026,-1.9332,-1.969,-2.0065,-2.0342,-2.0342,-2.0579,-2.0794,-2.0794,-2.0794,-2.0794,-2.0794,-2.0794,-2.0827,-2.0893,-2.0893,-2.0925,-2.1023,-2.1261,-2.1386,-2.134,-2.1721,-2.1928,-2.1961,-2.2276,-2.2497,-2.2596,-2.2764,-2.2876,-2.297,-2.297,-2.3126,-2.344,-2.3468,-2.358,-2.3692,-2.3837,-2.3896,-0.8694,0.0,0.0,0.0,0.0,0.0,0.0,0.0,0.0,0.0,0.0,0.0,0.0,0.0,0.0,0.0,0.0,0.0,0.0,0.0,0.0,0.0,0.0,0.0,0.0,0.0,0.0,0.0,0.0,0.0,-1.5792,-1.5792,-1.5792,-1.5792,-1.5792,-1.5792,-1.5792,-1.5792,-1.5792,-1.5792,-1.5869,-1.5869,-1.5792,-1.6219,-1.6423,-1.6522,-1.665,-1.7227,-1.7975,-1.7102,-1.7144,-1.7747,-1.7516,-1.7679,-1.8042,-1.8042,-1.8214,-1.8517,-1.8517,-1.8517,-1.8517,-1.8517,-1.8517,-1.8517,-1.8517,-1.8517,-1.8517,-1.8517,-1.8517,-1.8556,-1.8736,-1.8697,-1.862,-1.862,-1.8936,-1.9199,-1.9213,-1.9639,-2.003,-2.015,-2.0426,-2.0628,-2.0628,-2.0628,-2.0628,-2.0628,-2.0628,-2.0662,-2.0695,-2.0695,-2.0728,-2.0794,-2.1039,-2.1198,-2.1214,-2.1554,-2.184,-2.1932,-2.2237,-2.2432,-2.2515,-2.2632,-2.2738,-2.2842,-2.2842,-2.2927,-2.3168,-2.3307,-2.3495,-2.3692,-2.3795,-2.3899,0.0,0.0,0.0,0.0,0.0,0.0,0.0,0.0,0.0,0.0,0.0,0.0,0.0,0.0,0.0,0.0,0.0,0.0,0.0,0.0,0.0,0.0,0.0,0.0,0.0,0.0,0.0,0.0,-1.5792,-1.5792,-1.5792,-1.5792,-1.5792,-1.5792,-1.5792,-1.5792,-1.5792,-1.5792,-1.5792,-1.5792,-1.5792,-1.5792,-1.5792,-1.5792,-1.6044,-1.6466,-1.6001,-1.6349,-1.7199,-1.7199,-1.7434,-1.7787,-1.7747,-1.8055,-1.8478,-1.8478,-1.8478,-1.8478,-1.8478,-1.8478,-1.8478,-1.8478,-1.8478,-1.8478,-1.8478,-1.8478,-1.8478,-1.8478,-1.8517,-1.8517,-1.8517,-1.8697,-1.886,-1.8912,-1.9332,-1.9609,-1.9011,-1.9369,-1.9874,-2.02,-2.027,-2.0304,-2.0304,-2.0304,-2.0304,-2.0304,-2.0304,-2.0339,-2.0494,-2.0494,-2.0561,-2.0761,-2.0794,-2.0942,-2.1355,-2.1386,-2.1661,-2.2321,-2.2377,-2.246,-2.2659,-2.2685,-2.2685,-2.2685,-2.2685,-2.2764,-2.2876,-2.3045,-2.3301,-2.3692,-2.3566,-2.3717,-0.756,0.0,0.0,0.0,0.0,0.0,0.0,0.0,0.0,0.0,0.0,0.0,0.0,0.0,0.0,0.0,0.0,0.0,0.0,0.0,0.0,0.0,0.0,0.0,0.0,0.0,0.0,0.0,-1.5792,-1.5792,-1.5792,-1.5792,-1.5792,-1.5792,-1.5792,-1.5792,-1.5792,-1.5792,-1.5792,-1.5792,-1.5792,-1.5792,-1.5792,-1.6132,-1.6392,-1.6479,-1.6349,-1.6436,-1.668,-1.668,-1.6934,-1.731,-1.6976,-1.7338,-1.7962,-1.7693,-1.7868,-1.8282,-1.8282,-1.8202,-1.8083,-1.8083,-1.8083,-1.8083,-1.8083,-1.8163,-1.8282,-1.8282,-1.84,-1.8517,-1.8517,-1.8439,-1.8425,-1.8581,-1.8736,-1.8874,-1.8898,-1.9199,-1.9545,-1.9632,-1.9818,-2.003,-2.027,-2.0304,-2.0304,-2.0304,-2.0304,-2.0304,-2.0373,-2.0373,-2.0373,-2.0426,-2.0679,-2.0844,-2.0745,-2.1007,-2.126,-2.1464,-2.1617,-2.1768,-2.1974,-2.226,-2.2443,-2.2487,-2.2579,-2.2659,-2.2764,-2.3077,-2.3342,-2.3553,-2.3606,-2.361,-0.7931,0.0,0.0,0.0,0.0,0.0,0.0,-1.0878,0.0,0.0,0.0,0.0,0.0,0.0,0.0,0.0,0.0,0.0,0.0,0.0,0.0,0.0,0.0,0.0,0.0,-1.5792,-1.5792,-1.5792,-1.5792,-1.5792,-1.5792,-1.5792,-1.5792,-1.5792,-1.5792,-1.5792,-1.5792,-1.5792,-1.5792,-1.5792,-1.5792,-1.5792,-1.5792,-1.6088,-1.6175,-1.6175,-1.6175,-1.6132,-1.612,-1.6466,-1.668,-1.6795,-1.668,-1.7005,-1.7571,-1.7529,-1.7747,-1.8083,-1.8083,-1.7909,-1.7639,-1.7639,-1.7557,-1.7462,-1.7598,-1.772,-1.7841,-1.8043,-1.8163,-1.8242,-1.8242,-1.8242,-1.8242,-1.8361,-1.8503,-1.8659,-1.8606,-1.8912,-1.925,-1.9508,-1.9818,-2.0065,-2.027,-2.0304,-2.0304,-2.0304,-2.0304,-2.0304,-2.0304,-2.0304,-2.0304,-2.0304,-2.0527,-2.0613,-2.0527,-2.0714,-2.091,-2.1087,-2.1339,-2.1584,-2.1811,-2.2175,-2.2388,-2.2432,-2.2515,-2.2632,-2.2842,-2.2995,-2.3133,-2.3335,-2.3628,-2.3692,-0.8642,-0.8589,0.0,0.0,0.0,0.0,-1.1155,-1.0883,0.0,0.0,0.0,0.0,0.0,0.0,0.0,0.0,0.0,0.0,0.0,0.0,0.0,0.0,0.0,0.0,-1.5872,-1.5844,-1.5881,-1.5881,-1.5836,-1.5792,-1.5792,-1.5792,-1.5792,-1.5792,-1.5792,-1.5792,-1.5792,-1.5792,-1.5792,-1.5792,-1.5792,-1.5792,-1.5792,-1.5792,-1.5748,-1.5715,-1.5715,-1.5659,-1.5558,-1.6324,-1.6497,-1.6312,-1.6667,-1.6993,-1.7271,-1.7611,-1.7706,-1.7747,-1.7747,-1.7516,-1.7229,-1.7229,-1.7063,-1.6883,-1.7188,-1.7312,-1.7407,-1.7788,-1.7882,-1.7882,-1.7882,-1.8003,-1.8109,-1.8163,-1.8503,-1.8669,-1.8268,-1.8528,-1.9049,-1.9573,-1.996,-2.02,-2.0235,-2.027,-2.0304,-2.0304,-2.0304,-2.0304,-2.0304,-2.0304,-2.0304,-2.0304,-2.0304,-2.0339,-2.046,-2.0494,-2.0646,-2.1007,-2.1306,-2.1582,-2.1853,-2.2186,-2.2388,-2.236,-2.2415,-2.2632,-2.2995,-2.285,-2.2917,-2.3141,-2.3649,-2.3876,-0.9909,0.0,0.0,0.0,0.0,0.0,0.0,-0.9644,0.0,0.0,0.0,0.0,0.0,0.0,0.0,0.0,0.0,0.0,0.0,0.0,0.0,0.0,0.0,0.0,-1.6117,-1.6288,-1.6349,-1.6349,-1.6001,-1.5792,-1.5792,-1.5792,-1.5792,-1.5792,-1.5792,-1.5792,-1.5792,-1.5792,-1.5792,-1.5792,-1.5792,-1.5792,-1.5792,-1.576,-1.5715,-1.5715,-1.5869,-1.578,-1.5513,-1.5944,-1.6139,-1.6157,-1.6582,-1.6769,-1.687,-1.6544,-1.657,-1.6778,-1.6778,-1.6808,-1.6837,-1.6837,-1.6964,-1.7144,-1.7186,-1.7352,-1.7516,-1.7828,-1.7747,-1.7652,-1.7828,-1.7788,-1.7693,-1.7922,-1.8043,-1.8069,-1.7963,-1.8333,-1.8693,-1.8808,-1.925,-1.9654,-1.9874,-2.0115,-2.0304,-2.0304,-2.0304,-2.0304,-2.0304,-2.0304,-2.0304,-2.0304,-2.0304,-2.0304,-2.0339,-2.0339,-2.0426,-2.0613,-2.0679,-2.0811,-2.1039,-2.1462,-2.1598,-2.1383,-2.1866,-2.2409,-2.2995,-2.317,-2.3277,-2.3346,-2.3671,-2.3692,0.0,0.0,0.0,-1.0658,0.0,0.0,0.0,0.0,-0.9912,0.0,0.0,0.0,0.0,0.0,0.0,0.0,0.0,0.0,0.0,0.0,0.0,0.0,0.0,0.0,-1.5763,-1.6121,-1.6501,-1.6837,-1.6423,-1.6132,-1.6132,-1.5925,-1.5792,-1.5792,-1.5792,-1.5792,-1.5792,-1.5792,-1.5792,-1.5792,-1.5748,-1.576,-1.576,-1.5659,-1.557,-1.5492,-1.5614,-1.5513,-1.5334,-1.568,-1.5712,-1.5656,-1.6076,-1.6238,-1.6213,-1.6139,-1.6207,-1.6362,-1.6362,-1.625,-1.6151,-1.6151,-1.6151,-1.6194,-1.6607,-1.6989,-1.7365,-1.7502,-1.7447,-1.7365,-1.7502,-1.7529,-1.7516,-1.7652,-1.7788,-1.7882,-1.7747,-1.8055,-1.8372,-1.8254,-1.876,-1.9273,-1.9717,-2.0065,-2.0304,-2.0304,-2.0304,-2.0304,-2.0304,-2.0304,-2.0304,-2.0304,-2.0304,-2.0304,-2.0304,-2.0304,-2.0339,-2.0407,-2.0561,-2.0695,-2.0794,-2.1355,-2.1691,-2.1705,-2.2015,-2.2426,-2.2893,-2.3212,-2.3359,-2.3405,-2.3689,-2.3714,0.0,0.0,0.0,0.0,0.0,-1.1788,0.0,0.0,0.0,-1.124,0.0,0.0,0.0,0.0,0.0,0.0,0.0,0.0,0.0,0.0,0.0,0.0,0.0,0.0,0.0,-1.5539,-1.6023,-1.6697,-1.6233,-1.6006,-1.6175,-1.5952,-1.5792,-1.5792,-1.5792,-1.5836,-1.5925,-1.5836,-1.5836,-1.5869,-1.5748,-1.5671,-1.5671,-1.5513,-1.539,-1.5312,-1.5345,-1.5255,-1.5108,-1.5457,-1.5412,-1.5153,-1.5614,-1.5647,-1.5546,-1.5869,-1.5969,-1.5969,-1.5969,-1.5824,-1.5591,-1.5591,-1.5457,-1.5424,-1.6013,-1.6577,-1.6989,-1.6989,-1.6989,-1.6989,-1.6989,-1.7157,-1.7269,-1.7352,-1.7529,-1.7625,-1.7475,-1.7774,-1.8029,-1.7922,-1.845,-1.9124,-1.9624,-1.9995,-2.022,-2.0304,-2.0304,-2.0304,-2.0304,-2.0304,-2.0304,-2.0304,-2.0304,-2.0304,-2.0304,-2.0304,-2.0304,-2.0304,-2.0595,-2.0794,-2.0794,-2.1386,-2.1886,-2.2282,-2.2293,-2.2443,-2.2782,-2.3042,-2.3259,-2.3394,-2.3689,-2.3795,0.0,0.0,0.0,0.0,-1.3979,0.0,0.0,0.0,-1.1296,-0.9884,0.0,0.0,0.0,0.0,0.0,0.0,0.0,0.0,0.0,0.0,0.0,0.0,0.0,0.0,0.0,-1.4419,-1.441,-1.5029,-1.4307,-1.422,-1.5121,-1.5584,-1.5792,-1.5792,-1.5792,-1.6013,-1.6436,-1.5969,-1.5869,-1.6238,-1.5768,-1.5513,-1.5513,-1.539,-1.5312,-1.5312,-1.5468,-1.5367,-1.5108,-1.5457,-1.5412,-1.5153,-1.5513,-1.5412,-1.5153,-1.5198,-1.5244,-1.5244,-1.5244,-1.5367,-1.5591,-1.5591,-1.5824,-1.61,-1.6156,-1.6231,-1.6318,-1.6318,-1.6318,-1.6318,-1.6318,-1.6318,-1.6405,-1.6723,-1.6795,-1.6892,-1.7199,-1.7406,-1.7652,-1.7882,-1.8528,-1.9139,-1.9413,-1.9675,-1.9945,-2.027,-2.0304,-2.0304,-2.0304,-2.0304,-2.0304,-2.0304,-2.0304,-2.0304,-2.0304,-2.0304,-2.0304,-2.0304,-2.0595,-2.0794,-2.0794,-2.115,-2.1661,-2.2282,-2.202,-2.2153,-2.2712,-2.2764,-2.2958,-2.3324,-2.3771,-2.3855,0.0,0.0,0.0,0.0,0.0,0.0,-1.1735,0.0,-1.0954,0.0,0.0,0.0,0.0,0.0,0.0,0.0,0.0,0.0,0.0,0.0,0.0,0.0,0.0,0.0,0.0,0.0,0.0,0.0,-1.4037,-1.4277,-1.5492,-1.5881,-1.6212,-1.6595,-1.6349,-1.6306,-1.6522,-1.6013,-1.5836,-1.5957,-1.5647,-1.5468,-1.539,-1.5255,-1.5165,-1.521,-1.5289,-1.5244,-1.5108,-1.5244,-1.5244,-1.5108,-1.5244,-1.5232,-1.5108,-1.5108,-1.5108,-1.5108,-1.5108,-1.5198,-1.5322,-1.5322,-1.5558,-1.5869,-1.5869,-1.6001,-1.62,-1.62,-1.62,-1.62,-1.62,-1.62,-1.6231,-1.6392,-1.6552,-1.6765,-1.6892,-1.7365,-1.7706,-1.7693,-1.8175,-1.8606,-1.8745,-1.9515,-2.0065,-2.003,-2.0185,-2.022,-2.003,-2.0185,-2.0304,-2.0304,-2.0304,-2.0304,-2.0304,-2.0304,-2.0373,-2.0561,-2.0909,-2.1182,-2.1386,-2.1509,-2.1811,-2.2282,-2.2152,-2.2287,-2.2712,-2.2712,-2.2867,-2.3188,-2.3602,-2.3692,-1.3485,0.0,0.0,0.0,0.0,0.0,0.0,0.0,0.0,0.0,0.0,0.0,0.0,0.0,0.0,0.0,0.0,0.0,0.0,0.0,0.0,0.0,0.0,0.0,0.0,0.0,0.0,0.0,0.0,-1.3565,-1.5163,-1.5683,-1.623,-1.6814,-1.6731,-1.6735,-1.6765,-1.6163,-1.5901,-1.5988,-1.5603,-1.5334,-1.5255,-1.5153,-1.5108,-1.5108,-1.5108,-1.5108,-1.5108,-1.5108,-1.5108,-1.5108,-1.5108,-1.5108,-1.5108,-1.5108,-1.5108,-1.5108,-1.5108,-1.5108,-1.5108,-1.5108,-1.5232,-1.5457,-1.5457,-1.5691,-1.5881,-1.5881,-1.5881,-1.5881,-1.5881,-1.5881,-1.5969,-1.6144,-1.6392,-1.6595,-1.6808,-1.7282,-1.7666,-1.7516,-1.7855,-1.8175,-1.8279,-1.9095,-1.9732,-1.9732,-1.9925,-2.0045,-1.9945,-2.015,-2.0304,-2.0304,-2.0304,-2.0304,-2.0304,-2.0304,-2.0441,-2.0794,-2.1039,-2.1339,-2.1781,-2.1797,-2.1961,-2.2282,-2.231,-2.2394,-2.2579,-2.2659,-2.2799,-2.301,-2.3382,-2.354,0.0,0.0,0.0,-1.2959,0.0,0.0,0.0,0.0,-1.202,0.0,0.0,0.0,0.0,0.0,-0.9778,-0.9198,-0.922,0.0,0.0,0.0,0.0,0.0,0.0,0.0,0.0,0.0,0.0,0.0,-1.0533,-1.1199,-1.3187,-1.4569,-1.5518,-1.5936,-1.6734,-1.7282,-1.7475,-1.6544,-1.633,-1.6744,-1.5656,-1.5108,-1.5108,-1.5108,-1.5108,-1.5108,-1.5108,-1.5108,-1.5108,-1.5108,-1.5108,-1.5108,-1.5108,-1.5108,-1.5108,-1.5108,-1.5108,-1.5108,-1.5108,-1.5108,-1.5108,-1.5108,-1.5108,-1.5108,-1.5108,-1.5108,-1.5153,-1.5153,-1.5153,-1.5153,-1.5153,-1.5153,-1.5334,-1.6013,-1.62,-1.6405,-1.7031,-1.7199,-1.7282,-1.7475,-1.7747,-1.8068,-1.8266,-1.8344,-1.8616,-1.9406,-1.953,-1.9711,-2.0235,-2.0304,-2.0304,-2.0304,-2.0304,-2.0304,-2.0304,-2.0304,-2.0441,-2.0794,-2.0827,-2.1103,-2.1751,-2.1797,-2.1961,-2.2282,-2.231,-2.231,-2.231,-2.2579,-2.2712,-2.2738,-2.3253,-2.3504,0.0,0.0,-1.4674,-1.3415,0.0,0.0,0.0,0.0,0.0,0.0,0.0,0.0,0.0,0.0,-0.9663,-0.907,-0.8709,-0.8225,0.0,0.0,0.0,0.0,0.0,0.0,0.0,0.0,0.0,-1.0079,-1.0343,-1.1349,-1.3365,-1.4715,-1.5806,-1.6597,-1.6758,-1.6847,-1.6964,-1.6367,-1.5976,-1.58,-1.5424,-1.521,-1.5108,-1.5108,-1.5108,-1.5108,-1.5108,-1.5108,-1.5108,-1.5108,-1.5108,-1.5108,-1.5108,-1.5108,-1.5108,-1.5108,-1.5108,-1.5108,-1.5108,-1.5108,-1.5108,-1.5108,-1.5108,-1.5108,-1.5108,-1.5108,-1.5108,-1.5108,-1.5108,-1.5108,-1.5108,-1.5108,-1.5153,-1.5424,-1.5647,-1.5869,-1.6107,-1.6625,-1.7047,-1.6964,-1.7338,-1.7639,-1.7598,-1.7557,-1.7908,-1.893,-1.9624,-1.9975,-1.9782,-1.9995,-2.0185,-2.0185,-2.0185,-2.0185,-2.0304,-2.0494,-2.0662,-2.0794,-2.123,-2.157,-2.1781,-2.202,-2.218,-2.231,-2.2487,-2.2552,-2.2569,-2.2825,-2.306,-2.3247,-2.3518,-2.3635,-1.4105,-1.4239,0.0,-1.3306,-1.2917,0.0,-1.1517,0.0,0.0,0.0,0.0,0.0,0.0,0.0,-0.9599,-0.909,-0.8509,-0.7885,0.0,0.0,0.0,0.0,0.0,0.0,0.0,0.0,0.0,-0.9631,-0.9872,-1.0888,0.0,0.0,-1.5148,-1.6315,-1.6414,-1.6477,-1.6637,-1.6207,-1.5869,-1.557,-1.5345,-1.5165,-1.5108,-1.5108,-1.5108,-1.5108,-1.5108,-1.5108,-1.5108,-1.5108,-1.5017,-1.4834,-1.4834,-1.4731,-1.4593,-1.4789,-1.4834,-1.4834,-1.4834,-1.4971,-1.5108,-1.5108,-1.5108,-1.5108,-1.5108,-1.5108,-1.5108,-1.5108,-1.5108,-1.5108,-1.5108,-1.5108,-1.5108,-1.5244,-1.5546,-1.5869,-1.5988,-1.6582,-1.7047,-1.6892,-1.7144,-1.7352,-1.724,-1.7352,-1.7747,-1.8472,-1.9207,-1.9639,-1.9479,-1.9833,-2.008,-2.0115,-2.01,-2.022,-2.0475,-2.0662,-2.0794,-2.0794,-2.1198,-2.1448,-2.1448,-2.1768,-2.1991,-2.2123,-2.2405,-2.2569,-2.2569,-2.2975,-2.3271,-2.345,-2.3785,-2.3985]}]]